[[{"header":{"parameterUnit":"m.s-1","parameterCategory":1,"la1":30.6,"la2":29.2853,"lo1":-89.7004,"lo2":-87.6739,"dy":0.0162,"dx":0.0183,"nx":112,"ny":82,"refTime":"2023-05-26T06:00:00:Z","depth":0,"parameterNumber":2,"parameterNumberName":"U-component_of_WINDS"},"data":[0.0,0.0,0.0,0.0,0.0,0.0,0.0,0.0,0.0,0.0,0.0,0.0,0.0,0.0,0.0,0.0,0.0,0.0,0.0,0.0,0.0,0.0,0.0,0.0,0.0,0.0,0.0,0.0,0.0,0.0,0.0,0.0,0.0,0.0,0.0,0.0,0.0,0.0,0.0,0.0,0.0,0.0,0.0,0.0,0.0,0.0,0.0,0.0,0.0,0.0,0.0,0.0,0.0,0.0,0.0,0.0,0.0,0.0,0.0,0.0,0.0,0.0,0.0,0.0,0.0,0.0,0.0,0.0,0.0,0.0,0.0,0.0,0.0,0.0,0.0,0.0,0.0,0.0,0.0,0.0,0.0,0.0,0.0,0.0,0.0,0.0,0.0,0.0,0.0,0.0,2.1347,2.2012,2.3047,2.3535,2.312,2.3418,2.3105,2.1953,0.0,0.0,0.0,0.0,0.0,0.0,0.0,0.0,0.0,0.0,0.0,0.0,0.0,0.0,0.0,0.0,0.0,0.0,0.0,0.0,0.0,0.0,0.0,0.0,0.0,0.0,0.0,0.0,0.0,0.0,0.0,0.0,0.0,0.0,0.0,0.0,0.0,0.0,0.0,0.0,0.0,0.0,0.0,0.0,0.0,0.0,0.0,0.0,0.0,0.0,0.0,0.0,0.0,0.0,0.0,0.0,0.0,0.0,0.0,0.0,0.0,0.0,0.0,0.0,0.0,0.0,0.0,0.0,0.0,0.0,0.0,0.0,0.0,0.0,0.0,0.0,0.0,0.0,0.0,0.0,0.0,0.0,0.0,0.0,0.0,0.0,0.0,0.0,0.0,0.0,0.0,0.0,0.0,0.0,0.0,0.0,0.0,0.0,0.0,0.0,0.0,0.0,0.0,0.0,2.125,2.2771,2.3081,2.3181,2.3101,2.2849,2.2461,2.1914,0.0,0.0,0.0,0.0,0.0,0.0,0.0,0.0,0.0,0.0,0.0,0.0,0.0,0.0,0.0,0.0,0.0,0.0,0.0,0.0,0.0,0.0,0.0,0.0,0.0,0.0,0.0,0.0,0.0,0.0,0.0,0.0,0.0,0.0,0.0,0.0,0.0,0.0,0.0,0.0,0.0,0.0,0.0,0.0,0.0,0.0,0.0,0.0,0.0,0.0,0.0,0.0,0.0,0.0,0.0,0.0,0.0,0.0,0.0,0.0,0.0,0.0,0.0,0.0,0.0,0.0,0.0,0.0,0.0,0.0,0.0,0.0,0.0,0.0,0.0,0.0,0.0,0.0,0.0,0.0,0.0,0.0,0.0,0.0,0.0,0.0,0.0,0.0,0.0,0.0,0.0,0.0,0.0,0.0,0.0,0.0,0.0,0.0,0.0,0.0,0.0,0.0,0.0,2.125,2.2012,2.2984,2.3337,2.3376,2.312,2.2947,2.2557,2.1954,2.207,0.0,0.0,0.0,0.0,0.0,0.0,0.0,0.0,0.0,0.0,0.0,0.0,0.0,0.0,0.0,0.0,0.0,0.0,0.0,0.0,0.0,0.0,0.0,0.0,0.0,0.0,0.0,0.0,0.0,0.0,0.0,0.0,0.0,0.0,0.0,0.0,0.0,0.0,0.0,0.0,0.0,0.0,0.0,0.0,0.0,0.0,0.0,0.0,0.0,0.0,0.0,0.0,0.0,0.0,0.0,0.0,0.0,0.0,0.0,0.0,0.0,0.0,0.0,0.0,0.0,0.0,0.0,0.0,0.0,0.0,0.0,0.0,0.0,0.0,0.0,0.0,0.0,0.0,0.0,0.0,0.0,0.0,0.0,0.0,0.0,0.0,0.0,0.0,0.0,0.0,0.0,0.0,0.0,0.0,0.0,0.0,0.0,0.0,0.0,0.0,0.0,0.0,2.2285,2.2771,2.3062,2.3415,2.3496,2.312,2.2927,2.2537,2.1954,2.172,0.0,0.0,0.0,0.0,0.0,0.0,0.0,0.0,0.0,0.0,0.0,0.0,0.0,0.0,0.0,0.0,0.0,0.0,0.0,0.0,0.0,0.0,0.0,0.0,0.0,0.0,0.0,0.0,0.0,0.0,0.0,0.0,0.0,0.0,0.0,0.0,0.0,0.0,0.0,0.0,0.0,0.0,0.0,0.0,0.0,0.0,0.0,0.0,0.0,0.0,0.0,0.0,0.0,0.0,0.0,0.0,0.0,0.0,0.0,0.0,0.0,0.0,0.0,0.0,0.0,0.0,0.0,0.0,0.0,0.0,0.0,0.0,0.0,0.0,0.0,0.0,0.0,0.0,0.0,0.0,0.0,0.0,0.0,0.0,0.0,0.0,0.0,0.0,0.0,0.0,0.0,0.0,0.0,0.0,0.0,0.0,0.0,0.0,0.0,0.0,0.0,0.0,2.2301,2.3062,2.3081,2.312,2.314,2.3101,2.2401,2.1974,2.1894,2.1133,0.0,0.0,0.0,0.0,0.0,0.0,0.0,0.0,0.0,0.0,0.0,0.0,0.0,0.0,0.0,0.0,0.0,0.0,0.0,0.0,0.0,0.0,0.0,0.0,0.0,0.0,0.0,0.0,0.0,0.0,0.0,0.0,0.0,0.0,0.0,0.0,0.0,0.0,0.0,0.0,0.0,0.0,0.0,0.0,0.0,0.0,0.0,0.0,0.0,0.0,0.0,0.0,0.0,0.0,0.0,0.0,0.0,0.0,0.0,0.0,0.0,0.0,0.0,0.0,0.0,0.0,0.0,0.0,0.0,0.0,0.0,0.0,0.0,0.0,0.0,0.0,0.0,0.0,0.0,0.0,0.0,0.0,0.0,0.0,0.0,0.0,0.0,0.0,0.0,0.0,0.0,0.0,0.0,0.0,0.0,0.0,0.0,0.0,0.0,0.0,0.0,0.0,2.2519,2.3262,2.3516,2.3555,2.3415,2.312,2.2596,2.2168,2.1915,0.0,0.0,0.0,0.0,0.0,0.0,0.0,0.0,0.0,0.0,0.0,0.0,0.0,0.0,0.0,0.0,0.0,0.0,0.0,0.0,0.0,0.0,0.0,0.0,0.0,0.0,0.0,0.0,0.0,0.0,0.0,0.0,0.0,0.0,0.0,0.0,0.0,0.0,0.0,0.0,0.0,0.0,0.0,0.0,0.0,0.0,0.0,0.0,0.0,0.0,0.0,0.0,0.0,0.0,0.0,0.0,0.0,0.0,0.0,0.0,0.0,0.0,0.0,0.0,0.0,0.0,0.0,0.0,0.0,0.0,0.0,0.0,0.0,0.0,0.0,0.0,0.0,0.0,0.0,0.0,0.0,0.0,0.0,0.0,0.0,0.0,0.0,0.0,0.0,0.0,0.0,0.0,0.0,0.0,0.0,0.0,0.0,0.0,0.0,0.0,0.0,0.0,2.1934,2.2854,2.3499,2.3769,2.3789,2.3613,2.314,2.2479,2.203,2.1915,0.0,0.0,0.0,0.0,0.0,0.0,0.0,0.0,0.0,0.0,0.0,0.0,0.0,0.0,0.0,0.0,0.0,0.0,0.0,0.0,0.0,0.0,0.0,0.0,0.0,0.0,0.0,0.0,0.0,0.0,0.0,0.0,0.0,0.0,0.0,0.0,0.0,0.0,0.0,0.0,0.0,0.0,0.0,0.0,0.0,0.0,0.0,0.0,0.0,0.0,0.0,0.0,0.0,0.0,0.0,0.0,0.0,0.0,0.0,0.0,0.0,0.0,0.0,0.0,0.0,0.0,0.0,0.0,0.0,0.0,0.0,0.0,0.0,0.0,0.0,0.0,0.0,0.0,0.0,0.0,0.0,0.0,0.0,0.0,0.0,0.0,0.0,0.0,0.0,0.0,0.0,0.0,0.0,0.0,0.0,0.0,0.0,0.0,0.0,0.0,0.0,0.0,2.2381,2.3262,2.3789,2.3789,2.3789,2.3613,2.314,2.1931,2.1385,0.0,0.0,0.0,0.0,0.0,0.0,0.0,0.0,0.0,0.0,0.0,0.0,0.0,0.0,0.0,0.0,0.0,0.0,0.0,0.0,0.0,0.0,0.0,0.0,0.0,0.0,0.0,0.0,0.0,0.0,0.0,0.0,0.0,0.0,0.0,0.0,0.0,0.0,0.0,0.0,0.0,0.0,0.0,0.0,0.0,0.0,0.0,0.0,0.0,0.0,0.0,0.0,0.0,0.0,0.0,0.0,0.0,0.0,0.0,0.0,0.0,0.0,0.0,0.0,0.0,0.0,0.0,0.0,0.0,0.0,0.0,0.0,0.0,0.0,0.0,0.0,0.0,0.0,0.0,0.0,0.0,0.0,0.0,0.0,0.0,0.0,0.0,0.0,0.0,0.0,0.0,0.0,0.0,0.0,0.0,0.0,0.0,0.0,0.0,0.0,0.0,0.0,0.0,2.2381,2.3262,2.3789,2.3789,2.3789,2.3613,2.314,2.1931,2.1062,2.072,0.0,0.0,0.0,0.0,0.0,0.0,0.0,0.0,0.0,0.0,0.0,0.0,0.0,0.0,0.0,0.0,0.0,0.0,0.0,0.0,0.0,0.0,0.0,0.0,0.0,0.0,0.0,0.0,0.0,0.0,0.0,0.0,0.0,0.0,0.0,0.0,0.0,0.0,0.0,0.0,0.0,0.0,0.0,0.0,0.0,0.0,0.0,0.0,0.0,0.0,0.0,0.0,0.0,0.0,0.0,0.0,0.0,0.0,0.0,0.0,0.0,0.0,0.0,0.0,0.0,0.0,0.0,0.0,0.0,0.0,0.0,0.0,0.0,0.0,0.0,0.0,0.0,0.0,0.0,0.0,0.0,0.0,0.0,0.0,0.0,0.0,0.0,0.0,0.0,0.0,0.0,0.0,0.0,0.0,0.0,0.0,0.0,0.0,0.0,0.0,0.0,0.0,2.2401,2.2824,2.3274,2.3744,2.3364,2.3079,2.3098,2.2108,2.1219,2.0639,0.0,0.0,0.0,0.0,0.0,0.0,0.0,0.0,0.0,0.0,0.0,0.0,0.0,0.0,0.0,0.0,0.0,0.0,0.0,0.0,0.0,0.0,0.0,0.0,0.0,0.0,0.0,0.0,0.0,0.0,0.0,0.0,0.0,0.0,0.0,0.0,0.0,0.0,0.0,0.0,0.0,0.0,0.0,0.0,0.0,0.0,0.0,0.0,0.0,0.0,0.0,0.0,0.0,0.0,0.0,0.0,0.0,0.0,0.0,0.0,0.0,0.0,0.0,0.0,0.0,0.0,0.0,0.0,0.0,0.0,0.0,0.0,0.0,0.0,0.0,0.0,0.0,0.0,0.0,0.0,0.0,0.0,0.0,0.0,0.0,0.0,0.0,0.0,0.0,0.0,0.0,0.0,0.0,0.0,0.0,0.0,0.0,0.0,0.0,0.0,0.0,0.0,2.244,2.2188,2.2359,2.3442,2.2495,2.2053,2.2725,2.2007,2.1352,2.0965,0.0,0.0,0.0,0.0,0.0,0.0,0.0,0.0,0.0,0.0,0.0,0.0,0.0,0.0,0.0,0.0,0.0,0.0,0.0,0.0,0.0,0.0,0.0,0.0,0.0,0.0,0.0,0.0,0.0,0.0,0.0,0.0,0.0,0.0,0.0,0.0,0.0,0.0,0.0,0.0,0.0,0.0,0.0,0.0,0.0,0.0,0.0,0.0,0.0,0.0,0.0,0.0,0.0,0.0,0.0,0.0,0.0,0.0,0.0,0.0,1.7194,1.7354,0.0,0.0,0.0,0.0,0.0,0.0,0.0,0.0,0.0,0.0,0.0,0.0,0.0,0.0,0.0,0.0,0.0,0.0,0.0,0.0,0.0,0.0,0.0,0.0,0.0,0.0,0.0,0.0,0.0,0.0,0.0,0.0,0.0,0.0,0.0,0.0,0.0,0.0,0.0,0.0,2.2479,2.1885,2.154,2.1809,2.0752,2.0104,2.0246,1.9303,1.8768,1.8973,1.8957,0.0,0.0,0.0,0.0,0.0,0.0,0.0,0.0,0.0,0.0,0.0,0.0,0.0,0.0,0.0,0.0,0.0,0.0,0.0,0.0,0.0,0.0,0.0,0.0,0.0,0.0,0.0,0.0,0.0,0.0,0.0,0.0,0.0,0.0,0.0,0.0,0.0,0.0,0.0,0.0,0.0,0.0,0.0,0.0,0.0,0.0,0.0,0.0,0.0,0.0,0.0,0.0,0.0,0.0,0.0,0.0,0.0,0.0,0.0,1.6543,1.6432,0.0,0.0,0.0,0.0,0.0,0.0,0.0,0.0,0.0,0.0,0.0,0.0,0.0,0.0,0.0,0.0,0.0,0.0,0.0,0.0,0.0,0.0,0.0,0.0,0.0,0.0,0.0,0.0,0.0,0.0,0.0,0.0,0.0,0.0,0.0,0.0,0.0,0.0,0.0,0.0,2.1712,2.0935,2.0432,2.0432,1.936,1.8872,1.9451,1.8776,1.8277,1.8133,1.8748,0.0,0.0,0.0,0.0,0.0,0.0,0.0,0.0,0.0,0.0,0.0,0.0,0.0,0.0,0.0,0.0,0.0,0.0,0.0,0.0,0.0,0.0,0.0,0.0,0.0,0.0,0.0,0.0,0.0,0.0,0.0,0.0,0.0,0.0,0.0,0.0,0.0,0.0,0.0,0.0,0.0,0.0,0.0,0.0,0.0,0.0,0.0,0.0,0.0,0.0,0.0,0.0,0.0,1.7287,1.7528,1.7769,1.7769,1.7477,1.6925,1.5895,1.5528,1.5645,1.5861,0.0,0.0,0.0,0.0,0.0,0.0,0.0,0.0,0.0,0.0,0.0,0.0,0.0,0.0,0.0,0.0,0.0,0.0,0.0,0.0,0.0,0.0,1.6715,1.7727,1.8154,1.8125,1.7299,0.0,0.0,0.0,0.0,0.0,0.0,0.0,0.0,0.0,0.0,0.0,2.0902,1.9861,1.9177,1.9177,1.8087,1.7777,1.8764,1.8514,1.8111,1.7685,1.8884,1.9318,0.0,0.0,0.0,0.0,0.0,0.0,0.0,0.0,0.0,0.0,0.0,0.0,0.0,0.0,0.0,0.0,0.0,0.0,0.0,0.0,0.0,0.0,0.0,0.0,0.0,0.0,0.0,0.0,0.0,0.0,0.0,0.0,1.5297,1.5337,0.0,0.0,0.0,0.0,0.0,0.0,0.0,0.0,0.0,0.0,0.0,0.0,0.0,1.7542,1.8076,1.8116,1.8183,1.8263,1.8317,1.8358,1.837,1.837,1.7531,1.6061,1.5778,0.0,1.654,1.658,0.0,0.0,0.0,0.0,0.0,0.0,0.0,0.0,0.0,0.0,0.0,0.0,0.0,0.0,0.0,0.0,0.0,0.0,0.0,0.0,0.0,0.0,1.7111,1.7276,1.7532,1.7547,1.6909,1.8252,1.8839,1.6283,1.6229,1.6705,0.0,0.0,0.0,0.0,0.0,0.0,2.11,1.9304,1.794,1.794,1.681,1.6103,1.6268,1.604,1.623,1.7064,1.7723,1.8595,1.9731,2.1081,0.0,0.0,0.0,0.0,0.0,0.0,0.0,0.0,0.0,0.0,0.0,0.0,0.0,0.0,0.0,0.0,0.0,0.0,0.0,0.0,0.0,0.0,0.0,0.0,0.0,0.0,0.0,0.0,0.0,1.5618,1.5909,1.5909,1.6032,1.5885,0.0,0.0,0.0,0.0,0.0,0.0,0.0,0.0,0.0,1.7916,1.8183,1.8544,1.9013,1.9305,1.9466,1.9466,1.9639,1.9639,1.9466,1.9466,1.9044,1.8257,1.7214,1.7408,1.8246,1.56,1.4878,1.5442,0.0,0.0,0.0,0.0,1.6591,1.6618,1.6754,1.6645,1.6444,1.6633,0.0,0.0,0.0,0.0,0.0,0.0,0.0,1.6832,1.6993,1.7328,1.7662,1.7662,1.7876,1.7983,1.7529,1.8156,1.8243,1.6275,1.635,1.6899,1.7365,1.737,0.0,0.0,0.0,1.9635,1.9324,1.8489,1.7587,1.6706,1.6126,1.5808,1.5808,1.5688,1.5774,1.609,1.6885,1.7872,1.905,2.0474,2.1629,0.0,0.0,0.0,0.0,0.0,0.0,0.0,0.0,0.0,0.0,0.0,0.0,0.0,0.0,0.0,0.0,0.0,0.0,0.0,0.0,0.0,0.0,0.0,0.0,0.0,0.0,0.0,0.0,1.6366,1.6578,1.6431,1.6914,1.6901,0.0,0.0,0.0,0.0,0.0,0.0,1.8237,1.8596,1.897,1.9372,1.9666,1.992,2.0177,2.0544,2.0717,2.065,2.0909,2.0895,2.065,2.065,2.042,1.991,1.8608,1.8334,1.8603,1.5211,1.4625,1.5847,1.5774,1.6324,1.7194,1.7434,1.7515,1.7541,1.7649,1.7528,1.73,1.7181,1.7021,1.6792,1.6393,0.0,0.0,0.0,0.0,1.7501,1.7956,1.821,1.8396,1.8543,1.8743,1.8851,1.8529,1.8463,1.8076,1.6779,1.6607,1.6932,1.7615,1.7528,0.0,1.9041,1.9146,1.8798,1.8015,1.7812,1.7264,1.6061,1.5915,1.5888,1.5808,1.5808,1.5715,1.5524,1.6721,1.7757,1.8469,2.0217,2.1585,2.2498,0.0,0.0,0.0,0.0,0.0,0.0,0.0,0.0,0.0,0.0,0.0,0.0,0.0,0.0,0.0,0.0,0.0,0.0,0.0,0.0,0.0,0.0,0.0,0.0,0.0,0.0,0.0,0.0,0.0,1.6754,1.7943,0.0,0.0,0.0,0.0,1.8743,1.9305,1.9773,2.005,2.0641,2.1216,2.1823,2.2098,2.2211,2.2271,2.2298,2.2164,2.1897,2.1943,2.1943,2.1897,2.1897,2.1016,1.9426,1.9221,1.8041,1.6295,1.6504,1.7428,1.8657,1.8419,1.8355,1.8397,1.8424,1.8424,1.8384,1.8089,1.7796,1.7675,1.8223,1.8397,1.8263,1.7702,1.7528,0.0,0.0,1.7969,1.8169,1.9052,1.9321,1.9468,1.9957,2.0104,2.0037,1.9773,1.9706,1.9199,1.7501,1.6913,1.67,1.6762,0.0,1.6877,1.8346,1.7591,1.7233,1.8316,1.7481,1.6641,1.631,1.627,1.6163,1.5821,1.5808,1.5795,1.5781,1.7614,1.8736,1.8786,2.1114,2.2456,2.2498,2.2888,0.0,0.0,0.0,0.0,0.0,0.0,0.0,0.0,0.0,0.0,0.0,0.0,0.0,0.0,0.0,0.0,0.0,0.0,0.0,0.0,0.0,0.0,0.0,0.0,0.0,0.0,0.0,0.0,1.8956,1.9947,0.0,1.9522,2.0177,2.0646,2.0646,2.1368,2.1911,2.2171,2.2605,2.2947,2.3161,2.3233,2.3287,2.3287,2.3287,2.3081,2.2586,2.2586,2.2479,2.2258,2.2258,2.2029,2.1599,2.0435,2.0004,2.0092,1.9114,1.8409,1.7934,1.7835,1.832,1.9107,1.9265,1.9332,1.9345,1.9397,1.9236,1.8985,1.8824,1.8637,1.845,1.8237,1.8303,1.8504,1.8811,1.9038,1.9292,1.98,1.992,1.9943,2.0157,2.0197,2.017,2.0064,2.005,1.984,1.904,1.8317,1.7796,1.7569,1.7315,1.7321,1.7827,1.7696,1.7578,1.7631,1.7437,1.7088,1.6607,1.6553,1.6433,1.6139,1.6112,1.6032,1.5821,1.6486,1.7605,1.9185,2.0085,2.1298,2.2845,2.2771,2.2771,0.0,0.0,0.0,0.0,0.0,0.0,0.0,0.0,0.0,0.0,0.0,0.0,0.0,0.0,0.0,0.0,0.0,0.0,0.0,0.0,0.0,0.0,0.0,0.0,0.0,1.9599,2.0615,2.0802,2.1871,2.2325,2.1643,2.2318,2.2773,2.2773,2.3496,2.4031,2.4209,2.4489,2.4646,2.4553,2.4539,2.4446,2.4245,2.4245,2.3991,2.346,2.346,2.3354,2.3132,2.3132,2.322,2.3278,2.2131,2.202,2.2623,2.1457,2.0307,1.923,1.9013,1.9499,2.0298,2.0468,2.0535,2.0535,2.0504,2.0334,2.0013,1.949,1.9239,1.9078,1.9078,1.9212,1.9397,1.972,1.9977,2.016,2.0424,2.049,2.049,2.049,2.049,2.049,2.049,2.049,2.041,2.016,1.9386,1.8691,1.8369,1.809,1.7929,1.8023,1.8103,1.8063,1.7809,1.7862,1.7662,1.7061,1.7007,1.6807,1.6337,1.6391,1.6246,1.5835,1.6537,1.7656,1.9202,1.9698,2.0838,2.2865,2.2251,2.2073,2.2492,0.0,0.0,0.0,0.0,0.0,0.0,0.0,0.0,0.0,0.0,0.0,0.0,0.0,0.0,0.0,0.0,0.0,0.0,0.0,0.0,0.0,0.0,0.0,1.996,2.1149,2.2084,2.2111,2.3647,2.4332,2.3479,2.4476,2.5144,2.513,2.5703,2.6038,2.6038,2.6305,2.6332,2.6051,2.6024,2.5743,2.5144,2.5117,2.497,2.4639,2.4639,2.4639,2.4639,2.4626,2.4479,2.4262,2.4249,2.3915,2.3345,2.3345,2.3193,2.288,2.2278,2.205,2.205,2.205,2.2004,2.1911,2.1336,2.0949,2.0699,2.0344,2.0264,2.0264,2.0264,2.0264,2.0317,2.0628,2.0739,2.0793,2.1042,2.1109,2.1109,2.1109,2.1109,2.1109,2.1109,2.1109,2.1029,2.0766,2.0017,1.9348,1.8983,1.8731,1.8637,1.8876,1.8718,0.0,1.8863,1.8677,1.8277,1.7702,1.7635,1.7287,1.6404,1.6553,1.646,1.5835,1.7933,1.9043,1.8752,1.9943,2.1176,2.237,2.1259,2.0857,2.1239,0.0,0.0,0.0,0.0,0.0,0.0,0.0,0.0,0.0,0.0,0.0,0.0,0.0,0.0,0.0,0.0,0.0,0.0,0.0,0.0,0.0,2.1496,2.2392,2.1777,2.3153,2.4419,2.4847,2.5665,2.6093,2.5853,2.6346,2.6573,2.636,2.6694,2.6948,2.6948,2.7028,2.7028,2.6948,2.6694,2.6507,2.6346,2.6132,2.5879,2.5636,2.5636,2.5636,2.5623,2.5371,2.5344,2.5503,2.5251,2.4943,2.4596,2.4596,2.4302,2.3754,2.2974,2.2653,2.2653,2.2653,2.2485,2.2245,2.1871,2.1697,2.1649,2.1537,2.151,2.151,2.151,2.151,2.147,2.1381,2.1341,2.1315,2.1149,2.1109,2.1109,2.1109,2.1109,2.1109,2.1109,2.1109,2.1029,2.0766,2.0512,2.0258,1.989,1.9783,1.9677,1.9573,1.9492,1.9319,1.8943,1.8823,1.8664,1.8277,1.8237,1.7903,1.7032,1.7032,1.6618,1.5578,1.6123,1.6824,1.7612,1.7978,1.8844,2.0293,2.0002,1.9895,0.0,0.0,0.0,0.0,0.0,0.0,0.0,0.0,0.0,0.0,0.0,0.0,0.0,0.0,0.0,0.0,0.0,0.0,0.0,0.0,0.0,0.0,2.3434,2.4436,2.4449,2.5237,2.6026,2.6653,2.7094,2.7375,2.7375,2.7576,2.7603,2.7388,2.7576,2.767,2.767,2.767,2.7617,2.7455,2.7281,2.7134,2.7014,2.6841,2.6707,2.6546,2.6546,2.6546,2.6533,2.6319,2.6213,2.6172,2.5959,2.5651,2.5264,2.5264,2.5064,2.4663,0.0,0.0,0.0,0.0,2.306,2.2752,2.2458,2.2305,2.2151,2.2031,2.1991,2.1991,2.1991,2.1991,2.1984,2.181,2.177,2.1729,2.1523,2.139,2.1296,2.1296,2.1203,2.1109,2.1109,2.1109,2.1056,2.0895,2.0855,0.0,2.0597,2.037,2.0144,1.997,1.988,1.9679,1.9303,1.9185,1.8998,1.8704,1.8677,1.8303,1.7434,1.738,0.0,0.0,0.0,1.6538,1.7093,1.7612,0.0,0.0,0.0,1.8797,1.8916,1.8403,0.0,0.0,1.926,1.9404,0.0,0.0,0.0,0.0,0.0,0.0,0.0,0.0,0.0,0.0,0.0,0.0,0.0,0.0,0.0,0.0,2.5422,2.6493,2.7336,2.7215,2.72,2.7696,2.8058,2.8219,2.8192,2.8219,2.8219,2.8192,2.8245,2.8259,2.8192,2.8219,0.0,0.0,0.0,2.7629,2.7403,2.7403,2.7403,2.7403,2.7403,2.7403,2.7403,2.7376,2.7028,2.6533,2.6466,2.6146,2.5651,2.5625,2.5598,2.5478,2.4636,2.4128,2.3897,2.387,2.3634,2.3327,2.302,0.0,0.0,2.2164,2.2084,2.2084,2.2084,2.2084,2.2071,2.2044,2.2031,2.2017,2.1984,2.1783,2.1582,2.1542,2.1328,2.1109,2.1109,2.1109,2.1109,2.1109,2.1109,2.1109,2.1109,2.065,2.029,2.0264,2.0067,1.988,1.9813,1.9573,1.9334,1.897,1.8943,0.0,1.7716,1.7662,1.7274,1.6351,1.6975,1.7238,1.693,1.7992,1.8254,1.7601,1.7593,1.7731,1.7993,1.6929,1.6538,1.6844,1.8716,1.9018,0.0,0.0,0.0,0.0,0.0,0.0,0.0,0.0,0.0,0.0,0.0,0.0,0.0,0.0,0.0,2.5422,2.664,2.7589,2.8257,2.8497,2.847,2.8138,2.8337,2.846,2.8205,2.8419,2.8417,2.8205,2.8591,2.8657,2.8205,2.8419,2.8377,2.8112,2.8098,2.8072,2.8018,2.8018,2.8018,2.8018,2.8018,0.0,2.8005,2.7764,2.7549,2.7415,2.6947,2.668,2.6547,2.6319,2.6079,2.585,2.5157,2.473,2.4399,2.4209,2.3941,2.3683,2.334,2.3033,2.28,2.2746,2.2733,2.2733,2.2733,2.2733,0.0,2.2405,2.2338,2.2231,2.1796,2.1622,2.1529,2.1256,2.1149,2.1109,2.1109,2.1109,2.1109,2.1109,2.1109,2.1109,2.1109,2.1015,2.0855,2.0628,2.0579,2.0334,1.9867,1.9746,1.9599,1.9334,1.9308,1.8918,1.8009,1.7929,1.7449,1.6364,1.6462,1.6491,1.6436,1.6874,1.7026,1.6897,1.6897,1.7048,1.7374,1.7133,1.7153,1.7434,1.7638,1.7601,0.0,0.0,0.0,0.0,0.0,0.0,0.0,0.0,0.0,0.0,0.0,2.2331,2.334,0.0,2.5732,2.7068,2.8016,2.8698,2.9005,2.9419,2.9419,2.8684,2.8724,2.8764,2.8604,2.8871,2.8925,2.8617,2.9005,2.9072,2.8617,2.8604,2.8537,2.8419,2.8272,2.8179,2.8179,2.8179,2.8179,2.8179,2.8179,2.8179,2.8179,2.8031,2.7843,2.7682,2.7388,2.7094,2.676,2.6507,2.6265,2.5971,2.5677,2.5251,2.4836,2.469,2.4369,2.3968,2.3821,2.3567,2.3322,2.314,2.31,2.3073,2.2947,2.2893,2.2867,2.2719,2.2645,2.2579,2.2318,2.2024,2.177,2.159,2.1323,2.1109,2.1109,2.1109,2.1109,2.1109,2.1109,2.1109,2.1109,2.1109,2.1015,2.0753,2.0712,2.0498,1.988,1.98,1.9693,1.9428,1.9401,1.9132,1.8503,1.8155,1.7702,1.7006,1.6819,1.6764,1.6764,1.6872,1.6953,1.6953,1.7074,1.7288,1.7595,1.7595,1.7742,1.8036,1.8036,1.7876,0.0,0.0,0.0,0.0,0.0,0.0,0.0,2.0454,2.1184,2.1977,2.3014,2.4231,2.5732,2.6507,2.7335,2.8644,2.9312,2.9659,2.9659,3.0159,3.0181,2.9415,2.9282,2.9228,2.9175,2.9472,2.9513,2.9108,2.9406,2.9406,2.9015,2.8764,2.8604,2.8604,2.8353,2.8179,2.8179,2.8245,2.8245,2.8179,2.8245,2.8245,2.8179,2.8179,2.8058,2.7776,2.7722,2.7402,2.6881,2.6587,2.6333,2.6158,2.6105,2.5757,2.5275,2.5117,2.4743,2.4275,2.4222,2.4008,2.3728,2.342,2.3292,2.3238,2.2987,2.2893,2.2893,2.2893,2.2893,2.288,2.2827,2.2452,2.2044,2.1957,2.1537,2.1176,2.1122,2.1109,2.1109,2.1109,2.1109,2.1109,2.1109,2.1109,2.1029,2.0802,2.0793,2.0575,2.004,1.992,1.9773,1.9508,1.9428,1.9267,1.8916,1.8409,1.7996,1.7796,1.7568,1.746,1.746,1.746,1.746,1.746,1.7662,1.7916,1.8169,1.8169,1.8369,1.8758,1.8985,1.8743,1.7542,1.7983,1.8851,2.0388,2.0615,2.1229,0.0,2.4222,2.4142,2.5518,2.6359,2.7028,2.775,2.8337,2.8921,2.9659,3.0047,3.0306,3.0306,3.0541,3.0715,3.0608,3.0368,3.0114,2.9847,3.0087,3.0079,2.9472,2.97,2.9575,2.9028,2.8764,2.8604,2.8604,2.8353,2.8179,2.8179,2.846,2.846,2.8192,2.8417,2.8417,2.8179,2.8179,2.8165,2.8125,2.7816,2.7509,2.7229,2.6894,2.6747,2.6694,2.644,2.6185,2.5837,2.5315,2.4877,2.4519,2.4289,2.4008,2.3728,2.342,2.3292,2.3238,2.2987,2.2893,2.2893,2.2893,2.2893,2.284,2.2539,2.2418,2.2245,2.1756,2.1582,2.1462,2.1162,2.1109,2.1109,2.1109,2.1109,2.1109,2.1109,2.1109,2.1096,2.1069,2.1069,2.0949,2.0646,2.0347,2.0037,1.9786,1.9548,1.9267,1.8916,1.8624,1.8424,1.8397,1.8357,1.8343,1.8343,1.8343,1.8343,1.8343,1.837,1.8531,1.8796,1.8796,1.9076,1.9653,1.9693,1.9386,1.9533,1.9826,2.0307,2.1563,2.2298,2.318,2.4877,2.5371,2.5838,2.7188,2.7883,2.8537,2.9343,2.978,3.0194,3.0608,3.0929,3.1176,3.1176,3.1269,3.1169,3.0835,3.0835,3.0755,3.0448,3.0688,3.0688,3.0274,3.0354,3.0247,2.9833,2.9366,2.9032,2.8815,2.8724,2.8577,2.8417,2.8711,2.8711,2.8417,2.8551,2.8444,2.8179,2.8179,2.8179,2.8165,2.7684,2.7416,2.7269,2.676,2.6573,2.656,2.644,2.6319,2.6172,2.5545,2.5144,2.485,2.4556,2.4382,2.4222,2.3928,2.3834,2.3781,2.3522,2.3308,2.314,2.314,2.3041,2.2867,2.2746,2.2552,2.2311,2.193,2.1703,2.1502,2.1176,2.1109,2.1109,2.1109,2.1109,2.1109,2.1109,2.1109,2.1109,2.1109,2.1109,2.1002,2.0739,2.0575,2.0374,2.008,1.9947,1.9746,1.9466,1.945,1.9359,1.9053,1.9027,1.896,1.8744,1.8744,1.8744,1.8744,1.9078,1.9305,1.9439,1.957,1.9783,2.0024,2.0024,1.989,2.0869,2.1229,2.1617,2.2718,2.3861,2.4903,2.577,2.648,2.7335,2.8553,2.9098,2.9646,3.0448,3.0768,3.1036,3.141,3.1583,3.1751,3.1784,3.1583,3.1276,3.0849,3.0835,3.0849,3.0795,3.1049,3.1142,3.0929,3.0835,3.0662,3.0426,2.9851,2.9379,2.9165,2.9041,2.8895,2.8724,2.8975,2.8978,2.8604,2.8684,2.8524,2.8179,2.8179,2.8179,2.8152,2.7643,2.7469,2.7496,2.6787,2.656,2.6613,2.6453,2.6386,2.6333,2.5825,2.5451,2.5157,2.4863,2.4666,2.4559,2.4302,2.4209,2.4128,2.3768,2.3554,2.3434,2.3319,2.3166,2.3027,2.3027,2.2766,2.2472,2.2178,2.1951,2.1716,2.1309,2.1229,2.1203,2.1122,2.1109,2.1109,2.1109,2.1109,2.1109,2.1109,2.1109,2.1029,2.0828,2.0753,2.0561,2.0237,2.0197,2.0117,1.9933,2.0077,2.0024,1.9669,1.9599,1.9506,1.9263,1.925,1.925,1.925,1.9706,1.992,1.992,2.0104,2.0237,2.0361,2.0361,2.0361,2.0869,2.1523,2.2378,2.4092,2.5237,2.6319,2.7764,2.8353,2.8871,3.0092,3.036,3.0547,3.1089,3.1162,3.1396,3.1984,3.1851,3.177,3.2051,3.1356,3.0808,3.0795,3.0301,3.0181,3.0742,3.1049,3.1223,3.1162,3.0955,3.0662,3.0426,2.9851,2.9486,2.9472,2.9192,2.8988,2.8988,2.9325,2.9179,2.8604,2.8855,2.8711,2.8179,2.8179,2.8179,2.8165,2.7857,2.7856,2.8085,2.7175,2.6974,2.7229,2.6613,2.6386,2.636,2.6091,2.5758,2.5464,2.517,2.4877,2.4559,2.4302,2.4209,2.4088,2.3514,2.3541,2.3736,2.3372,2.3278,2.3278,2.3278,2.3086,2.2813,2.2472,2.2392,2.2231,2.1703,2.1569,2.1489,2.1162,2.1109,2.1109,2.1109,2.1109,2.1109,2.1109,2.1109,2.1109,2.1096,2.0855,2.0561,2.0237,2.0197,2.0197,2.0197,2.0197,2.0197,2.0184,2.0184,2.017,2.0157,2.0157,2.0157,2.0157,2.0184,2.0184,2.0184,2.0197,2.0374,2.0686,2.0686,2.0686,2.201,2.2993,2.4079,2.5653,2.66,2.7455,2.8781,2.9259,2.9646,3.0279,3.0207,3.0127,3.0314,3.0515,3.0782,3.1169,3.1476,3.1751,3.1797,3.1557,3.1009,3.0034,3.01,3.006,2.9673,3.0247,3.0889,3.1476,3.1076,3.0835,3.0929,3.0381,3.0025,2.978,2.9673,2.9526,2.9339,2.9619,2.9472,2.8855,2.8591,2.8379,2.8179,2.8179,2.8179,2.8165,2.7871,2.7749,2.7816,2.7362,2.7054,2.6947,2.6747,2.656,2.636,2.6105,2.581,2.5464,2.5184,2.489,2.4586,2.4479,2.4452,2.4412,2.4212,2.4128,2.4035,2.3941,2.3621,2.3292,2.3292,2.31,2.2827,2.2485,2.2385,2.2258,2.1716,2.1582,2.1502,2.1162,2.1109,2.1109,2.1109,2.1109,2.1109,2.1109,2.1109,2.1109,2.1109,2.1029,2.0922,2.0828,2.0815,2.0735,2.0548,2.0708,2.0624,2.0224,2.0414,2.0441,2.021,2.0197,2.0197,2.0197,2.0428,2.0535,2.0535,2.0722,2.0869,2.0962,2.0962,2.0962,2.314,2.4356,2.5585,2.6947,2.7736,2.8457,2.9553,2.986,3.0034,3.0434,3.0114,2.97,2.9486,2.9513,2.9744,3.01,3.0488,3.0915,3.1436,3.1062,3.0501,2.9873,2.9847,2.9753,2.9348,2.978,3.0413,3.1189,3.0942,3.0875,3.1062,3.0808,3.0528,3.0234,3.0127,2.998,2.9838,2.9873,2.9619,2.8988,2.8473,2.8179,2.8179,2.8179,2.8179,2.8165,2.7871,2.7762,2.7871,2.7469,2.7148,2.6974,2.6867,2.664,2.6373,2.6225,2.5852,2.5464,2.5184,2.489,2.4599,2.4599,2.4599,2.4586,2.4479,2.4386,2.4342,2.4235,2.3861,2.3487,2.3487,2.318,2.2853,2.2619,2.2579,2.2445,2.1997,2.189,2.1777,2.1483,2.1416,2.1416,2.1416,2.1336,2.1229,2.1122,2.1109,2.1109,2.1109,2.1109,2.1109,2.1109,2.1109,2.1029,2.0842,2.1002,2.0917,2.0544,2.0722,2.0748,2.0517,2.0517,2.0517,2.0517,2.0735,2.0828,2.0828,2.1015,2.1109,2.1109,2.1109,2.1109,2.4306,2.5598,2.68,2.7965,2.8644,2.9242,3.0172,3.01,3.0047,3.0555,2.9953,2.9165,2.8564,2.8286,2.8312,2.8828,2.9001,2.9562,3.0976,3.0002,2.9472,3.0306,2.9633,2.9295,2.986,2.9673,2.9784,3.036,3.0667,3.0795,3.0835,3.1076,3.1076,3.0795,3.0547,3.0386,3.0386,3.0034,2.9593,2.8988,2.8473,2.8179,2.8179,2.8179,2.8179,2.8165,2.7843,2.7924,2.8138,2.7563,2.7322,2.7282,2.6934,2.664,2.6386,2.6373,2.6012,2.5491,2.5184,2.489,2.4599,2.4599,2.4599,2.4546,2.4302,2.4422,2.4546,2.4302,2.4022,2.383,2.383,2.3388,2.2934,2.292,2.292,2.2827,2.2485,2.2385,2.2338,2.2044,2.1991,2.1991,2.1991,2.1796,2.1515,2.1203,2.1149,2.1136,2.1109,2.1109,2.1109,2.1109,2.1109,2.1109,2.1109,2.1109,2.1109,2.1109,2.1109,2.1109,2.1109,2.1109,2.1109,2.1109,2.1109,2.1109,2.1109,2.1109,2.1109,2.1109,2.1109,2.1109,2.5826,2.6961,2.7965,2.8941,2.9259,2.9432,2.9659,2.9646,2.9446,2.8968,2.811,2.7255,2.6453,2.6774,2.7348,2.7949,2.9152,3.0301,3.1116,3.1089,3.0835,3.0453,3.0354,3.0234,2.994,2.9847,2.9953,3.0373,3.048,3.0801,3.1457,3.1102,3.0862,3.0795,3.0301,3.0034,3.0034,2.9513,2.9148,2.8988,2.8473,2.8179,2.8179,2.8179,2.8179,2.8179,2.8098,2.8112,2.8152,2.7736,2.7455,2.7282,2.6934,2.664,2.636,2.6185,2.6011,2.581,2.5302,2.489,2.4599,2.4599,2.4599,2.4586,2.4519,2.4546,2.4586,2.4506,2.4315,2.4088,2.4088,2.3857,2.3522,2.326,2.3207,2.306,2.2525,2.2385,2.2338,2.2044,2.1991,2.1991,2.1991,2.1924,2.1877,2.1777,2.1764,2.1603,2.1162,2.1109,2.1109,2.1109,2.1109,2.1109,2.1109,2.1109,2.1109,2.1109,2.1109,2.1109,2.1109,2.1109,2.1109,2.1109,2.1109,2.1109,2.1109,2.1109,2.1109,2.1109,2.1109,2.1109,2.8501,2.9845,3.0938,3.2411,3.2762,3.2324,3.078,3.0296,2.9579,2.7459,2.6386,2.556,2.4716,2.5239,2.6092,2.6814,2.843,2.998,3.1076,3.1263,3.1296,3.1142,3.1203,3.0996,3.0541,3.0488,3.0555,3.0728,3.0621,3.0822,3.1436,3.1289,3.1169,3.1169,3.0608,3.0114,2.9726,2.9228,2.8935,2.8801,2.8406,2.8179,2.8179,2.8179,2.8179,2.8179,2.8179,2.8112,2.7978,2.7762,2.7455,2.7054,2.6894,2.664,2.6373,2.6238,2.6024,2.5718,2.5384,2.4997,2.4599,2.4599,2.4599,2.4599,2.4599,2.4599,2.4599,2.4599,2.4422,2.4209,2.4209,2.3981,2.3763,2.3554,2.3527,2.3434,2.3086,2.2913,2.2726,2.2465,2.2398,2.2358,2.2205,2.2178,2.2138,2.2004,2.1991,2.1871,2.1537,2.1496,2.1496,2.1496,2.1496,2.1496,2.1496,2.1376,2.1363,2.1483,2.1376,2.1309,2.1309,2.1309,2.1309,2.1309,2.1309,2.1309,2.1309,2.1309,2.1243,2.1109,2.1109,2.1109,3.1559,3.3256,3.461,3.6594,3.6874,3.5798,3.2277,3.1106,2.9678,2.6031,2.4773,2.4119,2.3319,2.3892,2.4863,2.5944,2.7468,2.9205,3.1076,3.1089,3.1223,3.2064,3.1944,3.1664,3.137,3.1383,3.137,3.1289,3.1089,3.1062,3.1276,3.149,3.1617,3.155,3.0996,3.0327,2.9486,2.9192,2.8855,2.8604,2.8339,2.8179,2.8179,2.8179,2.8179,2.8179,2.8179,2.8031,2.7749,2.7709,2.7375,2.6881,2.6841,2.664,2.6386,2.6386,2.6066,2.5625,2.5585,2.5237,2.4759,2.4639,2.4599,2.4599,2.4599,2.4599,2.4599,2.4599,2.4412,2.4262,2.4262,2.4075,2.391,2.387,2.387,2.3857,2.3817,2.3567,2.3313,2.3067,2.3014,2.2934,2.2645,2.2592,2.2512,2.2258,2.2251,2.2205,2.2164,2.2058,2.1991,2.1991,2.1991,2.1991,2.1991,2.1783,2.1756,2.201,2.1783,2.1649,2.1649,2.1649,2.1649,2.1649,2.1649,2.1622,2.1582,2.1582,2.1435,2.1109,2.1109,2.1109,3.3258,3.531,3.7058,3.732,3.6857,3.5359,3.1716,3.0069,2.8356,2.4843,2.3629,2.3046,2.2645,2.3313,2.4529,2.6373,2.759,2.9142,3.1597,3.1704,3.1805,3.2447,3.2474,3.2326,3.1984,3.2171,3.2166,3.1623,3.177,3.1797,3.1597,3.141,3.1089,3.0654,3.0533,3.0172,2.9486,2.9192,2.8855,2.8604,2.8339,2.8179,2.8179,2.8179,2.8179,2.8179,2.8179,2.8152,2.8085,2.7802,2.7495,2.7202,2.6921,2.664,2.6386,2.6386,2.6319,2.6199,2.5998,2.585,2.565,2.4839,2.4599,2.4599,2.4599,2.4599,2.4599,2.4599,2.4559,2.4519,2.4519,2.4492,2.4422,2.4182,2.4128,2.4062,2.3857,2.3763,2.371,2.3656,2.3656,2.3629,2.3576,2.3576,2.3549,2.3509,2.3496,2.3367,2.3126,2.2445,2.1991,2.1991,2.1991,2.1991,2.1991,2.197,2.197,2.201,2.197,2.1943,2.1943,2.1943,2.1943,2.1943,2.1943,2.1823,2.1582,2.1582,2.1435,2.1109,2.1109,2.1109,3.5686,3.8142,4.0237,4.1189,4.059,3.8352,3.284,3.0777,2.8527,2.3447,2.2305,2.2117,2.179,2.2592,2.3803,2.5224,2.6453,2.8152,3.0608,3.1102,3.1597,3.2688,3.2955,3.2879,3.2585,3.2692,3.2581,3.1944,3.2024,3.1971,3.1724,3.1383,3.1022,3.0595,3.048,3.0119,2.9486,2.9192,2.8855,2.8604,2.8339,2.8179,2.8179,2.8179,2.8179,2.8179,2.8179,2.8098,2.7938,2.7762,2.7522,2.7296,2.7108,2.6974,2.6867,2.6667,2.652,2.6346,2.6091,2.5891,2.5651,2.5199,2.5053,2.5053,2.5053,2.4983,2.4863,2.4863,2.4719,2.4599,2.4599,2.4599,2.4559,2.4426,2.4422,2.4342,2.4062,2.3995,2.3991,2.383,2.3803,2.3803,2.3803,2.3803,2.3803,2.3803,2.3803,2.375,2.3581,2.318,2.2827,2.2505,2.2479,2.2479,2.2479,2.2298,2.2271,2.2465,2.2298,2.2205,2.2205,2.2205,2.2205,2.2205,2.2205,2.2138,2.2004,2.2004,2.1857,2.1563,2.1563,2.1563,3.8441,4.1107,4.3372,4.4667,4.3906,4.1005,3.3992,3.1443,2.8724,2.2406,2.1296,2.1435,2.1229,2.1997,2.3,2.4102,2.5264,2.6907,2.9472,3.0327,3.1249,3.2755,3.32,3.3293,3.3013,3.2973,3.2732,3.2144,3.2051,3.1904,3.1724,3.1383,3.1089,3.0808,3.056,3.0119,2.9486,2.9192,2.8855,2.8604,2.8339,2.8179,2.8179,2.8179,2.8179,2.8179,2.8179,2.8045,2.7789,2.7789,2.7615,2.7403,2.7403,2.7362,2.7269,2.6934,2.668,2.644,2.6185,2.5892,2.5705,2.5705,2.5611,2.5518,2.5518,2.5358,2.517,2.517,2.501,2.4786,2.4786,2.4786,2.4773,2.4706,2.4693,2.4613,2.4356,2.4302,2.4249,2.4124,2.4084,2.4111,2.4128,2.4124,2.4084,2.4084,2.4031,2.3928,2.391,2.3897,2.3696,2.3148,2.3041,2.3,2.3,2.2752,2.2686,2.288,2.2699,2.2579,2.2512,2.2512,2.2512,2.2512,2.2512,2.2485,2.2385,2.2385,2.2271,2.1991,2.1991,2.1991,4.1415,4.3764,4.5774,4.5149,4.3457,4.0257,3.387,3.0815,2.7798,2.2235,2.1136,2.1229,2.1502,2.1636,2.2345,2.4239,2.4679,2.5866,2.9085,3.0079,3.0988,3.246,3.308,3.3293,3.3013,3.2973,3.2732,3.2144,3.1851,3.1751,3.1711,3.1383,3.1089,3.0808,3.056,3.0119,2.9486,2.9192,2.8855,2.8604,2.8339,2.8179,2.8179,2.8179,2.8179,2.8179,2.8179,2.8165,2.8138,2.8138,2.7965,2.7655,2.7655,2.7495,2.7269,2.6934,2.676,2.6734,2.6453,2.6333,2.6306,2.6306,2.5945,2.5518,2.5518,2.5491,2.5478,2.5478,2.5451,2.5438,2.5438,2.5438,2.5371,2.5104,2.5037,2.4957,2.4626,2.4559,2.4663,2.4917,2.4994,2.5037,2.5304,2.513,2.4994,2.4994,2.473,2.4426,2.4195,2.4168,2.4035,2.375,2.3447,2.3252,2.3252,2.3225,2.314,2.292,2.31,2.3113,2.2867,2.2853,2.2853,2.2853,2.2853,2.2686,2.2385,2.2385,2.2271,2.1991,2.1991,2.1991,4.1243,4.3922,4.6094,4.5234,4.2537,3.8808,3.3814,3.002,2.6411,2.2432,2.1349,2.1203,2.1529,2.1435,2.167,2.2846,2.3046,2.3995,2.6707,2.7602,2.8821,3.1015,3.1952,3.2532,3.2933,3.2973,3.2732,3.2144,3.1837,3.1597,3.141,3.1129,3.0915,3.0795,3.0341,2.998,2.9753,2.9228,2.8935,2.8815,2.8419,2.8179,2.8179,2.8179,2.8179,2.8179,2.8179,2.8179,2.8179,2.8179,2.8112,2.8005,2.8005,2.7938,2.7804,2.7455,2.7241,2.7054,2.6747,2.6533,2.6386,2.6386,2.6226,2.6039,2.6039,2.5919,2.5824,2.5824,2.5651,2.5518,2.5518,2.5518,2.5478,2.5371,2.5344,2.5304,2.5184,2.5119,2.5197,2.5317,2.5344,2.5317,2.5264,2.5157,2.5024,2.4836,2.4679,2.4559,2.4439,2.4426,2.4386,2.4302,2.3875,2.3594,2.3594,2.3594,2.3576,2.3455,2.3527,2.346,2.3153,2.314,2.306,2.2893,2.2893,2.284,2.2686,2.2686,2.2666,2.2546,2.2546,2.2546,4.1387,4.397,4.5918,4.5058,4.2086,3.8278,3.3702,2.9677,2.5923,2.2673,2.159,2.1309,2.1542,2.1422,2.1403,2.1911,2.2058,2.2913,2.5197,2.6026,2.7255,2.961,3.0587,3.1417,3.2251,3.2572,3.2505,3.2011,3.1831,3.1543,3.1236,3.0955,3.0755,3.0662,3.0181,2.9913,2.9913,2.9282,2.9001,2.8988,2.8473,2.8179,2.8179,2.8179,2.8179,2.8179,2.8179,2.8179,2.8179,2.8179,2.8179,2.8179,2.8179,2.8179,2.8152,2.7802,2.7562,2.7335,2.6947,2.6694,2.6507,2.6413,2.6386,2.6386,2.6386,2.6279,2.6118,2.6118,2.5932,2.5772,2.5772,2.5772,2.5745,2.5665,2.5638,2.5625,2.5531,2.5518,2.5545,2.5625,2.5638,2.5611,2.5491,2.5436,2.5302,2.5064,2.4919,2.4853,2.4853,2.4853,2.4853,2.4853,2.4449,2.4124,2.3915,2.3937,2.3897,2.3817,2.3884,2.3768,2.3474,2.346,2.3354,2.3174,2.3161,2.3121,2.3041,2.3121,2.3121,2.3027,2.3027,2.2987,4.2596,4.4355,4.5488,4.4609,4.2421,3.9013,3.3474,2.9967,2.6777,2.2821,2.1783,2.1614,2.1582,2.1614,2.1676,2.197,2.2231,2.3105,2.5224,2.6026,2.6947,2.8444,2.9152,2.9847,3.0728,3.1597,3.1984,3.1738,3.1711,3.1543,3.1236,3.0955,3.0662,3.0426,3.0074,2.9913,2.9913,2.9282,2.9001,2.8988,2.8473,2.8179,2.8179,2.8179,2.8179,2.8179,2.8179,2.8179,2.8179,2.8179,2.8179,2.8179,2.8179,2.8179,2.8152,2.7802,2.7696,2.7615,2.7028,2.6814,2.6734,2.648,2.6386,2.6386,2.6386,2.6386,2.6386,2.6386,2.6386,2.6386,2.6386,2.6386,2.6306,2.6065,2.5998,2.5904,2.5571,2.5518,2.5598,2.5931,2.5998,2.6078,2.6333,2.6172,2.5984,2.5984,2.5692,2.5504,2.5504,2.5504,2.5504,2.5504,2.5237,2.4836,2.4249,2.4195,2.4075,2.383,2.4035,2.4075,2.3817,2.3803,2.3803,2.379,2.379,2.3621,2.3292,2.3621,2.3607,2.3292,2.3292,2.3153,3.8906,4.041,4.1523,4.0644,3.8174,3.5318,3.3036,2.9143,2.5618,2.4247,2.2521,2.1376,2.181,2.1555,2.1569,2.2479,2.2693,2.3233,2.4666,2.5758,2.6867,2.8179,3.006,3.1383,3.1664,3.1944,3.1984,3.1738,3.1476,3.1236,3.0942,3.0662,3.0493,3.0413,3.0074,2.982,2.9619,2.9188,2.8895,2.8738,2.8379,2.8179,2.8179,2.8179,2.8179,2.8179,2.8179,2.8179,2.8179,2.8179,2.8179,2.8179,2.8179,2.8179,2.8179,2.8072,2.7911,2.7642,2.7255,2.6987,2.6774,2.648,2.6386,2.6386,2.6386,2.6386,2.6386,2.6386,2.6386,2.6386,2.6386,2.6386,2.6373,2.6279,2.6253,2.6226,2.6132,2.6106,2.6146,2.6239,2.6253,2.6265,2.6145,2.6051,2.5931,2.5678,2.5571,2.5518,2.5518,2.5518,2.5518,2.5518,2.5424,2.5224,2.4836,2.4623,2.4426,2.4332,2.4412,2.4332,2.4075,2.4062,2.3968,2.3803,2.3803,2.3763,2.3634,2.3763,2.3763,2.3634,2.3634,2.3474,3.6387,3.7949,3.8984,3.8262,3.6246,3.4033,3.2541,2.8823,2.549,2.4847,2.2877,2.139,2.1783,2.1555,2.1582,2.2425,2.2653,2.3193,2.4609,2.5625,2.6787,2.8192,3.0167,3.145,3.145,3.1851,3.1931,3.153,3.133,3.1049,3.0648,3.0507,3.036,3.0194,3.0007,2.978,2.9486,2.9192,2.8855,2.8604,2.8339,2.8179,2.8179,2.8179,2.8179,2.8179,2.8179,2.8179,0.0,2.8179,2.8179,2.8179,2.8179,2.8179,2.8179,2.8179,2.8072,2.7844,2.7443,2.7148,2.6921,2.652,2.6386,2.6386,2.6386,2.6386,2.6386,2.6386,2.6386,2.6386,2.6386,2.6386,2.6386,2.6386,2.6386,2.6386,2.6386,2.6386,2.6386,2.6386,2.6386,2.6333,2.6185,2.6158,2.6091,2.5865,2.5838,2.5838,2.5838,2.5838,2.5838,2.5838,2.5745,2.5611,2.5462,2.5144,2.4879,2.481,2.4796,2.4676,2.4346,2.4369,2.4289,2.4102,2.4102,2.4048,2.3928,2.3928,2.4308,2.4994,2.5134,2.5328,0.0,3.645,3.7347,3.6992,3.5996,3.4453,3.1829,2.8928,0.0,2.4698,2.296,2.173,2.1641,2.1582,2.1662,2.2024,2.2271,2.306,2.481,2.5717,2.6827,2.8524,2.9753,3.048,3.044,3.141,3.1837,3.1216,3.1162,3.0955,3.044,3.0386,3.0207,2.9927,2.99,2.9753,2.9459,2.9179,2.8841,2.8577,2.8326,2.8179,2.8179,2.8179,2.8179,2.8179,2.8179,2.8179,2.8179,2.8179,2.8179,2.8179,2.8179,2.8179,2.8179,2.8179,2.8179,2.8098,2.7536,2.7336,2.7242,2.6613,2.6413,2.6386,2.6413,2.6413,2.6386,2.6386,2.6386,2.6386,2.6386,2.6386,2.6386,2.6386,2.6386,2.6386,2.6386,2.6386,2.6386,2.6386,2.6413,2.6426,2.6426,2.644,2.6453,2.6453,2.6426,2.6426,2.6426,2.64,2.6386,2.6386,2.6198,2.6051,2.6024,2.5692,2.5398,2.513,2.5128,2.4957,2.4639,2.4613,2.4599,2.4599,2.4599,2.4466,2.4235,2.4235,2.5099,2.6834,2.7284,2.8129,3.0781,0.0,3.2977,3.2891,3.2656,3.1915,0.0,2.9077,2.7675,2.4713,2.3571,2.2881,2.2051,2.151,2.1537,2.2532,2.2746,2.322,2.4556,2.6613,2.847,2.9838,3.0828,3.1229,3.0742,3.1343,3.1623,3.1249,3.1022,3.0742,3.0426,3.014,2.9993,2.9913,2.97,2.9446,2.9108,2.9028,2.8778,2.8286,2.8219,2.8179,2.8179,2.8179,2.8179,2.8179,2.8179,2.8179,2.8179,2.8179,2.8179,2.8179,2.8179,2.8179,2.8179,2.8179,2.8179,2.8138,2.7722,2.7602,2.7495,2.6907,2.6573,2.6426,2.6653,2.656,2.6386,2.6386,2.6386,2.6386,2.6386,2.6386,2.6386,2.6386,2.6386,2.6386,2.6386,2.6386,2.6386,2.6386,2.6573,2.672,2.672,2.6907,2.7108,2.7108,2.6867,2.672,2.672,2.6533,2.6386,2.6386,2.6533,2.6533,2.6306,2.5812,2.5478,2.5411,2.5197,2.505,2.4983,2.4756,2.4599,2.4599,2.4599,2.4572,2.4492,2.4492,2.475,2.5199,2.6787,2.7517,2.916,3.0078,3.0918,3.0918,3.1074,3.0797,2.9142,2.822,2.6925,2.436,2.3693,2.3193,2.1845,2.2057,2.2493,2.2647,2.3041,2.3964,2.5785,2.7522,2.9098,3.0453,3.1102,3.1396,3.1209,3.1537,3.149,3.1062,3.0755,3.0408,3.0025,2.9927,2.9793,2.9482,2.9619,2.9472,2.9001,2.8868,2.8604,2.8179,2.8179,2.8179,2.8179,2.8179,2.8179,2.8179,2.8179,2.8179,2.8179,2.8179,2.8179,2.8179,2.8179,2.8179,2.8179,2.8179,2.8179,2.8138,2.7802,2.7522,2.7241,2.6921,2.6627,2.6413,2.6573,2.652,2.6413,2.6547,2.6493,2.6386,2.6386,2.6386,2.6386,2.6386,2.6386,2.6386,2.6386,2.6493,2.6587,2.6587,2.6827,2.7028,2.7028,2.7202,2.7309,2.7309,2.7014,2.6867,2.7001,2.6774,2.664,2.6814,2.6934,2.6907,2.6613,2.6293,2.5999,2.5732,2.561,2.5396,2.5128,2.493,2.4783,2.4599,2.4599,2.4599,2.4599,2.4599,2.5492,2.7237,2.8305,2.9625,2.8087,2.8869,2.9633,3.0023,3.0508,3.0372,2.8366,2.7129,2.5771,2.3667,2.3419,2.3106,2.1533,2.2567,2.3447,2.2647,2.3394,2.493,2.7482,2.8364,2.9245,3.0635,3.1089,3.1356,3.1517,3.1617,3.137,3.0835,3.0488,3.0105,2.9513,2.9673,2.9508,2.9015,2.9472,2.9472,2.8935,2.8735,2.8497,2.8179,2.8179,2.8179,2.8179,2.8179,2.8179,2.8179,2.8179,2.8179,2.8179,2.8179,2.8179,2.8179,2.8179,2.8179,2.8179,2.8179,2.8179,2.8138,2.7802,2.7348,2.6881,2.6841,2.6627,2.64,2.644,2.6426,2.6453,2.6734,2.6613,2.6386,2.6386,2.6386,2.6386,2.6386,2.6426,2.6453,2.6453,2.668,2.6894,2.6894,2.7134,2.7376,2.7376,2.7416,2.7429,2.7376,2.7121,2.7028,2.7282,2.7041,2.6987,2.7282,2.7349,2.7188,2.6814,2.6867,2.664,2.6091,2.6024,2.573,2.5104,2.5115,2.4943,2.4613,2.4599,2.4599,2.4599,2.4599,2.6415,2.9884,3.0168,3.2193,2.4918,2.5741,2.6982,2.9145,3.0302,2.9984,2.6542,2.6939,2.6772,2.2404,2.2623,2.3252,2.2076,2.2113,2.249,2.3081,2.4342,2.5999,2.8163,2.8978,2.9713,3.0675,3.1276,3.1423,3.0969,3.1142,3.1156,3.0822,3.0287,2.9833,2.9499,2.9285,2.9095,2.9001,2.8885,2.8764,2.8671,2.8828,2.8698,2.8179,2.8179,2.8179,2.8179,2.8179,2.8179,2.8179,2.8179,2.8179,2.8179,2.8179,2.8179,2.8179,2.8179,2.8179,2.8179,2.8179,2.8179,2.8138,2.7802,2.7482,2.7202,2.6907,2.6627,2.644,2.668,2.6587,2.6453,2.6734,2.6613,2.6386,2.6386,2.6386,2.6386,2.6386,2.6573,2.676,2.676,2.6987,2.7242,2.7242,2.7428,2.7629,2.7629,2.7884,2.7965,2.7669,2.7589,2.7495,2.7336,2.7269,2.7255,2.7309,2.7482,2.7415,2.6867,2.7054,2.6988,2.636,2.6131,2.573,2.5104,2.5115,2.4943,2.4613,2.4599,2.4599,2.4599,2.4599,2.5749,2.796,2.9579,3.1492,2.3817,2.4552,2.559,2.6677,2.7831,2.797,2.5049,2.511,2.4949,2.1965,2.2691,2.3557,2.2645,2.3446,2.4894,2.6774,2.8119,2.9789,3.2296,3.1943,3.1794,3.2691,3.1739,3.1095,3.1296,3.0955,3.0702,3.0568,3.002,2.9486,2.9032,2.8988,2.8885,2.8564,2.8738,2.8684,2.8406,2.8657,2.8577,2.8179,2.8179,2.8179,2.8179,2.8179,2.8179,2.8179,2.8179,2.8179,2.8179,2.8179,2.8179,2.8179,2.8179,2.8179,2.8179,2.8179,2.8179,2.8138,2.7802,2.7615,2.7428,2.6974,2.6734,2.6613,2.66,2.6493,2.6413,2.6547,2.6493,2.6386,2.6386,2.6507,2.6627,2.6627,2.6841,2.7068,2.7068,2.7295,2.7495,2.7495,2.7777,2.7978,2.7978,2.8098,2.8138,2.8005,2.7802,2.7709,2.7777,2.7643,2.7603,2.7764,2.7898,2.7762,2.7335,2.7281,2.7055,2.6426,2.6158,2.5877,2.561,2.5398,2.5251,2.5079,2.5079,2.5079,2.5079,2.5079,2.5982,2.7774,2.9901,3.1726,2.2577,2.3228,2.3864,2.3697,2.5187,2.6196,2.4293,2.3886,2.3703,2.2967,2.3355,2.3835,2.3837,2.5544,2.7876,3.0693,3.205,3.365,3.6073,3.5194,3.4353,3.4668,3.2794,3.15,3.1598,3.1375,3.0949,3.0351,3.0233,2.9749,2.8674,2.9211,2.9161,2.8234,2.9091,2.9104,2.8192,2.8419,2.8419,2.8179,2.8179,2.8179,2.8179,2.8179,2.8179,2.8179,2.8179,2.8179,2.8179,2.8179,2.8179,2.8179,2.8179,2.8179,2.8179,2.8179,2.8179,2.8138,2.7802,2.7696,2.7615,2.7094,2.6881,2.6747,2.656,2.644,2.64,2.6466,2.6493,2.648,2.6413,2.6653,2.6907,2.6841,2.7094,2.7403,2.7403,2.7643,2.7802,2.7802,2.8031,2.8179,2.8179,2.8179,2.8165,2.8085,2.7938,2.7856,2.8058,2.7938,2.7938,2.8165,2.8179,2.8058,2.7722,2.7375,2.7015,2.652,2.6265,2.6065,2.5998,2.5732,2.5585,2.5518,2.5518,2.5518,2.5518,2.5518,2.6357,2.8066,3.035,3.2117,1.9908,2.0536,2.0944,2.0598,2.3308,2.5821,2.4823,2.4704,2.5122,2.6184,2.4803,2.4004,2.6146,2.7955,3.0114,3.3074,3.4799,3.619,3.7241,3.7601,3.7131,3.5452,3.4841,3.3726,3.1437,3.2629,3.2565,3.0101,3.141,3.1209,2.8746,3.028,3.0303,2.8263,3.0178,3.0261,2.8221,2.8205,2.8205,2.8179,2.8179,2.8179,2.8179,2.8179,2.8179,2.8179,2.8179,2.8179,2.8179,2.8179,2.8179,2.8179,2.8179,2.8179,2.8179,2.8179,2.8179,2.8138,2.7802,2.7696,2.7642,2.7376,2.7041,2.6814,2.68,2.66,2.6453,2.6707,2.6787,2.6734,2.6453,2.6854,2.7202,2.6894,2.7255,2.7669,2.7669,2.7938,2.8152,2.8152,2.8165,2.8179,2.8179,2.8179,2.8085,2.7776,2.7991,2.8058,2.7762,2.7991,2.8165,2.8179,2.8179,2.8058,2.7722,2.7175,2.6841,2.6747,2.652,2.6279,2.6011,2.5971,2.5837,2.5518,2.5518,2.5518,2.5518,2.5518,2.6506,2.841,3.0462,3.239,1.9199,1.9783,2.0414,2.0494,2.2829,2.4817,2.3535,2.3482,2.428,2.6488,2.665,2.7148,2.959,3.1241,3.3143,3.5904,3.7895,3.9696,4.1561,4.1065,4.0181,3.921,3.7513,3.609,3.5317,3.5491,3.5146,3.3892,3.4243,3.3866,3.2488,3.306,3.3063,3.2258,3.3038,3.3063,3.2258,3.2258,3.1572,3.0176,2.8838,2.8922,3.0135,2.8796,2.8179,2.8179,2.8179,2.8179,2.8179,2.8179,2.8179,2.8179,2.8179,2.8179,2.8179,2.8179,2.8179,2.8138,2.7802,2.7816,2.7938,2.7456,2.7308,2.7335,2.7148,2.7014,2.7001,2.7068,2.7228,2.7295,2.7055,2.7228,2.7509,2.7388,2.7682,2.8018,2.8018,2.8112,2.8179,2.8179,2.8179,2.8179,2.8179,2.8179,2.8152,2.8031,2.8112,2.8138,2.8031,2.8112,2.8179,2.8179,2.8179,2.8058,2.7722,2.7495,2.7295,2.7108,2.6653,2.6333,2.6265,2.6265,2.6172,2.6066,2.6052,2.6052,2.6052,2.6052,2.6347,2.699,3.0489,3.22,1.889,1.9761,2.0718,2.1083,2.3216,2.514,2.4853,2.5051,2.6014,2.8556,2.9823,3.0995,3.2831,3.4035,3.5674,3.8496,4.0555,4.2378,4.4165,4.3533,4.2578,4.1503,3.9661,3.8124,3.7425,3.7531,3.7174,3.5955,3.6316,3.602,3.4765,3.5339,3.5379,3.4732,3.5339,3.5379,3.4692,3.4692,3.392,3.2422,3.026,2.9607,3.0343,2.888,2.8179,2.8179,2.8179,2.8179,2.8179,2.8179,2.8179,2.8179,2.8179,2.8179,2.8179,2.8179,2.8179,2.8152,2.7951,2.8018,2.8125,2.771,2.7657,2.7669,2.7468,2.7376,2.7322,2.7416,2.7549,2.7669,2.7603,2.7737,2.7816,2.7722,2.7965,2.8179,2.8179,2.8179,2.8179,2.8179,2.8179,2.8179,2.8179,2.8179,2.8179,2.8179,2.8179,2.8179,2.8179,2.8179,2.8179,2.8179,2.8179,2.8098,2.7898,2.7749,2.7615,2.7456,2.6934,2.6627,2.6533,2.644,2.6386,2.6386,2.6386,2.6386,2.6386,2.6386,2.6332,2.621,3.0522,3.2225,1.8946,2.026,2.1717,2.2134,2.4455,2.7219,2.9405,3.0238,3.1118,3.321,3.4432,3.5248,3.5665,3.6101,3.7477,4.0686,4.2598,4.3848,4.4316,4.4746,4.4066,4.1666,4.1106,3.9794,3.695,3.8435,3.8394,3.541,3.7241,3.7448,3.4928,3.6762,3.6962,3.4813,3.6802,3.6922,3.4773,3.4773,3.4732,3.4651,3.2505,3.0301,2.8221,2.8234,2.8179,2.8179,2.8179,2.8179,2.8179,2.8179,2.8179,2.8179,2.8179,2.8179,2.8179,2.8179,2.8179,2.8179,2.8179,2.8179,2.8179,2.8179,2.7991,2.7696,2.7696,2.7495,2.7376,2.7629,2.7696,2.7762,2.8112,2.8179,2.8112,2.7776,2.7965,2.8179,2.8179,2.8179,2.8179,2.8179,2.8179,2.8179,2.8179,2.8179,2.8179,2.8179,2.8179,2.8179,2.8179,2.8179,2.8179,2.8179,2.8179,2.8179,2.8179,2.7911,2.7696,2.7696,2.7428,2.7134,2.6787,2.6547,2.6386,2.6386,2.6386,2.6386,2.6386,2.6386,2.6386,2.6505,3.0592,3.2505,2.1966,2.245,2.3339,2.4677,2.7512,3.0171,3.0918,3.0985,3.1865,3.5477,3.714,3.8114,3.8554,3.8994,3.9682,4.0977,4.209,4.2969,4.3418,4.3574,4.3288,4.2201,4.2026,4.1628,4.076,4.1219,4.1079,3.989,4.043,4.0379,3.9314,3.9864,3.9943,3.9295,3.9903,3.9903,3.9295,3.9256,3.7737,3.4692,3.4042,3.2587,3.0385,2.888,2.8179,2.8179,2.8179,2.8179,2.8179,2.8179,2.8179,2.8179,2.8179,2.8179,2.8179,2.8179,2.8045,2.7856,2.8112,2.8045,2.7911,2.8112,2.8125,2.8045,2.8045,2.7991,2.7938,2.8031,2.8045,2.8072,2.8165,2.8179,2.8165,2.8072,2.8125,2.8179,2.8179,2.8179,2.8179,2.8179,2.8179,2.8179,2.8179,2.8179,2.8179,2.8179,2.8179,2.8179,2.8179,2.8179,2.8179,2.8179,2.8179,2.8179,2.8179,2.8098,2.8045,2.8045,2.7777,2.7348,2.68,2.6734,2.66,2.6386,2.6386,2.6386,2.6386,2.6386,2.6386,2.6505,3.0592,3.2505,2.3288,2.4161,2.5287,2.7198,3.0203,3.2805,3.3251,3.3538,3.4694,3.8139,3.9166,3.9609,4.0059,4.0215,4.0469,4.1113,4.1738,4.2324,4.2754,4.2812,4.2715,4.2421,4.2382,4.2363,4.2187,4.2168,4.2012,4.1582,4.1543,4.1445,4.123,4.1211,4.1211,4.1211,4.1211,4.0763,3.9903,3.9903,3.7697,3.339,3.339,3.2258,3.0093,2.8796,2.8179,2.8179,2.8179,2.8179,2.8179,2.8179,2.8179,2.8179,2.8179,2.8179,2.8179,2.8179,2.8072,2.7938,2.8125,2.8072,2.7951,2.8125,2.8179,2.8179,2.8179,2.8179,2.8179,2.8179,2.8179,2.8179,2.8179,2.8179,2.8179,2.8179,2.8179,2.8179,2.8179,2.8179,2.8179,2.8179,2.8179,2.8179,2.8179,2.8179,2.8179,2.8179,2.8179,2.8179,2.8179,2.8179,2.8179,2.8179,2.8179,2.8179,2.8179,2.8179,2.8179,2.8179,2.8018,2.7669,2.7188,2.6947,2.668,2.64,2.6386,2.6386,2.6386,2.6507,2.656,2.6679,3.0756,3.2682,2.3839,2.573,2.7511,2.9501,3.2295,3.4713,3.5362,3.6617,3.8213,4.0393,4.024,3.9889,4.0469,4.0273,4.0273,4.1132,4.1523,4.1894,4.2265,4.2304,4.2265,4.2265,4.2265,4.2168,4.1777,4.1738,4.1582,4.125,4.1211,4.1211,4.1211,4.1211,4.1211,4.1211,4.1211,4.0138,3.7935,3.7896,3.5702,3.1392,3.1598,3.0453,2.8138,2.8179,2.8179,2.8179,2.8179,2.8179,2.8179,2.8179,2.8179,2.8179,2.8152,2.8165,2.8179,2.8152,2.8138,2.8152,2.8179,2.8165,2.8152,2.8179,2.8179,2.8179,2.8179,2.8179,2.8179,2.8179,2.8179,2.8179,2.8179,2.8179,2.8179,2.8179,2.8179,2.8179,2.8179,2.8179,2.8179,2.8179,2.8179,2.8179,2.8179,2.8179,2.8179,2.8179,2.8179,2.8179,2.8179,2.8179,2.8179,2.8179,2.8179,2.8179,2.8179,2.8179,2.8179,2.8179,2.8179,2.8045,2.7709,2.7188,2.676,2.648,2.6466,2.6466,2.6466,2.6734,2.6854,2.6894,3.0972,3.2901,2.754,2.8621,2.9649,3.0524,3.2036,3.3041,3.2071,3.3692,3.5915,3.7753,3.8239,3.8896,4.0725,4.0996,4.1113,4.1582,4.1465,4.1445,4.1875,4.166,4.1445,4.1445,4.1445,4.1406,4.1348,4.1348,4.1308,4.1211,4.1211,4.1211,4.1211,4.1211,4.1211,4.1211,4.1211,4.0138,3.7935,3.7896,3.5702,3.1433,3.3145,3.1833,2.7802,2.8072,2.8179,2.8179,2.8179,2.8179,2.8179,2.8179,2.8179,2.8165,2.7924,2.7978,2.8152,2.7883,2.7789,2.7871,2.8098,2.8031,2.7829,2.8112,2.8179,2.8179,2.8179,2.8179,2.8179,2.8179,2.8179,2.8179,2.8179,2.8179,2.8179,2.8179,2.8179,2.8179,2.8179,2.8179,2.8179,2.8179,2.8179,2.8179,2.8179,2.8179,2.8179,2.8179,2.8179,2.8179,2.8179,2.8179,2.8179,2.8179,2.8179,2.8179,2.8179,2.8179,2.8179,2.8179,2.8179,2.8045,2.7709,2.7575,2.7375,2.7122,2.7122,2.7122,2.7122,2.7134,2.7054,2.6894,3.0972,3.2808,2.8956,2.9584,2.999,3.1305,3.0814,2.9892,2.9465,2.88,2.9063,3.1988,3.5435,3.8271,3.9413,4.047,4.1289,4.1465,4.1348,4.1289,4.1465,4.1348,4.1211,4.1211,4.1211,4.1211,4.1211,4.1211,4.1211,4.1211,4.1211,4.1211,4.1211,4.1211,4.1211,4.1211,4.1211,4.0043,3.7625,3.7625,3.5839,3.2373,3.3539,3.2373,2.9156,2.8343,2.8045,2.8179,2.8179,2.8179,2.8179,2.8179,2.8179,2.8152,2.7816,2.7883,2.8152,2.7802,2.7789,2.7978,2.8125,2.7991,2.7749,2.8085,2.8085,2.8005,2.8138,2.8085,2.8005,2.8138,2.8085,2.8005,2.8152,2.8179,2.8179,2.8179,2.8179,2.8179,2.8179,2.8179,2.8179,2.8179,2.8179,2.8179,2.8179,2.8179,2.8179,2.8179,2.8179,2.8179,2.8179,2.8179,2.8179,2.8179,2.8179,2.8179,2.8179,2.8179,2.8179,2.8179,2.8179,2.8112,2.7965,2.7951,2.775,2.7309,2.7309,2.7309,2.7309,2.8479,2.8869,2.8558,3.2751,3.4504,2.9252,2.9582,2.9364,3.0755,2.8716,2.6315,2.6109,2.354,2.2075,2.5165,3.1299,3.6445,3.75,3.9263,4.0647,4.1016,4.1172,4.1211,4.1211,4.1211,4.1211,4.1211,4.1211,4.1211,4.1211,4.1211,4.1211,4.1211,4.1211,4.1211,4.1211,4.1211,4.1211,4.1211,4.1094,3.9677,3.6809,3.7051,3.5744,3.287,3.2805,3.2284,3.128,2.8715,2.7762,2.8179,2.8179,2.8179,2.8179,2.8179,2.8179,2.8152,2.7816,2.7856,2.8072,2.7789,2.7898,2.8112,2.8165,2.8018,2.7816,2.8098,2.7978,2.7749,2.8098,2.7978,2.7762,2.8098,2.8005,2.7829,2.8125,2.8179,2.8179,2.8179,2.8179,2.8179,2.8179,2.8179,2.8179,2.8179,2.8179,2.8179,2.8179,2.8179,2.8179,2.8179,2.8179,2.8179,2.8179,2.8179,2.8179,2.8179,2.8179,2.8179,2.8179,2.8179,2.8179,2.8179,2.8179,2.8179,2.8179,2.8179,2.7951,2.7469,2.7456,2.7456,2.7456,2.9453,3.0384,3.038,3.4177,3.594,2.925,2.9189,2.8297,2.6801,2.5299,2.3257,1.9581,1.9995,2.0763,1.9176,2.4197,3.0547,3.5955,3.7524,3.8559,4.0337,4.0918,4.1211,4.1211,4.1211,4.1211,4.1211,4.1211,4.1211,4.1211,4.1211,4.1211,4.1211,4.1211,4.1211,4.1211,4.1211,4.1211,4.1211,4.0801,3.8696,3.4664,3.6025,3.4686,3.07,3.0493,3.1509,3.3411,2.8942,2.7375,2.8179,2.8179,2.8179,2.8179,2.8179,2.8179,2.8152,2.7816,2.7722,2.7749,2.7709,2.7722,2.7789,2.8098,2.8165,2.8138,2.8179,2.7978,2.7749,2.8098,2.7978,2.7762,2.8098,2.8152,2.8138,2.8179,2.8179,2.8179,2.8179,2.8179,2.8179,2.8179,2.8179,2.8179,2.8179,2.8179,2.8179,2.8179,2.8179,2.8179,2.8179,2.8179,2.8179,2.8179,2.8179,2.8179,2.8179,2.8179,2.8179,2.8179,2.8179,2.8179,2.8179,2.8179,2.8179,2.8179,2.8179,2.8152,2.8072,2.8072,2.8072,2.8072,2.8135,2.8864,3.034,3.2429,3.4166,2.8295,2.7817,2.6678,2.4791,2.2953,2.092,1.819,1.7443,1.7295,1.7271,2.0448,2.4911,3.047,3.4547,3.742,3.8286,3.9568,4.0547,4.0781,4.0801,4.0898,4.1191,4.1211,4.1211,4.1211,4.0957,4.0918,4.1191,4.0957,4.0801,4.0801,4.0801,4.0703,4.0469,4.0273,3.8594,3.5361,3.6012,3.5301,3.322,3.3092,3.3138,3.326,3.0022,2.8423,2.8179,2.8005,2.8031,2.8179,2.8179,2.8179,2.8138,2.7684,2.7697,2.7951,2.7617,2.771,2.8005,2.8138,2.8072,2.7965,2.8125,2.7978,2.7749,2.8098,2.7978,2.7762,2.8098,2.8072,2.7978,2.8138,2.8179,2.8179,2.8179,2.8179,2.8179,2.8179,2.8179,2.8179,2.8179,2.8179,2.8179,2.8179,2.8179,2.8179,2.8179,2.8179,2.8179,2.8179,2.8179,2.8179,2.8179,2.8179,2.8179,2.8179,2.8179,2.8179,2.8179,2.8179,2.8179,2.8179,2.8179,2.8179,2.8179,2.8179,2.8179,2.8179,2.9272,2.9963,3.038,3.3768,3.5392,2.6813,2.6131,2.5082,2.3184,2.1677,2.026,1.8781,1.7148,1.6309,1.7603,1.9349,2.1774,2.5359,3.0863,3.5187,3.6178,3.7423,3.85,3.9319,3.9491,3.9682,4.0028,4.0569,4.0878,4.0878,4.0547,4.0508,4.082,4.0547,4.0371,4.0371,4.0371,4.0215,3.9902,3.9276,3.7802,3.5445,3.5213,3.5137,3.5245,3.5298,3.4429,3.267,3.0692,2.9128,2.7951,2.7762,2.7829,2.8072,2.8072,2.8072,2.8018,2.751,2.7576,2.7911,2.755,2.7697,2.8085,2.8165,2.8045,2.7884,2.8112,2.7978,2.7749,2.8098,2.7978,2.7762,2.8098,2.8031,2.7856,2.8125,2.8179,2.8179,2.8179,2.8179,2.8179,2.8179,2.8179,2.8179,2.8179,2.8179,2.8179,2.8179,2.8179,2.8179,2.8179,2.8179,2.8179,2.8179,2.8179,2.8179,2.8179,2.8179,2.8179,2.8179,2.8179,2.8179,2.8179,2.8179,2.8179,2.8179,2.8179,2.8179,2.8179,2.8179,2.8179,2.8179,2.973,3.046,3.0515,3.4485,3.613,2.4804,2.4471,2.3719,2.1414,2.1812,2.2301,2.0566,2.0333,2.0363,2.0,2.1443,2.2721,2.258,2.6424,3.0823,3.4569,3.431,3.4299,3.6162,3.6754,3.699,3.7027,3.8766,3.9961,3.9961,3.9941,3.9941,3.9961,3.9941,3.9922,3.9922,3.9922,3.9922,3.9902,3.7613,3.5387,3.3265,3.2432,3.2867,3.4559,3.4812,3.4007,3.2272,3.0315,2.8683,2.7362,2.7589,2.7709,2.7722,2.7722,2.7722,2.7696,2.7429,2.7322,2.7389,2.7589,2.7696,2.7762,2.8085,2.8179,2.8165,2.8179,2.7978,2.7749,2.8098,2.7978,2.7762,2.8098,2.8179,2.8165,2.8179,2.8179,2.8179,2.8179,2.8179,2.8179,2.8179,2.8179,2.8179,2.8179,2.8179,2.8179,2.8179,2.8179,2.8179,2.8179,2.8179,2.8179,2.8179,2.8179,2.8179,2.8179,2.8179,2.8179,2.8179,2.8179,2.8179,2.8179,2.8179,2.8179,2.8179,2.8179,2.8179,2.8179,2.8179,2.8179,2.8179,2.7981,2.8882,3.0802,3.2849,3.4791,2.4655,2.4068,2.3128,2.0971,2.1259,2.1654,2.013,2.0173,2.0701,2.1492,2.3123,2.4611,2.5151,2.7029,2.9021,3.0638,3.1503,3.2352,3.3532,3.4845,3.5917,3.648,3.8254,3.957,3.9863,3.9629,3.957,3.9883,3.9609,3.9453,3.9453,3.9453,3.9316,3.9062,3.8204,3.6608,3.4294,3.394,3.4115,3.4758,3.6156,3.5283,3.2391,3.1705,2.97,2.676,2.7014,2.7241,2.7415,2.7415,2.7415,2.7388,2.7094,2.7094,2.7322,2.7416,2.7535,2.7749,2.8085,2.8179,2.8179,2.8179,2.8112,2.8045,2.8152,2.8112,2.8045,2.8152,2.8179,2.8179,2.8179,2.8179,2.8179,2.8179,2.8179,2.8179,2.8179,2.8179,2.8179,2.8179,2.8179,2.8179,2.8179,2.8179,2.8179,2.8179,2.8179,2.8179,2.8179,2.8179,2.8179,2.8179,2.8179,2.8179,2.8179,2.8179,2.8179,2.8179,2.8179,2.8179,2.8179,2.8179,2.8179,2.8179,2.8179,2.8179,2.8179,2.8072,2.8286,2.8868,3.1126,3.3106,2.4743,2.4165,2.3266,2.2095,2.2694,2.3374,2.2627,2.313,2.4038,2.5166,2.6328,2.732,2.793,2.8264,2.8547,2.878,2.9427,3.0296,3.1443,3.2939,3.4315,3.5498,3.7382,3.8691,3.9004,3.875,3.875,3.9199,3.8809,3.8691,3.8965,3.8848,3.8399,3.7585,3.7566,3.6386,3.3965,3.4428,3.4631,3.4559,3.6537,3.5537,3.196,3.217,3.0077,2.6305,2.6547,2.6841,2.7121,2.7121,2.7121,2.7094,2.6787,2.6854,2.7121,2.7121,2.7362,2.7722,2.7965,2.8098,2.8179,2.8179,2.8179,2.8179,2.8179,2.8179,2.8179,2.8179,2.8179,2.8179,2.8179,2.8179,2.8179,2.8179,2.8179,2.8179,2.8179,2.8179,2.8179,2.8179,2.8179,2.8179,2.8179,2.8179,2.8179,2.8179,2.8179,2.8179,2.8179,2.8179,2.8179,2.8179,2.8179,2.8179,2.8179,2.8179,2.8179,2.8179,2.8179,2.8179,2.8179,2.8179,2.8179,2.8179,2.8179,2.8179,2.8179,2.8179,2.8085,2.7939,3.0283,3.2338,0.0,0.0,0.0,2.46,2.6097,2.7598,2.8218,2.9372,3.0506,3.1121,3.1016,3.0742,3.0484,2.9838,2.9323,2.9288,2.8166,2.8043,3.0009,3.0976,3.2134,3.3982,3.6024,3.7285,3.7305,3.7305,3.7461,3.7835,3.7519,3.7656,3.8552,3.8164,3.7164,3.5627,3.5553,3.4465,3.2151,3.3544,3.4162,3.3924,3.5788,3.463,3.0832,3.1519,2.9678,2.6011,2.6266,2.6547,2.6814,2.6814,2.6814,2.6747,2.6493,2.656,2.6774,2.6814,2.7188,2.7669,2.7682,2.7924,2.8165,2.8165,2.8179,2.8179,2.8179,2.8179,2.8179,2.8179,2.8179,2.8179,2.8179,2.8179,2.8179,2.8179,2.8179,2.8179,2.8179,2.8179,2.8179,2.8179,2.8179,2.8179,2.8179,2.8179,2.8179,2.8179,2.8179,2.8179,2.8179,2.8179,2.8179,2.8179,2.8179,2.8179,2.8179,2.8179,2.8179,2.8179,2.8179,2.8179,2.8179,2.8179,2.8179,2.8179,2.8179,2.8179,2.8179,2.8179,2.8179,2.8263,3.0385,3.2546,2.4939,0.0,0.0,0.0,0.0,0.0,2.7292,2.8086,2.9312,3.1548,3.1704,3.1886,3.3233,3.3072,3.2323,3.0999,2.9612,2.8956,2.974,3.1492,3.3021,3.3803,3.566,3.6988,3.7266,3.7305,3.7344,3.7461,3.7363,3.7539,3.8066,3.7952,3.7717,3.7272,3.6931,3.6337,3.5407,3.5806,3.5972,3.5892,3.6452,3.4778,3.1251,3.1618,2.9678,2.6011,2.6266,2.644,2.6507,2.6507,2.6507,2.6507,2.6426,2.644,2.6533,2.6747,2.6921,2.7094,2.7308,2.7617,2.7816,2.7816,2.8005,2.8179,2.8179,2.8179,2.8179,2.8179,2.8179,2.8179,2.8179,2.8179,2.8179,2.8179,2.8179,2.8179,2.8179,2.8179,2.8179,2.8179,2.8179,2.8179,2.8179,2.8179,2.8179,2.8179,2.8179,2.8179,2.8179,2.8179,2.8179,2.8179,2.8179,2.8179,2.8179,2.8179,2.8179,2.8179,2.8179,2.8179,2.8179,2.8179,2.8179,2.8179,2.8179,2.8179,2.8179,2.8179,2.8179,2.8263,3.0385,3.091,0.0,0.0,0.0,0.0,0.0,0.0,2.815,2.8912,3.0136,3.2552,3.271,3.2815,3.4199,3.4082,3.3527,3.2678,3.1941,3.138,3.1012,3.2243,3.3573,3.4596,3.5712,3.6504,3.6738,3.6758,3.6836,3.7031,3.6875,3.6953,3.7383,3.7559,3.7656,3.7656,3.7422,3.7187,3.6934,3.6792,3.6714,3.6714,3.6484,3.45,3.0953,3.1371,2.9387,2.5663,2.6159,2.6319,2.6265,2.6333,2.6386,2.6386,2.6386,2.6386,2.6413,2.6587,2.672,2.6854,2.7028,2.7348,2.7696,2.7696,2.7938,2.8179,2.8179,2.8179,2.8179,2.8179,2.8179,2.8179,2.8179,2.8179,2.8179,2.8179,2.8179,2.8179,2.8179,2.8179,2.8179,2.8179,2.8179,2.8179,2.8179,2.8179,2.8179,2.8179,2.8179,2.8179,2.8179,2.8179,2.8179,2.8179,2.8179,2.8179,2.8179,2.8179,2.8179,2.8179,2.8179,2.8179,2.8179,2.8179,2.8179,2.8179,2.8179,2.8179,2.8179,2.8179,2.8179,2.8221,2.9495,2.9411,0.0,0.0,0.0,0.0,2.8305,0.0,2.98,3.0724,3.1914,3.3567,3.3516,3.3359,3.388,3.3574,3.3418,3.3899,3.4277,3.42,3.3166,3.3296,3.4123,3.5811,3.5982,3.5982,3.5982,3.5982,3.6172,3.6597,3.6289,3.6269,3.6675,3.7031,3.7226,3.7226,3.7187,3.7168,3.7168,3.6797,3.6636,3.6636,3.6211,3.402,3.0326,3.0911,2.8943,2.5117,2.5932,2.6146,2.5971,2.6265,2.636,2.6386,2.6386,2.6386,2.6386,2.6386,2.6547,2.6774,2.6774,2.7134,2.7602,2.7642,2.7898,2.8138,2.8179,2.8179,2.8179,2.8179,2.8179,2.8179,2.8179,2.8179,2.8179,2.8179,2.8179,2.8179,2.8179,2.8179,2.8179,2.8179,2.8179,2.8179,2.8179,2.8179,2.8179,2.8179,2.8179,2.8179,2.8179,2.8179,2.8179,2.8179,2.8179,2.8179,2.8179,2.8179,2.8179,2.8179,2.8179,2.8179,2.8179,2.8179,2.8179,2.8179,2.8179,2.8179,2.8179,2.8179,2.8179,2.8179,2.8179,2.8179,0.0,0.0,0.0,0.0,0.0,0.0,2.9709,3.0374,3.1309,3.2355,3.2187,3.2129,3.291,3.2695,3.2589,3.2969,3.3398,3.3934,3.4762,3.5215,3.5587,3.5947,3.5982,3.5982,3.5982,3.5982,3.6055,3.6133,3.6387,3.6616,3.6695,3.6792,3.6832,3.6832,3.6445,3.6235,3.6235,3.6191,3.6152,3.6152,3.6021,3.402,3.0326,3.0683,2.8765,2.5104,2.5504,2.5651,2.5625,2.5957,2.6225,2.6386,2.6386,2.6386,2.6386,2.6386,2.6426,2.6466,2.6466,2.6707,2.7028,2.7268,2.759,2.7871,2.8112,2.8179,2.8179,2.8179,2.8179,2.8179,2.8179,2.8179,2.8179,2.8179,2.8179,2.8179,2.8179,2.8179,2.8179,2.8179,2.8179,2.8179,2.8179,2.8179,2.8179,2.8179,2.8179,2.8179,2.8179,2.8179,2.8179,2.8179,2.8179,2.8179,2.8179,2.8179,2.8179,2.8179,2.8179,2.8179,2.8179,2.8179,2.8179,2.8179,2.8179,2.8179,2.8179,2.8179,2.8179,2.8179,2.8179,2.8179,0.0,0.0,0.0,2.9082,0.0,0.0,0.0,2.9902,3.0215,3.1309,3.084,3.0459,3.1348,3.1182,3.1123,3.1738,3.2383,3.3184,3.4258,3.4961,3.5527,3.5942,3.5625,3.5527,3.5942,3.584,3.5801,3.5962,3.623,3.6348,3.6348,3.6348,3.6348,3.6348,3.6133,3.5982,3.5982,3.5982,3.5982,3.5982,3.5982,3.402,3.0326,3.0653,2.8596,2.4877,2.5317,2.5518,2.5531,2.5877,2.6172,2.6386,2.6386,2.6386,2.6386,2.6386,2.6386,2.6386,2.6386,2.6587,2.6867,2.7215,2.7455,2.7749,2.8098,2.8179,2.8179,2.8179,2.8179,2.8179,2.8179,2.8179,2.8179,2.8179,2.8179,2.8179,2.8179,2.8179,2.8179,2.8179,2.8179,2.8179,2.8179,2.8179,2.8179,2.8179,2.8179,2.8179,2.8179,2.8179,2.8179,2.8179,2.8179,2.8179,2.8179,2.8179,2.8179,2.8179,2.8179,2.8179,2.8179,2.8179,2.8179,2.8179,2.8179,2.8179,2.8179,2.8179,2.8179,2.8179,2.8179,2.8179,0.0,0.0,0.0,0.0,0.0,2.9101,0.0,0.0,0.0,3.043,2.9785,2.9219,2.9844,2.9668,2.9715,3.0391,3.1182,3.2022,3.2898,3.332,3.3933,3.4984,3.4174,3.3974,3.5157,3.517,3.5351,3.5859,3.5742,3.5723,3.5898,3.582,3.5728,3.5728,3.5859,3.5864,3.5864,3.5942,3.5982,3.5982,3.5982,3.402,3.031,3.0571,2.8479,2.4626,2.5144,2.5371,2.5451,2.5784,2.6078,2.6306,2.6373,2.6386,2.6386,2.6386,2.6386,2.6386,2.6386,2.6547,2.68,2.7148,2.7536,2.7871,2.8112,2.8179,2.8179,2.8179,2.8179,2.8179,2.8179,2.8179,2.8179,2.8179,2.8179,2.8179,2.8179,2.8179,2.8179,2.8179,2.8179,2.8179,2.8179,2.8179,2.8179,2.8179,2.8179,2.8179,2.8179,2.8179,2.8179,2.8179,2.8179,2.8179,2.8179,2.8179,2.8179,2.8179,2.8179,2.8179,2.8179,2.8179,2.8179,2.8179,2.8179,2.8179,2.8179,2.8179,2.8179,2.8179,2.8179,2.8179,0.0,0.0,0.0,0.0,3.0371,0.0,0.0,0.0,2.998,2.9794,0.0,2.9414,2.9121,0.0,0.0,2.9094,2.9551,3.0341,3.1533,3.0321,2.9959,3.1713,3.0366,3.0138,3.232,3.3603,3.4603,3.541,3.4746,3.4629,3.543,3.5078,3.4844,3.4844,3.5254,3.5469,3.5469,3.584,3.5982,3.5982,3.5982,3.402,3.031,3.0343,2.8264,2.4599,2.4666,2.489,2.5157,2.5438,2.5732,2.6078,2.6332,2.6386,2.6386,2.6386,2.6386,2.6386,2.6386,2.6413,2.6533,2.7122,2.7684,2.8138,2.8179,2.8179,2.8179,2.8179,2.8179,2.8179,2.8179,2.8179,2.8179,2.8179,2.8179,2.8179,2.8179,2.8179,2.8179,2.8179,2.8179,2.8179,2.8179,2.8179,2.8179,2.8179,2.8179,2.8179,2.8179,2.8179,2.8179,2.8179,2.8179,2.8179,2.8179,2.8179,2.8179,2.8179,2.8179,2.8179,2.8179,2.8179,2.8179,2.8179,2.8179,2.8179,2.8179,2.8179,2.8179,2.8179,2.8179,2.8179,0.0,0.0,0.0,0.0,0.0,0.0,2.9473,0.0,2.9121,2.918,0.0,0.0,0.0,0.0,0.0,0.0,2.8906,2.9473,3.0273,2.8855,2.8583,3.0886,2.8896,2.7887,2.9297,3.117,3.2458,3.2815,3.3636,3.4271,3.4642,3.4668,3.4707,3.4707,3.5156,3.5391,3.5391,3.5801,3.5982,3.5982,3.5982,3.402,3.031,3.031,2.8218,2.4599,2.4599,2.4866,2.5331,2.5277,2.5569,2.6011,2.6131,2.6239,2.6386,2.6386,2.6386,2.6386,2.6386,2.6386,2.6493,2.7122,2.759,2.7965,2.8138,2.8179,2.8179,2.8179,2.8179,2.8179,2.8179,2.8179,2.8179,2.8179,2.8179,2.8179,2.8179,2.8179,2.8179,2.8179,2.8179,2.8179,2.8179,2.8179,2.8179,2.8179,2.8179,2.8179,2.8179,2.8179,2.8179,2.8179,2.8179,2.8179,2.8179,2.8179,2.8179,2.8179,2.8179,2.8179,2.8179,2.8179,2.8179,2.8179,2.8179,2.8179,2.8179,2.8179,2.8179,2.8179,2.8179,2.888,3.0442,0.0,0.0,0.0,0.0,0.0,0.0,0.0,0.0,0.0,2.8613,0.0,0.0,0.0,2.8549,0.0,0.0,2.9329,2.9419,2.7903,2.7519,2.9354,2.7404,2.6075,2.6546,2.8951,3.057,3.0819,3.2416,3.3535,3.3887,3.4062,3.4238,3.4336,3.4785,3.5098,3.5195,3.5625,3.5627,3.5226,3.5226,3.324,2.9544,2.9544,2.7728,2.4599,2.4599,2.4893,2.5384,2.517,2.5422,2.5877,2.5957,2.6131,2.6279,2.636,2.6386,2.6386,2.6386,2.644,2.6587,2.7148,2.7455,2.7749,2.8098,2.8179,2.8179,2.8179,2.8179,2.8179,2.8179,2.8179,2.8179,2.8179,2.8179,2.8179,2.8179,2.8179,2.8179,2.8179,2.8179,2.8179,2.8179,2.8179,2.8179,2.8179,2.8179,2.8179,2.8179,2.8179,2.8179,2.8179,2.8179,2.8179,2.8179,2.8179,2.8179,2.8179,2.8179,2.8179,2.8179,2.8179,2.8179,2.8179,2.8179,2.8179,2.8179,2.8179,2.8179,2.8179,2.8179,2.9034,0.0,0.0,0.0,3.0508,0.0,0.0,0.0,0.0,2.9442,0.0,0.0,2.9863,2.9015,3.0038,0.0,0.0,0.0,0.0,0.0,2.7314,2.6088,2.596,2.5203,2.4574,2.4319,2.7261,2.9523,3.0347,3.1131,3.2118,3.3347,3.3066,3.3047,3.3425,3.3887,3.4349,3.4726,3.5176,3.4708,3.3274,3.3274,3.1298,2.7578,2.7578,2.6502,2.4599,2.4599,2.481,2.509,2.5077,2.5251,2.5558,2.5877,2.5998,2.6038,2.6279,2.6386,2.6386,2.6386,2.6573,2.6854,2.7202,2.7455,2.7749,2.8098,2.8179,2.8179,2.8179,2.8179,2.8179,2.8179,2.8179,2.8179,2.8179,2.8179,2.8179,2.8179,2.8179,2.8179,2.8179,2.8179,2.8179,2.8179,2.8179,2.8179,2.8179,2.8179,2.8179,2.8179,2.8179,2.8179,2.8179,2.8179,2.8179,2.8179,2.8179,2.8179,2.8179,2.8179,2.8179,2.8179,2.8179,2.8179,2.8179,2.8179,2.8179,2.8179,2.8179,2.8179,2.8179,2.8179,2.8221,3.355,3.3542,3.3231,3.1515,3.0976,3.0586,0.0,0.0,0.0,0.0,0.0,0.0,0.0,0.0,0.0,0.0,0.0,0.0,0.0,2.5838,2.421,2.4322,2.2975,2.1968,2.1902,2.3688,2.5589,2.7344,2.8624,3.0141,3.2049,3.2559,3.2851,3.3008,3.3723,3.431,3.4687,3.5156,3.4537,3.2876,3.2876,3.0787,2.6903,2.7092,2.6135,2.4369,2.4519,2.481,2.5064,2.4863,2.4957,2.5237,2.5382,2.5491,2.5718,2.6213,2.6386,2.6386,2.6386,2.6453,2.6613,2.7148,2.7376,2.755,2.8031,2.8179,2.8179,2.8179,2.8179,2.8179,2.8179,2.8179,2.8179,2.8179,2.8179,2.8179,2.8179,2.8179,2.8179,2.8179,2.8179,2.8179,2.8179,2.8179,2.8179,2.8179,2.8179,2.8179,2.8179,2.8179,2.8179,2.8179,2.8179,2.8179,2.8179,2.8179,2.8179,2.8179,2.8179,2.8179,2.8179,2.8179,2.8179,2.8179,2.8179,2.8179,2.8179,2.8179,2.8179,2.8179,2.8179,2.9732,3.4716,3.454,3.4244,3.2404,3.1777,3.1309,3.0302,3.0517,3.0703,0.0,0.0,0.0,0.0,0.0,0.0,0.0,0.0,0.0,0.0,2.4799,2.3124,2.2923,2.1491,2.0521,2.0521,2.239,2.4174,2.5512,2.7651,2.962,3.1191,3.2109,3.2637,3.2793,3.3476,3.4121,3.4687,3.5,3.4029,3.186,3.186,2.9743,2.5883,2.6085,2.5861,2.5397,2.5556,2.6141,2.6886,2.6003,2.5764,2.5922,2.5445,2.5344,2.5571,2.6052,2.6346,2.6386,2.6386,2.6386,2.6493,2.7122,2.7309,2.7416,2.8005,2.8179,2.8205,2.8326,2.8272,2.8205,2.8326,2.8272,2.8179,2.8179,2.8179,2.8179,2.8179,2.8179,2.8179,2.8179,2.8179,2.8179,2.8179,2.8179,2.8179,2.8179,2.8179,2.8179,2.8179,2.8179,2.8179,2.8179,2.8179,2.8179,2.8179,2.8179,2.8179,2.8179,2.8179,2.8179,2.8179,2.8179,2.8339,2.866,2.8353,2.8339,2.866,2.8339,2.8179,2.8179,2.8179,3.0093]},{"header":{"parameterUnit":"m.s-1","parameterCategory":1,"la1":30.6,"la2":29.2853,"lo1":-89.7004,"lo2":-87.6739,"dy":0.0162,"dx":0.0183,"nx":112,"ny":82,"refTime":"2023-05-26T06:00:00:Z","depth":0,"parameterNumber":3,"parameterNumberName":"V-component_of_WINDS"},"data":[0.0,0.0,0.0,0.0,0.0,0.0,0.0,0.0,0.0,0.0,0.0,0.0,0.0,0.0,0.0,0.0,0.0,0.0,0.0,0.0,0.0,0.0,0.0,0.0,0.0,0.0,0.0,0.0,0.0,0.0,0.0,0.0,0.0,0.0,0.0,0.0,0.0,0.0,0.0,0.0,0.0,0.0,0.0,0.0,0.0,0.0,0.0,0.0,0.0,0.0,0.0,0.0,0.0,0.0,0.0,0.0,0.0,0.0,0.0,0.0,0.0,0.0,0.0,0.0,0.0,0.0,0.0,0.0,0.0,0.0,0.0,0.0,0.0,0.0,0.0,0.0,0.0,0.0,0.0,0.0,0.0,0.0,0.0,0.0,0.0,0.0,0.0,0.0,0.0,0.0,3.7021,3.8125,3.9918,4.0764,4.0146,4.0561,4.002,3.8024,0.0,0.0,0.0,0.0,0.0,0.0,0.0,0.0,0.0,0.0,0.0,0.0,0.0,0.0,0.0,0.0,0.0,0.0,0.0,0.0,0.0,0.0,0.0,0.0,0.0,0.0,0.0,0.0,0.0,0.0,0.0,0.0,0.0,0.0,0.0,0.0,0.0,0.0,0.0,0.0,0.0,0.0,0.0,0.0,0.0,0.0,0.0,0.0,0.0,0.0,0.0,0.0,0.0,0.0,0.0,0.0,0.0,0.0,0.0,0.0,0.0,0.0,0.0,0.0,0.0,0.0,0.0,0.0,0.0,0.0,0.0,0.0,0.0,0.0,0.0,0.0,0.0,0.0,0.0,0.0,0.0,0.0,0.0,0.0,0.0,0.0,0.0,0.0,0.0,0.0,0.0,0.0,0.0,0.0,0.0,0.0,0.0,0.0,0.0,0.0,0.0,0.0,0.0,0.0,3.6806,3.9491,4.0079,4.0202,4.0113,3.9626,3.8903,3.7956,0.0,0.0,0.0,0.0,0.0,0.0,0.0,0.0,0.0,0.0,0.0,0.0,0.0,0.0,0.0,0.0,0.0,0.0,0.0,0.0,0.0,0.0,0.0,0.0,0.0,0.0,0.0,0.0,0.0,0.0,0.0,0.0,0.0,0.0,0.0,0.0,0.0,0.0,0.0,0.0,0.0,0.0,0.0,0.0,0.0,0.0,0.0,0.0,0.0,0.0,0.0,0.0,0.0,0.0,0.0,0.0,0.0,0.0,0.0,0.0,0.0,0.0,0.0,0.0,0.0,0.0,0.0,0.0,0.0,0.0,0.0,0.0,0.0,0.0,0.0,0.0,0.0,0.0,0.0,0.0,0.0,0.0,0.0,0.0,0.0,0.0,0.0,0.0,0.0,0.0,0.0,0.0,0.0,0.0,0.0,0.0,0.0,0.0,0.0,0.0,0.0,0.0,0.0,3.6761,3.8125,3.991,4.0472,4.054,4.0146,3.9795,3.9119,3.7978,3.8227,0.0,0.0,0.0,0.0,0.0,0.0,0.0,0.0,0.0,0.0,0.0,0.0,0.0,0.0,0.0,0.0,0.0,0.0,0.0,0.0,0.0,0.0,0.0,0.0,0.0,0.0,0.0,0.0,0.0,0.0,0.0,0.0,0.0,0.0,0.0,0.0,0.0,0.0,0.0,0.0,0.0,0.0,0.0,0.0,0.0,0.0,0.0,0.0,0.0,0.0,0.0,0.0,0.0,0.0,0.0,0.0,0.0,0.0,0.0,0.0,0.0,0.0,0.0,0.0,0.0,0.0,0.0,0.0,0.0,0.0,0.0,0.0,0.0,0.0,0.0,0.0,0.0,0.0,0.0,0.0,0.0,0.0,0.0,0.0,0.0,0.0,0.0,0.0,0.0,0.0,0.0,0.0,0.0,0.0,0.0,0.0,0.0,0.0,0.0,0.0,0.0,0.0,3.8599,3.9491,4.0045,4.0608,4.0696,4.0146,3.9762,3.9085,3.7978,3.7572,0.0,0.0,0.0,0.0,0.0,0.0,0.0,0.0,0.0,0.0,0.0,0.0,0.0,0.0,0.0,0.0,0.0,0.0,0.0,0.0,0.0,0.0,0.0,0.0,0.0,0.0,0.0,0.0,0.0,0.0,0.0,0.0,0.0,0.0,0.0,0.0,0.0,0.0,0.0,0.0,0.0,0.0,0.0,0.0,0.0,0.0,0.0,0.0,0.0,0.0,0.0,0.0,0.0,0.0,0.0,0.0,0.0,0.0,0.0,0.0,0.0,0.0,0.0,0.0,0.0,0.0,0.0,0.0,0.0,0.0,0.0,0.0,0.0,0.0,0.0,0.0,0.0,0.0,0.0,0.0,0.0,0.0,0.0,0.0,0.0,0.0,0.0,0.0,0.0,0.0,0.0,0.0,0.0,0.0,0.0,0.0,0.0,0.0,0.0,0.0,0.0,0.0,3.8725,4.0045,4.0079,4.0146,4.018,4.0113,3.8848,3.8012,3.7922,3.6558,0.0,0.0,0.0,0.0,0.0,0.0,0.0,0.0,0.0,0.0,0.0,0.0,0.0,0.0,0.0,0.0,0.0,0.0,0.0,0.0,0.0,0.0,0.0,0.0,0.0,0.0,0.0,0.0,0.0,0.0,0.0,0.0,0.0,0.0,0.0,0.0,0.0,0.0,0.0,0.0,0.0,0.0,0.0,0.0,0.0,0.0,0.0,0.0,0.0,0.0,0.0,0.0,0.0,0.0,0.0,0.0,0.0,0.0,0.0,0.0,0.0,0.0,0.0,0.0,0.0,0.0,0.0,0.0,0.0,0.0,0.0,0.0,0.0,0.0,0.0,0.0,0.0,0.0,0.0,0.0,0.0,0.0,0.0,0.0,0.0,0.0,0.0,0.0,0.0,0.0,0.0,0.0,0.0,0.0,0.0,0.0,0.0,0.0,0.0,0.0,0.0,0.0,3.9005,4.029,4.073,4.0798,4.0608,4.0146,3.9186,3.8396,3.791,0.0,0.0,0.0,0.0,0.0,0.0,0.0,0.0,0.0,0.0,0.0,0.0,0.0,0.0,0.0,0.0,0.0,0.0,0.0,0.0,0.0,0.0,0.0,0.0,0.0,0.0,0.0,0.0,0.0,0.0,0.0,0.0,0.0,0.0,0.0,0.0,0.0,0.0,0.0,0.0,0.0,0.0,0.0,0.0,0.0,0.0,0.0,0.0,0.0,0.0,0.0,0.0,0.0,0.0,0.0,0.0,0.0,0.0,0.0,0.0,0.0,0.0,0.0,0.0,0.0,0.0,0.0,0.0,0.0,0.0,0.0,0.0,0.0,0.0,0.0,0.0,0.0,0.0,0.0,0.0,0.0,0.0,0.0,0.0,0.0,0.0,0.0,0.0,0.0,0.0,0.0,0.0,0.0,0.0,0.0,0.0,0.0,0.0,0.0,0.0,0.0,0.0,3.799,3.9534,4.065,4.117,4.1204,4.0899,4.018,3.8983,3.8205,3.791,0.0,0.0,0.0,0.0,0.0,0.0,0.0,0.0,0.0,0.0,0.0,0.0,0.0,0.0,0.0,0.0,0.0,0.0,0.0,0.0,0.0,0.0,0.0,0.0,0.0,0.0,0.0,0.0,0.0,0.0,0.0,0.0,0.0,0.0,0.0,0.0,0.0,0.0,0.0,0.0,0.0,0.0,0.0,0.0,0.0,0.0,0.0,0.0,0.0,0.0,0.0,0.0,0.0,0.0,0.0,0.0,0.0,0.0,0.0,0.0,0.0,0.0,0.0,0.0,0.0,0.0,0.0,0.0,0.0,0.0,0.0,0.0,0.0,0.0,0.0,0.0,0.0,0.0,0.0,0.0,0.0,0.0,0.0,0.0,0.0,0.0,0.0,0.0,0.0,0.0,0.0,0.0,0.0,0.0,0.0,0.0,0.0,0.0,0.0,0.0,0.0,0.0,3.8814,4.029,4.1204,4.1204,4.1204,4.0899,4.018,3.8082,3.7134,0.0,0.0,0.0,0.0,0.0,0.0,0.0,0.0,0.0,0.0,0.0,0.0,0.0,0.0,0.0,0.0,0.0,0.0,0.0,0.0,0.0,0.0,0.0,0.0,0.0,0.0,0.0,0.0,0.0,0.0,0.0,0.0,0.0,0.0,0.0,0.0,0.0,0.0,0.0,0.0,0.0,0.0,0.0,0.0,0.0,0.0,0.0,0.0,0.0,0.0,0.0,0.0,0.0,0.0,0.0,0.0,0.0,0.0,0.0,0.0,0.0,0.0,0.0,0.0,0.0,0.0,0.0,0.0,0.0,0.0,0.0,0.0,0.0,0.0,0.0,0.0,0.0,0.0,0.0,0.0,0.0,0.0,0.0,0.0,0.0,0.0,0.0,0.0,0.0,0.0,0.0,0.0,0.0,0.0,0.0,0.0,0.0,0.0,0.0,0.0,0.0,0.0,0.0,3.8814,4.029,4.1204,4.1204,4.1204,4.0899,4.018,3.8082,3.7274,3.831,0.0,0.0,0.0,0.0,0.0,0.0,0.0,0.0,0.0,0.0,0.0,0.0,0.0,0.0,0.0,0.0,0.0,0.0,0.0,0.0,0.0,0.0,0.0,0.0,0.0,0.0,0.0,0.0,0.0,0.0,0.0,0.0,0.0,0.0,0.0,0.0,0.0,0.0,0.0,0.0,0.0,0.0,0.0,0.0,0.0,0.0,0.0,0.0,0.0,0.0,0.0,0.0,0.0,0.0,0.0,0.0,0.0,0.0,0.0,0.0,0.0,0.0,0.0,0.0,0.0,0.0,0.0,0.0,0.0,0.0,0.0,0.0,0.0,0.0,0.0,0.0,0.0,0.0,0.0,0.0,0.0,0.0,0.0,0.0,0.0,0.0,0.0,0.0,0.0,0.0,0.0,0.0,0.0,0.0,0.0,0.0,0.0,0.0,0.0,0.0,0.0,0.0,3.8848,4.0495,4.1452,4.123,4.1401,4.1158,4.0159,3.834,3.7409,3.7865,0.0,0.0,0.0,0.0,0.0,0.0,0.0,0.0,0.0,0.0,0.0,0.0,0.0,0.0,0.0,0.0,0.0,0.0,0.0,0.0,0.0,0.0,0.0,0.0,0.0,0.0,0.0,0.0,0.0,0.0,0.0,0.0,0.0,0.0,0.0,0.0,0.0,0.0,0.0,0.0,0.0,0.0,0.0,0.0,0.0,0.0,0.0,0.0,0.0,0.0,0.0,0.0,0.0,0.0,0.0,0.0,0.0,0.0,0.0,0.0,0.0,0.0,0.0,0.0,0.0,0.0,0.0,0.0,0.0,0.0,0.0,0.0,0.0,0.0,0.0,0.0,0.0,0.0,0.0,0.0,0.0,0.0,0.0,0.0,0.0,0.0,0.0,0.0,0.0,0.0,0.0,0.0,0.0,0.0,0.0,0.0,0.0,0.0,0.0,0.0,0.0,0.0,3.8916,4.0758,4.1776,4.1223,4.1702,4.1585,4.0372,3.8848,3.7692,3.7103,0.0,0.0,0.0,0.0,0.0,0.0,0.0,0.0,0.0,0.0,0.0,0.0,0.0,0.0,0.0,0.0,0.0,0.0,0.0,0.0,0.0,0.0,0.0,0.0,0.0,0.0,0.0,0.0,0.0,0.0,0.0,0.0,0.0,0.0,0.0,0.0,0.0,0.0,0.0,0.0,0.0,0.0,0.0,0.0,0.0,0.0,0.0,0.0,0.0,0.0,0.0,0.0,0.0,0.0,0.0,0.0,0.0,0.0,0.0,0.0,3.9251,3.9266,0.0,0.0,0.0,0.0,0.0,0.0,0.0,0.0,0.0,0.0,0.0,0.0,0.0,0.0,0.0,0.0,0.0,0.0,0.0,0.0,0.0,0.0,0.0,0.0,0.0,0.0,0.0,0.0,0.0,0.0,0.0,0.0,0.0,0.0,0.0,0.0,0.0,0.0,0.0,0.0,3.8983,4.0256,4.1104,4.0962,4.1508,4.1739,4.1453,3.9522,3.848,3.8901,3.6856,0.0,0.0,0.0,0.0,0.0,0.0,0.0,0.0,0.0,0.0,0.0,0.0,0.0,0.0,0.0,0.0,0.0,0.0,0.0,0.0,0.0,0.0,0.0,0.0,0.0,0.0,0.0,0.0,0.0,0.0,0.0,0.0,0.0,0.0,0.0,0.0,0.0,0.0,0.0,0.0,0.0,0.0,0.0,0.0,0.0,0.0,0.0,0.0,0.0,0.0,0.0,0.0,0.0,0.0,0.0,0.0,0.0,0.0,0.0,4.1597,4.0799,0.0,0.0,0.0,0.0,0.0,0.0,0.0,0.0,0.0,0.0,0.0,0.0,0.0,0.0,0.0,0.0,0.0,0.0,0.0,0.0,0.0,0.0,0.0,0.0,0.0,0.0,0.0,0.0,0.0,0.0,0.0,0.0,0.0,0.0,0.0,0.0,0.0,0.0,0.0,0.0,3.9371,4.0538,4.1318,4.1318,4.1874,4.2139,4.1832,4.0379,3.9362,3.8998,3.7706,0.0,0.0,0.0,0.0,0.0,0.0,0.0,0.0,0.0,0.0,0.0,0.0,0.0,0.0,0.0,0.0,0.0,0.0,0.0,0.0,0.0,0.0,0.0,0.0,0.0,0.0,0.0,0.0,0.0,0.0,0.0,0.0,0.0,0.0,0.0,0.0,0.0,0.0,0.0,0.0,0.0,0.0,0.0,0.0,0.0,0.0,0.0,0.0,0.0,0.0,0.0,0.0,0.0,4.7416,4.8076,4.8737,4.8737,4.8427,4.7712,4.4886,4.3399,4.2983,4.3653,0.0,0.0,0.0,0.0,0.0,0.0,0.0,0.0,0.0,0.0,0.0,0.0,0.0,0.0,0.0,0.0,0.0,0.0,0.0,0.0,0.0,0.0,4.5004,4.4573,4.5075,4.5003,4.2682,0.0,0.0,0.0,0.0,0.0,0.0,0.0,0.0,0.0,0.0,0.0,3.9939,4.1119,4.1958,4.1958,4.2482,4.2655,4.2144,4.14,4.0382,3.9032,3.8771,3.7812,0.0,0.0,0.0,0.0,0.0,0.0,0.0,0.0,0.0,0.0,0.0,0.0,0.0,0.0,0.0,0.0,0.0,0.0,0.0,0.0,0.0,0.0,0.0,0.0,0.0,0.0,0.0,0.0,0.0,0.0,0.0,0.0,4.2029,4.2139,0.0,0.0,0.0,0.0,0.0,0.0,0.0,0.0,0.0,0.0,0.0,0.0,0.0,4.8196,4.9664,4.9774,4.9958,5.0178,5.0241,5.0352,5.0472,5.0472,5.0645,5.0844,4.9663,0.0,4.5443,4.5553,0.0,0.0,0.0,0.0,0.0,0.0,0.0,0.0,0.0,0.0,0.0,0.0,0.0,0.0,0.0,0.0,0.0,0.0,0.0,0.0,0.0,0.0,4.6773,4.6671,4.7284,4.7403,4.5682,4.4065,4.2752,4.2076,4.1133,4.0393,0.0,0.0,0.0,0.0,0.0,0.0,4.0805,4.1814,4.2586,4.2586,4.3087,4.3356,4.3294,4.2546,4.1803,4.1132,3.9401,3.839,3.8259,3.7934,0.0,0.0,0.0,0.0,0.0,0.0,0.0,0.0,0.0,0.0,0.0,0.0,0.0,0.0,0.0,0.0,0.0,0.0,0.0,0.0,0.0,0.0,0.0,0.0,0.0,0.0,0.0,0.0,0.0,4.291,4.3636,4.3636,4.4048,4.3644,0.0,0.0,0.0,0.0,0.0,0.0,0.0,0.0,0.0,4.914,4.9958,5.0949,5.215,5.3041,5.3482,5.3482,5.3959,5.3959,5.3482,5.3482,5.3592,5.3783,5.3674,5.2502,5.0558,4.8736,4.7367,4.6404,0.0,0.0,0.0,0.0,4.5507,4.5581,4.603,4.5654,4.5104,4.57,0.0,0.0,0.0,0.0,0.0,0.0,0.0,4.6168,4.6608,4.7609,4.8526,4.8526,4.9114,4.9407,4.8242,4.7299,4.6091,4.4042,4.3514,4.3178,4.2445,4.1935,0.0,0.0,0.0,4.2349,4.1977,4.2777,4.3324,4.3169,4.3347,4.3506,4.3506,4.3176,4.2686,4.1983,4.0826,3.9848,3.9167,3.9017,3.897,0.0,0.0,0.0,0.0,0.0,0.0,0.0,0.0,0.0,0.0,0.0,0.0,0.0,0.0,0.0,0.0,0.0,0.0,0.0,0.0,0.0,0.0,0.0,0.0,0.0,0.0,0.0,0.0,4.4966,4.5471,4.5067,4.6471,4.6434,0.0,0.0,0.0,0.0,0.0,0.0,5.0105,5.1179,5.2207,5.3225,5.4032,5.473,5.5343,5.6539,5.7017,5.6833,5.7446,5.7409,5.6833,5.6833,5.6875,5.7014,5.7165,5.6637,5.5397,5.2082,4.9974,4.8862,4.8639,4.8003,4.7241,4.7819,4.8039,4.8113,4.8489,4.8076,4.7369,4.7205,4.6764,4.6058,4.5039,0.0,0.0,0.0,0.0,4.8003,4.9251,5.0031,5.0629,5.1032,5.1583,5.1793,5.0996,5.0812,4.9747,4.6021,4.5626,4.559,4.4575,4.3727,0.0,4.2705,4.3257,4.3622,4.3359,4.3949,4.4251,4.383,4.38,4.3726,4.3506,4.3506,4.3249,4.2653,4.1778,4.0838,3.9833,3.9678,3.9396,3.9017,0.0,0.0,0.0,0.0,0.0,0.0,0.0,0.0,0.0,0.0,0.0,0.0,0.0,0.0,0.0,0.0,0.0,0.0,0.0,0.0,0.0,0.0,0.0,0.0,0.0,0.0,0.0,0.0,0.0,4.603,4.9297,0.0,0.0,0.0,0.0,5.1583,5.3041,5.4326,5.5181,5.6712,5.829,5.9857,6.0713,6.1129,6.119,6.1263,6.0896,6.0162,6.0187,6.0187,6.0162,6.0162,6.0393,6.08,6.0045,5.9472,5.8759,5.5162,5.2948,5.1697,5.0952,5.0602,5.0545,5.0618,5.0618,5.0508,4.9784,4.8976,4.848,5.0068,5.0545,5.0178,4.8553,4.8076,0.0,0.0,4.9454,5.0004,5.2344,5.2994,5.3398,5.4924,5.5328,5.5144,5.4326,5.4142,5.2747,4.792,4.6388,4.5883,4.5819,0.0,4.4693,4.4913,4.5382,4.5561,4.5052,4.5466,4.5489,4.4737,4.4626,4.4333,4.3543,4.3506,4.3469,4.3433,4.1749,4.0699,4.0633,3.9606,3.9042,3.9017,3.9694,0.0,0.0,0.0,0.0,0.0,0.0,0.0,0.0,0.0,0.0,0.0,0.0,0.0,0.0,0.0,0.0,0.0,0.0,0.0,0.0,0.0,0.0,0.0,0.0,0.0,0.0,0.0,0.0,5.2171,5.4803,0.0,5.3544,5.5343,5.6627,5.6627,5.8609,6.0199,6.1019,6.2108,6.2939,6.3527,6.3833,6.398,6.398,6.398,6.3306,6.1949,6.1949,6.1655,6.1153,6.1153,6.1568,6.2176,6.2198,6.1681,6.0707,5.9711,5.7188,5.3891,5.3595,5.3018,5.2407,5.2931,5.3115,5.3151,5.3382,5.2941,5.216,5.172,5.1206,5.0692,5.0105,5.0288,5.0839,5.1683,5.2307,5.3004,5.4399,5.473,5.4887,5.5475,5.5585,5.5511,5.5218,5.5181,5.4509,5.2223,5.0325,4.8893,4.8352,4.7572,4.7029,4.7132,4.7806,4.7808,4.6537,4.7028,4.6948,4.5626,4.548,4.5149,4.4342,4.4268,4.4048,4.3543,4.2877,4.2176,4.1438,4.101,4.0481,3.9719,3.9491,3.9491,0.0,0.0,0.0,0.0,0.0,0.0,0.0,0.0,0.0,0.0,0.0,0.0,0.0,0.0,0.0,0.0,0.0,0.0,0.0,0.0,0.0,0.0,0.0,0.0,0.0,5.3849,5.6638,5.7152,6.0089,6.1337,5.9465,6.1215,6.2462,6.2462,6.4444,6.5912,6.6512,6.7283,6.76,6.7343,6.7307,6.705,6.6499,6.6499,6.5802,6.4457,6.4457,6.4163,6.3662,6.3662,6.3796,6.4066,6.4388,6.3725,6.2475,6.2761,6.08,5.7577,5.7031,5.633,5.5673,5.6235,5.6418,5.6418,5.6429,5.5868,5.4987,5.3639,5.2858,5.2417,5.2417,5.2784,5.3382,5.4179,5.4792,5.539,5.6209,5.6393,5.6393,5.6393,5.6393,5.6393,5.6393,5.6393,5.6172,5.539,5.3261,5.1353,5.0555,4.9701,4.926,4.9517,4.9821,4.9711,4.8847,4.8994,4.8526,4.6874,4.6728,4.6177,4.481,4.4957,4.4635,4.3579,4.3151,4.2494,4.1474,4.124,4.0676,3.9753,3.9428,3.9617,4.0368,0.0,0.0,0.0,0.0,0.0,0.0,0.0,0.0,0.0,0.0,0.0,0.0,0.0,0.0,0.0,0.0,0.0,0.0,0.0,0.0,0.0,0.0,0.0,5.484,5.8107,6.0676,6.075,6.4971,6.6966,6.4617,6.7247,6.9082,6.9045,7.0499,7.1417,7.1417,7.2151,7.2224,7.1454,7.138,7.061,6.9082,6.9009,6.8605,6.7811,6.7811,6.7811,6.7811,6.7774,6.737,6.6659,6.6623,6.5705,6.4249,6.4249,6.3723,6.2756,6.1104,6.0481,6.0481,6.0481,6.0456,6.0199,5.8621,5.7556,5.6774,5.5989,5.5768,5.5768,5.5768,5.5768,5.5915,5.6675,5.6884,5.7031,5.7813,5.7997,5.7997,5.7997,5.7997,5.7997,5.7997,5.7997,5.7776,5.6957,5.4902,5.3067,5.2244,5.1463,5.1206,5.195,5.1426,0.0,5.1914,5.1316,5.0215,4.8553,4.837,4.7416,4.4993,4.548,4.5223,4.3579,4.2505,4.1547,4.0735,4.0165,3.9617,3.9091,3.9617,4.0227,4.0909,0.0,0.0,0.0,0.0,0.0,0.0,0.0,0.0,0.0,0.0,0.0,0.0,0.0,0.0,0.0,0.0,0.0,0.0,0.0,0.0,0.0,5.9061,6.152,5.9832,6.3613,6.6976,6.8151,7.0513,7.1812,7.1152,7.2386,7.301,7.2422,7.334,7.3913,7.3913,7.4133,7.4133,7.3913,7.334,7.2826,7.2386,7.1798,7.1101,7.0316,7.0316,7.0316,7.0279,6.9706,6.9633,6.9949,6.9376,6.8531,6.7577,6.7577,6.6769,6.5264,6.3013,6.2132,6.2132,6.2132,6.1777,6.1117,6.0089,5.9612,5.938,5.9171,5.9098,5.9098,5.9098,5.9098,5.8988,5.8646,5.8535,5.8462,5.8107,5.7997,5.7997,5.7997,5.7997,5.7997,5.7997,5.7997,5.7776,5.6957,5.626,5.5563,5.474,5.4447,5.4153,5.3775,5.3555,5.3078,5.2134,5.1803,5.1279,5.0215,5.0105,4.9104,4.6636,4.6636,4.5581,4.28,4.2347,4.1905,4.124,4.104,4.0993,4.1038,4.1181,4.1362,0.0,0.0,0.0,0.0,0.0,0.0,0.0,0.0,0.0,0.0,0.0,0.0,0.0,0.0,0.0,0.0,0.0,0.0,0.0,0.0,0.0,0.0,6.4383,6.7136,6.7173,6.9339,7.1505,7.3105,7.4441,7.5212,7.5212,7.5637,7.5711,7.5249,7.5637,7.5894,7.5894,7.5894,7.5747,7.5432,7.4955,7.4551,7.4221,7.3744,7.3252,7.2812,7.2812,7.2812,7.2775,7.2312,7.2018,7.1784,7.1321,7.0477,6.9412,6.9412,6.8862,6.776,0.0,0.0,0.0,0.0,6.3356,6.2511,6.1704,6.1178,6.086,6.0529,6.0419,6.0419,6.0419,6.0419,6.0297,5.982,5.971,5.96,5.9134,5.8767,5.851,5.851,5.8253,5.7997,5.7997,5.7997,5.785,5.7409,5.7299,0.0,5.6686,5.6062,5.5438,5.4961,5.462,5.4069,5.3125,5.2711,5.2197,5.1389,5.1316,5.0288,4.7819,4.759,0.0,0.0,0.0,4.2187,4.1458,4.124,0.0,0.0,0.0,4.2343,4.2675,4.2899,0.0,0.0,4.2693,4.2455,0.0,0.0,0.0,0.0,0.0,0.0,0.0,0.0,0.0,0.0,0.0,0.0,0.0,0.0,0.0,0.0,6.9729,7.2665,7.4977,7.4771,7.486,7.6093,7.6959,7.7399,7.7326,7.7399,7.7399,7.7326,7.7472,7.7509,7.7326,7.7399,0.0,0.0,0.0,7.5909,7.516,7.516,7.516,7.516,7.516,7.516,7.516,7.5087,7.4258,7.2899,7.2716,7.1835,7.0477,7.0403,7.033,7.0,6.7687,6.6292,6.5545,6.5472,6.4934,6.409,6.3246,0.0,0.0,6.0896,6.0676,6.0676,6.0676,6.0676,6.0639,6.0566,6.0529,6.0493,6.0297,5.9747,5.9196,5.9086,5.8499,5.7997,5.7997,5.7997,5.7997,5.7997,5.7997,5.7997,5.7997,5.6833,5.5842,5.5768,5.5133,5.462,5.4436,5.3775,5.3031,5.2207,5.2134,0.0,4.8673,4.8443,4.7379,4.4847,4.3651,4.2665,4.1904,4.1502,4.1857,4.3023,4.3069,4.3476,4.4256,4.4757,4.536,4.6122,4.4294,4.3739,0.0,0.0,0.0,0.0,0.0,0.0,0.0,0.0,0.0,0.0,0.0,0.0,0.0,0.0,0.0,6.9729,7.3068,7.5799,7.7635,7.8295,7.8222,7.7179,7.7855,7.806,7.7362,7.7949,7.8075,7.7362,7.8552,7.8736,7.7362,7.7949,7.7965,7.7105,7.7069,7.6995,7.6848,7.6848,7.6848,7.6848,7.6848,0.0,7.6812,7.6151,7.5689,7.5322,7.4037,7.3303,7.2936,7.2312,7.1651,7.0903,6.9119,6.7944,6.715,6.6512,6.5778,6.4958,6.4127,6.3282,6.2536,6.2389,6.2352,6.2352,6.2352,6.2352,0.0,6.1557,6.1374,6.108,5.9783,5.9306,5.9049,5.84,5.8107,5.7997,5.7997,5.7997,5.7997,5.7997,5.7997,5.7997,5.7997,5.774,5.7299,5.6675,5.6444,5.5868,5.4583,5.4252,5.3849,5.3031,5.2957,5.1977,4.9564,4.9344,4.8022,4.4883,4.4473,4.4254,4.4107,4.4611,4.5013,4.5269,4.5269,4.5672,4.6468,4.6598,4.7049,4.7819,4.6786,4.6382,0.0,0.0,0.0,0.0,0.0,0.0,0.0,0.0,0.0,0.0,0.0,6.1251,6.4127,0.0,7.0697,7.4368,7.6974,7.8846,7.969,8.0828,8.0828,7.8809,7.8919,7.9029,7.8589,7.9323,7.947,7.8626,7.969,7.9874,7.8626,7.8589,7.8405,7.7949,7.7546,7.7289,7.7289,7.7289,7.7289,7.7289,7.7289,7.7289,7.7289,7.6885,7.6497,7.6056,7.5249,7.4441,7.3648,7.2826,7.2041,7.1233,7.0426,6.9376,6.8238,6.7834,6.6953,6.5852,6.5448,6.4751,6.3967,6.3576,6.3466,6.3392,6.2939,6.2793,6.2719,6.2316,6.2218,6.2034,6.1215,6.0407,5.971,5.9318,5.8584,5.7997,5.7997,5.7997,5.7997,5.7997,5.7997,5.7997,5.7997,5.7997,5.774,5.6921,5.6811,5.6223,5.462,5.4399,5.4106,5.3287,5.3214,5.2564,5.0922,5.0051,4.8719,4.6645,4.6131,4.5902,4.5902,4.6278,4.6498,4.6498,4.6911,4.7498,4.8343,4.8343,4.8746,4.9554,4.9554,4.9114,0.0,0.0,0.0,0.0,0.0,0.0,0.0,5.6198,5.8302,6.0382,6.3123,6.6463,7.0697,7.2826,7.5102,7.8699,8.0534,8.1489,8.1489,8.272,8.292,8.0954,8.0587,8.044,8.0293,8.0975,8.1085,8.011,8.0791,8.0791,7.9853,7.9029,7.8589,7.8589,7.7766,7.7289,7.7289,7.7472,7.7472,7.7289,7.7472,7.7472,7.7289,7.7289,7.6959,7.6313,7.6166,7.5285,7.3854,7.3046,7.2349,7.1747,7.16,7.0646,6.9325,6.9009,6.7981,6.6696,6.6549,6.5962,6.5191,6.4347,6.4103,6.3956,6.305,6.2793,6.2793,6.2793,6.2793,6.2756,6.2609,6.1582,6.0566,6.0224,5.9171,5.818,5.8033,5.7997,5.7997,5.7997,5.7997,5.7997,5.7997,5.7997,5.7776,5.7152,5.7031,5.6528,5.506,5.473,5.4326,5.3508,5.3287,5.2847,5.206,5.0665,4.9527,4.881,4.8186,4.781,4.781,4.781,4.781,4.781,4.8443,4.9224,5.0088,5.0088,5.0555,5.1536,5.216,5.1583,4.8196,4.9324,5.1793,5.6014,5.6638,5.8327,0.0,6.6549,6.6329,7.011,7.2298,7.4133,7.6114,7.7855,7.9596,8.1489,8.2553,8.3124,8.3124,8.3911,8.4389,8.4095,8.3434,8.2737,8.2003,8.2663,8.25,8.0975,8.1599,8.1395,7.989,7.9029,7.8589,7.8589,7.7766,7.7289,7.7289,7.806,7.806,7.7326,7.8075,7.8075,7.7289,7.7289,7.7252,7.7142,7.6423,7.5579,7.4683,7.3891,7.3487,7.334,7.2642,7.1821,7.0866,6.9435,6.8348,6.748,6.6733,6.5962,6.5191,6.4347,6.4103,6.3956,6.305,6.2793,6.2793,6.2793,6.2793,6.2646,6.1924,6.1594,6.1117,5.9673,5.9196,5.8866,5.8143,5.7997,5.7997,5.7997,5.7997,5.7997,5.7997,5.7997,5.796,5.7886,5.7886,5.7556,5.6627,5.5904,5.5144,5.4363,5.3618,5.2847,5.206,5.1169,5.0618,5.0545,5.0435,5.0398,5.0398,5.0398,5.0398,5.0398,5.0472,5.0912,5.173,5.173,5.2501,5.3995,5.4106,5.3261,5.3665,5.4473,5.5794,5.9245,6.1263,6.3686,6.8348,6.9706,7.0991,7.4573,7.6607,7.8405,8.0482,8.1819,8.2957,8.4095,8.4976,8.551,8.551,8.5766,8.5637,8.4719,8.4719,8.4499,8.3654,8.4315,8.4315,8.3177,8.3398,8.3104,8.1966,8.0681,7.9764,7.9302,7.8919,7.8516,7.8075,7.8883,7.8883,7.8075,7.8442,7.8148,7.7289,7.7289,7.7289,7.7252,7.5931,7.5197,7.4793,7.3523,7.301,7.2973,7.2642,7.2312,7.1784,7.0183,6.9082,6.8274,6.7467,6.699,6.6549,6.5742,6.5485,6.5338,6.4517,6.393,6.3576,6.3576,6.3196,6.2719,6.2389,6.1961,6.13,6.015,5.9526,5.8976,5.818,5.7997,5.7997,5.7997,5.7997,5.7997,5.7997,5.7997,5.7997,5.7997,5.7997,5.7703,5.6884,5.6528,5.5978,5.517,5.4803,5.4252,5.3482,5.3529,5.3188,5.226,5.2186,5.2003,5.1499,5.1499,5.1499,5.1499,5.2417,5.3041,5.3408,5.3859,5.4447,5.5108,5.5108,5.474,5.7336,5.8327,5.9391,6.2524,6.5558,6.8421,7.0683,7.2753,7.5102,7.8316,7.9947,8.1452,8.3654,8.4535,8.527,8.6297,8.6775,8.7088,8.7325,8.6775,8.593,8.4756,8.4719,8.4756,8.4609,8.5306,8.5563,8.4976,8.4719,8.4242,8.3454,8.1876,8.0718,8.0131,7.9926,7.9522,7.8919,7.9743,7.9617,7.8589,7.8809,7.8369,7.7289,7.7289,7.7289,7.7215,7.5821,7.5344,7.5417,7.3597,7.2973,7.312,7.2679,7.2496,7.2349,7.0954,6.9926,6.9119,6.8311,6.7884,6.759,6.6769,6.6512,6.6292,6.5301,6.4714,6.4383,6.4176,6.3649,6.316,6.316,6.2548,6.1741,6.0933,6.0309,5.9563,5.8547,5.8327,5.8253,5.8033,5.7997,5.7997,5.7997,5.7997,5.7997,5.7997,5.7997,5.7776,5.7226,5.6921,5.6492,5.5695,5.5585,5.5365,5.4766,5.5254,5.5108,5.3948,5.3849,5.3592,5.3015,5.2978,5.2978,5.2978,5.4142,5.473,5.473,5.5328,5.5695,5.5941,5.5941,5.5941,5.7336,5.9134,6.1484,6.6305,6.9339,7.2188,7.6151,7.7766,7.9323,8.2537,8.3271,8.3785,8.5416,8.5764,8.6261,8.7876,8.7509,8.7288,8.8059,8.6151,8.4646,8.4609,8.3251,8.292,8.4462,8.5306,8.5783,8.5764,8.5049,8.4242,8.3454,8.1876,8.1012,8.0975,8.0204,7.9779,7.9779,8.0571,8.0167,7.8589,7.9412,7.8883,7.7289,7.7289,7.7289,7.7252,7.6408,7.6533,7.7032,7.4661,7.4111,7.4683,7.312,7.2496,7.2422,7.1564,7.077,6.9963,6.9155,6.8348,6.759,6.6769,6.6512,6.6182,6.4604,6.4677,6.5105,6.4323,6.4066,6.4066,6.4066,6.3429,6.2572,6.1741,6.152,6.108,5.9526,5.9159,5.8939,5.8143,5.7997,5.7997,5.7997,5.7997,5.7997,5.7997,5.7997,5.7997,5.796,5.7299,5.6492,5.5695,5.5585,5.5585,5.5585,5.5585,5.5585,5.5548,5.5548,5.5511,5.5475,5.5475,5.5475,5.5475,5.5548,5.5548,5.5548,5.5585,5.5978,5.6737,5.6737,5.6737,6.037,6.3172,6.6269,7.0601,7.3083,7.5432,7.894,8.0388,8.1452,8.3051,8.2994,8.2774,8.3287,8.3838,8.4572,8.5637,8.6481,8.7088,8.7362,8.6701,8.5196,8.2517,8.27,8.259,8.1525,8.3104,8.4866,8.6481,8.538,8.4719,8.4976,8.3471,8.2353,8.1819,8.1525,8.1122,8.0608,8.1379,8.0975,7.9412,7.8552,7.7839,7.7289,7.7289,7.7289,7.7252,7.6445,7.624,7.6423,7.505,7.4331,7.4037,7.3487,7.2973,7.2422,7.16,7.0793,6.9963,6.9192,6.8385,6.7664,6.737,6.7297,6.7187,6.6636,6.6292,6.6035,6.5778,6.4897,6.4103,6.4103,6.3466,6.2609,6.1777,6.1606,6.1153,5.9563,5.9196,5.8976,5.8143,5.7997,5.7997,5.7997,5.7997,5.7997,5.7997,5.7997,5.7997,5.7997,5.7776,5.7483,5.7226,5.7189,5.6969,5.6455,5.6895,5.676,5.5658,5.6088,5.6161,5.5622,5.5585,5.5585,5.5585,5.6124,5.6418,5.6418,5.6932,5.7336,5.7593,5.7593,5.7593,6.3576,6.6916,7.0293,7.4037,7.6203,7.8185,8.1195,8.2039,8.2517,8.3618,8.2737,8.1599,8.1012,8.1085,8.1583,8.27,8.3765,8.4939,8.6371,8.5343,8.3801,8.2076,8.2003,8.1746,8.0771,8.1819,8.3418,8.5546,8.5013,8.4829,8.5343,8.4646,8.3875,8.3067,8.2774,8.237,8.184,8.2076,8.1379,7.9779,7.8096,7.7289,7.7289,7.7289,7.7289,7.7252,7.6445,7.6276,7.6445,7.5344,7.4588,7.4111,7.3817,7.3193,7.2459,7.1931,7.1027,6.9963,6.9192,6.8385,6.77,6.77,6.77,6.7664,6.737,6.7113,6.688,6.6586,6.5558,6.453,6.453,6.3686,6.2683,6.2144,6.2034,6.1667,6.0334,6.004,5.9832,5.9024,5.8841,5.8841,5.8841,5.8621,5.8327,5.8033,5.7997,5.7997,5.7997,5.7997,5.7997,5.7997,5.7997,5.7776,5.7262,5.7703,5.7567,5.6539,5.6932,5.7005,5.6466,5.6466,5.6466,5.6466,5.6969,5.7226,5.7226,5.774,5.7997,5.7997,5.7997,5.7997,6.6893,7.033,7.3509,7.6702,7.8699,8.0477,8.2757,8.27,8.2553,8.3948,8.2296,8.0131,7.8479,7.7582,7.7656,7.9339,7.9816,8.1358,8.525,8.257,8.0975,8.3124,8.1415,8.0624,8.2039,8.1525,8.1693,8.3271,8.4115,8.4609,8.4719,8.538,8.538,8.4609,8.3785,8.3344,8.3344,8.2517,8.1305,7.9779,7.8096,7.7289,7.7289,7.7289,7.7289,7.7252,7.6497,7.6592,7.7179,7.5601,7.494,7.483,7.4001,7.3193,7.2496,7.2459,7.1468,7.0036,6.9192,6.8385,6.77,6.77,6.77,6.7554,6.6769,6.71,6.7554,6.6769,6.5999,6.5362,6.5362,6.415,6.2903,6.2866,6.2866,6.2609,6.1777,6.1606,6.1374,6.0566,6.0419,6.0419,6.0419,5.9783,5.9013,5.8253,5.8107,5.807,5.7997,5.7997,5.7997,5.7997,5.7997,5.7997,5.7997,5.7997,5.7997,5.7997,5.7997,5.7997,5.7997,5.7997,5.7997,5.7997,5.7997,5.7997,5.7997,5.7997,5.7997,5.7997,5.7997,5.7997,7.1078,7.4074,7.6702,7.9381,8.0388,8.0865,8.1489,8.1452,8.0901,7.9454,7.7231,7.4882,7.2679,7.356,7.5139,7.679,8.0094,8.3251,8.549,8.5416,8.4719,8.3528,8.3398,8.3067,8.226,8.2003,8.2296,8.3308,8.3601,8.4482,8.628,8.5453,8.4792,8.4609,8.3251,8.2517,8.2517,8.1085,8.022,7.9779,7.8096,7.7289,7.7289,7.7289,7.7289,7.7289,7.7069,7.7105,7.7215,7.6203,7.5432,7.483,7.4001,7.3193,7.2422,7.1821,7.1344,7.0793,6.9398,6.8385,6.77,6.77,6.77,6.7664,6.748,6.7554,6.7664,6.7444,6.6806,6.6182,6.6182,6.5435,6.4517,6.3906,6.3759,6.3356,6.1887,6.1606,6.1374,6.0566,6.0419,6.0419,6.0419,6.0236,6.0003,5.9832,5.9795,5.9355,5.8143,5.7997,5.7997,5.7997,5.7997,5.7997,5.7997,5.7997,5.7997,5.7997,5.7997,5.7997,5.7997,5.7997,5.7997,5.7997,5.7997,5.7997,5.7997,5.7997,5.7997,5.7997,5.7997,5.7997,7.4249,7.687,7.8918,7.9844,8.0081,7.9879,7.8896,7.8413,7.7433,7.4682,7.2496,7.0344,6.7907,6.9463,7.1688,7.367,7.8112,8.237,8.538,8.5894,8.584,8.5563,8.5583,8.5159,8.3911,8.3765,8.3948,8.4425,8.4132,8.4682,8.6371,8.5967,8.5637,8.5637,8.4095,8.2737,8.1672,8.044,7.9633,7.9265,7.7913,7.7289,7.7289,7.7289,7.7289,7.7289,7.7289,7.7105,7.6738,7.6276,7.5432,7.4331,7.3891,7.3193,7.2459,7.1967,7.138,7.066,6.9743,6.8678,6.77,6.77,6.77,6.77,6.77,6.77,6.77,6.77,6.71,6.6512,6.6512,6.5888,6.5178,6.4714,6.464,6.4383,6.3429,6.2952,6.2438,6.1618,6.1435,6.1325,6.1006,6.0933,6.0823,6.0456,6.0419,6.0089,5.9171,5.9061,5.9061,5.9061,5.9061,5.9061,5.9061,5.8731,5.8694,5.9024,5.8731,5.8547,5.8547,5.8547,5.8547,5.8547,5.8547,5.8547,5.8547,5.8547,5.8364,5.7997,5.7997,5.7997,7.6901,7.8945,8.0194,7.9265,7.8963,7.8212,7.5924,7.4636,7.3112,7.0088,6.8178,6.6379,6.4176,6.5755,6.8311,7.116,7.5469,8.0241,8.538,8.5416,8.5783,8.8096,8.7766,8.6995,8.6187,8.6224,8.6187,8.5967,8.5416,8.5343,8.593,8.6518,8.6721,8.6537,8.5159,8.3324,8.1012,8.0204,7.9412,7.8589,7.7729,7.7289,7.7289,7.7289,7.7289,7.7289,7.7289,7.6885,7.624,7.613,7.5212,7.3854,7.3744,7.3193,7.2496,7.2496,7.1615,7.0403,7.0293,6.9339,6.8141,6.7811,6.77,6.77,6.77,6.77,6.77,6.77,6.7187,6.6659,6.6659,6.6145,6.5582,6.5472,6.5472,6.5435,6.5325,6.4751,6.4053,6.327,6.3123,6.2903,6.2218,6.2071,6.1851,6.1153,6.1031,6.1006,6.0896,6.0603,6.0419,6.0419,6.0419,6.0419,6.0419,5.9747,5.9673,6.037,5.9747,5.938,5.938,5.938,5.938,5.938,5.938,5.9306,5.9196,5.9196,5.8792,5.7997,5.7997,5.7997,8.0045,8.0486,8.004,7.9919,7.8928,7.7253,7.4379,7.2149,6.9854,6.6778,6.4811,6.3319,6.2218,6.4053,6.7393,7.2459,7.5674,7.9931,8.6811,8.7105,8.7234,8.8996,8.9069,8.8666,8.7876,8.839,8.8225,8.6885,8.7288,8.7362,8.6811,8.6297,8.5416,8.4078,8.3748,8.2757,8.1012,8.0204,7.9412,7.8589,7.7729,7.7289,7.7289,7.7289,7.7289,7.7289,7.7289,7.7215,7.7032,7.6387,7.5542,7.461,7.3964,7.3193,7.2496,7.2496,7.2312,7.1982,7.1307,7.0903,7.0353,6.8361,6.77,6.77,6.77,6.77,6.77,6.77,6.759,6.748,6.748,6.7407,6.71,6.6439,6.6292,6.6109,6.5435,6.5178,6.5031,6.4884,6.4884,6.4811,6.4664,6.4664,6.4591,6.4481,6.4444,6.42,6.3539,6.1667,6.0419,6.0419,6.0419,6.0419,6.0419,6.026,6.026,6.037,6.026,6.0187,6.0187,6.0187,6.0187,6.0187,6.0187,5.9857,5.9196,5.9196,5.8792,5.7997,5.7997,5.7997,8.1344,8.1216,8.0155,7.923,7.756,7.5067,7.093,6.8522,6.6099,6.2296,6.1178,6.0664,5.9869,6.2071,6.5288,6.9302,7.2679,7.7215,8.4095,8.5453,8.6811,8.9657,9.0391,9.0335,8.9528,8.9821,8.9363,8.7766,8.7986,8.7839,8.7014,8.6224,8.5233,8.4058,8.3601,8.261,8.1012,8.0204,7.9412,7.8589,7.7729,7.7289,7.7289,7.7289,7.7289,7.7289,7.7289,7.7069,7.6628,7.6276,7.5616,7.4867,7.4478,7.4111,7.3692,7.3266,7.2863,7.2386,7.1564,7.1013,7.0477,6.9353,6.8949,6.8949,6.8949,6.8641,6.8311,6.8311,6.8031,6.77,6.77,6.77,6.759,6.7223,6.71,6.688,6.6109,6.5925,6.5802,6.5362,6.5288,6.5288,6.5288,6.5288,6.5288,6.5288,6.5288,6.5141,6.4787,6.3686,6.2609,6.1728,6.1655,6.1655,6.1655,6.1263,6.119,6.1618,6.1263,6.1006,6.1006,6.1006,6.1006,6.1006,6.1006,6.0823,6.0456,6.0456,6.0052,5.9245,5.9245,5.9245,8.1507,8.1335,8.0194,7.8448,7.6048,7.2846,6.7992,6.537,6.2848,5.8848,5.851,5.8792,5.8327,6.0334,6.3086,6.6219,6.9412,7.3927,8.0975,8.3324,8.5857,8.984,9.1216,9.1473,9.0702,9.0592,8.9931,8.8316,8.8059,8.7655,8.7014,8.6224,8.5416,8.4646,8.3821,8.261,8.1012,8.0204,7.9412,7.8589,7.7729,7.7289,7.7289,7.7289,7.7289,7.7289,7.7289,7.6922,7.635,7.635,7.5873,7.516,7.516,7.505,7.4793,7.4001,7.3303,7.2642,7.1821,7.1138,7.0624,7.0624,7.0367,7.011,7.011,6.9669,6.9155,6.9155,6.8715,6.8214,6.8214,6.8214,6.8178,6.7994,6.7958,6.7737,6.6916,6.6769,6.6623,6.6169,6.6059,6.6132,6.6292,6.6169,6.6059,6.6059,6.5912,6.5742,6.5582,6.5545,6.4995,6.349,6.3196,6.3086,6.3086,6.2511,6.2328,6.2756,6.2365,6.2034,6.1851,6.1851,6.1851,6.1851,6.1851,6.1777,6.1606,6.1606,6.119,6.0419,6.0419,6.0419,8.052,8.0604,7.9885,7.8397,7.527,7.1608,6.7747,6.4155,6.0909,5.8495,5.807,5.8327,5.8976,5.9343,6.1288,6.6709,6.7921,7.1188,7.991,8.25,8.4996,8.9033,9.0886,9.1473,9.0702,9.0592,8.9931,8.8316,8.7509,8.7088,8.6978,8.6224,8.5416,8.4646,8.3821,8.261,8.1012,8.0204,7.9412,7.8589,7.7729,7.7289,7.7289,7.7289,7.7289,7.7289,7.7289,7.7252,7.7179,7.7179,7.6702,7.5983,7.5983,7.5542,7.4793,7.4001,7.3648,7.345,7.2679,7.2349,7.2275,7.2275,7.1284,7.011,7.011,7.0036,7.0,7.0,6.9926,6.9889,6.9889,6.9889,6.9706,6.8972,6.8788,6.8568,6.7774,6.759,6.776,6.8458,6.8554,6.8788,6.9522,6.9045,6.8554,6.8554,6.7944,6.7223,6.6476,6.6402,6.6035,6.5141,6.442,6.3992,6.3992,6.3919,6.3576,6.2866,6.3466,6.3503,6.2719,6.2683,6.2683,6.2683,6.2683,6.2328,6.1606,6.1606,6.119,6.0419,6.0419,6.0419,7.9334,8.0162,7.9837,7.8348,7.5569,7.2226,6.8473,6.4746,6.1566,5.9798,5.8657,5.8253,5.9049,5.8792,5.9538,6.2768,6.3319,6.5925,7.3377,7.5836,7.905,8.5069,8.7638,8.9381,9.0482,9.0592,8.9931,8.8316,8.7472,8.6811,8.6297,8.5527,8.4939,8.4609,8.3361,8.237,8.1746,8.044,7.9633,7.9302,7.7949,7.7289,7.7289,7.7289,7.7289,7.7289,7.7289,7.7289,7.7289,7.7289,7.7105,7.6812,7.6812,7.6628,7.6261,7.5432,7.4845,7.4331,7.3487,7.2899,7.2496,7.2496,7.2055,7.1541,7.1541,7.1211,7.083,7.083,7.0477,7.011,7.011,7.011,7.0,6.9706,6.9633,6.9522,6.9192,6.9132,6.9229,6.9559,6.9633,6.9559,6.9412,6.9119,6.8752,6.8238,6.7921,6.759,6.726,6.7223,6.7113,6.6769,6.5595,6.4824,6.4824,6.4824,6.4664,6.4334,6.464,6.4457,6.3613,6.3576,6.3356,6.2793,6.2793,6.2646,6.2328,6.2328,6.2169,6.1838,6.1838,6.1838,7.7226,7.902,7.9532,7.8044,7.515,7.1801,6.8528,6.456,6.1349,6.0542,5.9318,5.8547,5.9086,5.8756,5.8804,6.0199,6.0603,6.2952,6.9229,7.1505,7.4882,8.1216,8.3895,8.617,8.861,8.9491,8.9307,8.7949,8.7308,8.6664,8.582,8.5049,8.4499,8.4242,8.292,8.2186,8.2186,8.0587,7.9816,7.9779,7.8096,7.7289,7.7289,7.7289,7.7289,7.7289,7.7289,7.7289,7.7289,7.7289,7.7289,7.7289,7.7289,7.7289,7.7215,7.6387,7.5726,7.5102,7.4037,7.334,7.2826,7.2569,7.2496,7.2496,7.2496,7.2078,7.1637,7.1637,7.1248,7.0807,7.0807,7.0807,7.0734,7.0513,7.044,7.0403,7.0146,7.011,7.0183,7.0403,7.044,7.0367,7.0036,6.9765,6.9398,6.8862,6.8582,6.8398,6.8398,6.8398,6.8398,6.8398,6.7173,6.6169,6.5705,6.5655,6.5545,6.5325,6.5508,6.5301,6.4494,6.4457,6.4163,6.3563,6.3527,6.3417,6.3196,6.3417,6.3417,6.316,6.316,6.305,7.3872,7.6826,7.8788,7.7266,7.3567,6.9663,6.7508,6.2915,5.9357,6.0236,5.9747,5.9184,5.9196,5.9184,5.9453,6.026,6.108,6.3589,6.9302,7.1505,7.4037,7.8148,8.0094,8.2003,8.4425,8.6811,8.7876,8.7051,8.6978,8.6664,8.582,8.5049,8.4242,8.3454,8.2627,8.2186,8.2186,8.0587,7.9816,7.9779,7.8096,7.7289,7.7289,7.7289,7.7289,7.7289,7.7289,7.7289,7.7289,7.7289,7.7289,7.7289,7.7289,7.7289,7.7215,7.6387,7.6093,7.5873,7.4258,7.367,7.3575,7.2753,7.2496,7.2496,7.2496,7.2496,7.2496,7.2496,7.2496,7.2496,7.2496,7.2496,7.2275,7.149,7.1307,7.105,7.0257,7.011,7.033,7.1123,7.1307,7.1527,7.2349,7.1784,7.127,7.127,7.0587,7.0073,7.0073,7.0073,7.0073,7.0073,6.9339,6.8238,6.6623,6.6476,6.6145,6.5362,6.6035,6.6145,6.5325,6.5288,6.5288,6.5251,6.5251,6.4897,6.4103,6.4897,6.4861,6.4103,6.4103,6.3613,6.7387,6.9992,7.1921,7.0398,6.8253,6.6075,6.4316,6.1879,6.0079,6.0392,5.9347,5.8731,5.982,5.9123,5.9159,6.1655,6.2242,6.3833,6.7884,7.077,7.3817,7.7289,8.259,8.6224,8.6995,8.7766,8.7876,8.7051,8.6481,8.582,8.5013,8.4242,8.3638,8.3418,8.2627,8.1929,8.1379,8.033,7.9522,7.8956,7.7839,7.7289,7.7289,7.7289,7.7289,7.7289,7.7289,7.7289,7.7289,7.7289,7.7289,7.7289,7.7289,7.7289,7.7289,7.6995,7.6555,7.5946,7.4882,7.4147,7.356,7.2753,7.2496,7.2496,7.2496,7.2496,7.2496,7.2496,7.2496,7.2496,7.2496,7.2496,7.2459,7.2202,7.2129,7.2055,7.1798,7.1725,7.1835,7.2092,7.2129,7.2041,7.1711,7.1454,7.1123,7.055,7.0257,7.011,7.011,7.011,7.011,7.011,6.9853,6.9302,6.8238,6.765,6.7223,6.6966,6.7187,6.6966,6.6145,6.6109,6.5852,6.5288,6.5288,6.5178,6.4934,6.5178,6.5178,6.4934,6.4934,6.4494,6.3024,6.573,6.7523,6.6271,6.4721,6.3174,6.1932,6.0345,5.9241,5.9894,5.9211,5.8767,5.9747,5.9123,5.9196,6.1508,6.2132,6.3723,6.7614,7.0403,7.3472,7.7326,8.2884,8.6407,8.6407,8.7509,8.7729,8.6628,8.6077,8.5306,8.4205,8.3675,8.3271,8.2957,8.2443,8.1819,8.1012,8.0204,7.9412,7.8589,7.7729,7.7289,7.7289,7.7289,7.7289,7.7289,7.7289,7.7289,0.0,7.7289,7.7289,7.7289,7.7289,7.7289,7.7289,7.7289,7.6995,7.6371,7.527,7.4588,7.3964,7.2863,7.2496,7.2496,7.2496,7.2496,7.2496,7.2496,7.2496,7.2496,7.2496,7.2496,7.2496,7.2496,7.2496,7.2496,7.2496,7.2496,7.2496,7.2496,7.2496,7.2349,7.1821,7.1747,7.1564,7.1064,7.0991,7.0991,7.0991,7.0991,7.0991,7.0991,7.0734,7.0367,6.9839,6.9082,6.8471,6.8164,6.8128,6.7797,6.7003,6.6953,6.6733,6.6219,6.6219,6.6072,6.5742,6.5742,6.556,6.5218,6.5583,6.4922,0.0,6.3213,6.4769,6.4072,6.2347,6.0664,6.0099,5.8339,0.0,5.8898,5.9137,5.91,5.9258,5.9196,5.9416,6.0407,6.119,6.3356,6.8164,7.0536,7.3582,7.8369,8.1746,8.3601,8.3491,8.6297,8.7472,8.5911,8.5764,8.5049,8.3491,8.3344,8.2994,8.2223,8.215,8.1746,8.0938,8.0167,7.9376,7.8516,7.7693,7.7289,7.7289,7.7289,7.7289,7.7289,7.7289,7.7289,7.7289,7.7289,7.7289,7.7289,7.7289,7.7289,7.7289,7.7289,7.7289,7.7069,7.5527,7.4977,7.472,7.312,7.2569,7.2496,7.2569,7.2569,7.2496,7.2496,7.2496,7.2496,7.2496,7.2496,7.2496,7.2496,7.2496,7.2496,7.2496,7.2496,7.2496,7.2496,7.2569,7.2606,7.2606,7.2642,7.2679,7.2679,7.2606,7.2606,7.2606,7.2532,7.2496,7.2496,7.1857,7.1454,7.138,7.0587,6.9779,6.9045,6.8921,6.8568,6.7811,6.7737,6.77,6.77,6.77,6.7333,6.6586,6.6586,6.614,6.5286,6.6073,6.5079,5.3315,0.0,5.7189,5.6968,5.6562,5.6266,0.0,5.6381,5.643,5.8044,5.7885,5.7993,5.9773,5.9098,5.9171,6.1802,6.2389,6.3796,6.7467,7.312,7.8222,8.184,8.4555,8.5656,8.4462,8.6114,8.6885,8.5857,8.5233,8.4462,8.3454,8.281,8.2406,8.2186,8.1599,8.0901,8.011,7.989,7.9066,7.7582,7.7399,7.7289,7.7289,7.7289,7.7289,7.7289,7.7289,7.7289,7.7289,7.7289,7.7289,7.7289,7.7289,7.7289,7.7289,7.7289,7.7289,7.7179,7.6166,7.5836,7.5542,7.3927,7.301,7.2606,7.323,7.2973,7.2496,7.2496,7.2496,7.2496,7.2496,7.2496,7.2496,7.2496,7.2496,7.2496,7.2496,7.2496,7.2496,7.2496,7.301,7.3413,7.3413,7.3927,7.4353,7.4353,7.3817,7.3413,7.3413,7.2899,7.2496,7.2496,7.2899,7.2899,7.2275,7.0917,7.0,6.9816,6.9229,6.8825,6.8641,6.8017,6.77,6.77,6.77,6.7627,6.7407,6.7407,6.7313,6.7062,6.6613,6.5722,5.0507,5.2097,5.3551,5.3551,5.3822,5.4296,5.5025,5.546,5.6056,5.7302,5.7201,5.7406,5.9016,5.8604,5.8981,6.1801,6.3196,6.5729,7.0844,7.5616,7.9947,8.3528,8.5453,8.6261,8.5747,8.65,8.6518,8.5343,8.4499,8.3544,8.2353,8.2223,8.1856,8.1138,8.1379,8.0975,7.9816,7.9449,7.8589,7.7289,7.7289,7.7289,7.7289,7.7289,7.7289,7.7289,7.7289,7.7289,7.7289,7.7289,7.7289,7.7289,7.7289,7.7289,7.7289,7.7289,7.7289,7.7179,7.6387,7.5616,7.4845,7.3964,7.3156,7.2569,7.301,7.2863,7.2569,7.2936,7.2789,7.2496,7.2496,7.2496,7.2496,7.2496,7.2496,7.2496,7.2496,7.2789,7.3046,7.3046,7.3707,7.4258,7.4258,7.461,7.4903,7.4903,7.4221,7.3817,7.4184,7.356,7.3193,7.3546,7.4001,7.3927,7.312,7.2239,7.1431,7.0697,7.0243,6.9655,6.8921,6.8495,6.8091,6.77,6.77,6.77,6.77,6.77,6.7286,6.6472,6.5982,6.51,5.0218,5.1616,5.271,5.2264,5.2841,5.3683,5.4418,5.5088,5.5822,5.6874,5.6976,5.7188,5.8174,5.8409,5.9239,6.1593,6.4273,6.8495,7.5506,7.7928,8.0351,8.4168,8.5416,8.6151,8.6591,8.6721,8.6187,8.4719,8.3765,8.2574,8.1085,8.1525,8.1211,7.9853,8.0975,8.0975,7.9633,7.9082,7.8295,7.7289,7.7289,7.7289,7.7289,7.7289,7.7289,7.7289,7.7289,7.7289,7.7289,7.7289,7.7289,7.7289,7.7289,7.7289,7.7289,7.7289,7.7289,7.7179,7.6387,7.5139,7.3854,7.3744,7.3156,7.2532,7.2642,7.2606,7.2679,7.345,7.312,7.2496,7.2496,7.2496,7.2496,7.2496,7.2606,7.2679,7.2679,7.3303,7.3891,7.3891,7.4551,7.5087,7.5087,7.5197,7.5234,7.5087,7.4515,7.4258,7.483,7.4294,7.4147,7.483,7.5014,7.4698,7.3795,7.3817,7.3193,7.1564,7.138,7.0573,6.8972,6.8885,6.8531,6.7737,6.77,6.77,6.77,6.77,6.6845,6.5196,6.5065,6.4131,5.1733,5.3591,5.4638,5.2043,5.2418,5.3677,5.4419,5.4703,5.535,5.7425,5.7339,5.755,5.9639,6.0042,6.086,6.3306,6.688,7.1431,7.7378,7.9617,8.1636,8.4278,8.593,8.6334,8.5086,8.5563,8.56,8.4682,8.3214,8.1966,8.1048,8.0461,8.0073,7.9816,7.936,7.9029,7.8772,7.9339,7.8846,7.7289,7.7289,7.7289,7.7289,7.7289,7.7289,7.7289,7.7289,7.7289,7.7289,7.7289,7.7289,7.7289,7.7289,7.7289,7.7289,7.7289,7.7289,7.7179,7.6387,7.5506,7.461,7.3927,7.3156,7.2642,7.3303,7.3046,7.2679,7.345,7.312,7.2496,7.2496,7.2496,7.2496,7.2496,7.301,7.3523,7.3523,7.4147,7.472,7.472,7.5359,7.5909,7.5909,7.6481,7.6702,7.6019,7.5799,7.5542,7.4977,7.4793,7.4757,7.4903,7.5506,7.5322,7.3817,7.4331,7.4023,7.2422,7.1674,7.0573,6.8972,6.8885,6.8531,6.7737,6.77,6.77,6.77,6.77,6.7188,6.6171,6.5378,6.4478,5.1002,5.2728,5.4183,5.2782,5.4255,5.6023,5.5851,5.5823,5.6366,5.8263,5.8068,5.8396,6.1178,6.2088,6.3707,6.7753,7.1044,7.4079,7.7018,7.8938,8.0974,8.3391,8.4468,8.5289,8.584,8.5049,8.4352,8.3985,8.248,8.1012,7.9764,7.9779,7.936,7.8479,7.8956,7.8809,7.7913,7.8736,7.8516,7.7289,7.7289,7.7289,7.7289,7.7289,7.7289,7.7289,7.7289,7.7289,7.7289,7.7289,7.7289,7.7289,7.7289,7.7289,7.7289,7.7289,7.7289,7.7179,7.6387,7.5873,7.5359,7.4111,7.345,7.312,7.3083,7.2789,7.2569,7.2936,7.2789,7.2496,7.2496,7.2826,7.3156,7.3156,7.3744,7.4368,7.4368,7.4992,7.5542,7.5542,7.6188,7.6738,7.6738,7.7069,7.7179,7.6812,7.6387,7.613,7.6188,7.5821,7.5711,7.6151,7.6518,7.6276,7.5102,7.4955,7.4206,7.2606,7.1747,7.0977,7.0243,6.9779,6.9376,6.9022,6.9022,6.9022,6.9022,6.9022,6.8353,6.7053,6.6475,6.532,5.1008,5.2557,5.4155,5.4015,5.5832,5.7648,5.7755,5.7755,5.821,5.9929,5.9863,6.022,6.2608,6.4333,6.6884,7.1333,7.4151,7.6137,7.7138,7.87,8.0686,8.3182,8.3519,8.4391,8.652,8.4479,8.3054,8.3108,8.1403,7.9832,7.8647,7.8782,7.8384,7.731,7.8327,7.8363,7.7326,7.7949,7.7949,7.7289,7.7289,7.7289,7.7289,7.7289,7.7289,7.7289,7.7289,7.7289,7.7289,7.7289,7.7289,7.7289,7.7289,7.7289,7.7289,7.7289,7.7289,7.7179,7.6387,7.6093,7.5873,7.4441,7.3854,7.3611,7.2973,7.2642,7.2532,7.2716,7.2789,7.2753,7.2569,7.323,7.3927,7.3744,7.4441,7.516,7.516,7.5821,7.6387,7.6387,7.6885,7.7289,7.7289,7.7289,7.7252,7.7032,7.6628,7.6533,7.6959,7.6628,7.6628,7.7252,7.7289,7.6959,7.6166,7.5212,7.4096,7.2863,7.2041,7.149,7.1307,7.0697,7.0293,7.011,7.011,7.011,7.011,7.011,6.9339,6.7863,6.7473,6.6216,5.3693,5.5294,5.6392,5.5646,5.5669,5.6659,5.9651,6.0291,6.0837,6.3019,6.3575,6.3672,6.3711,6.6767,6.9881,7.164,7.4414,7.717,7.9524,8.052,8.2069,8.4802,8.4505,8.4536,8.5788,8.35,8.2013,8.2284,7.9866,7.8475,7.8579,7.6994,7.6439,7.7258,7.6488,7.6455,7.7273,7.7362,7.7362,7.7289,7.7289,7.7289,7.7289,7.7289,7.7289,7.7289,7.7289,7.7289,7.7289,7.7289,7.7289,7.7289,7.7289,7.7289,7.7289,7.7289,7.7289,7.7179,7.6387,7.6093,7.5946,7.5087,7.4294,7.367,7.3634,7.3083,7.2679,7.3377,7.3597,7.345,7.2679,7.3656,7.461,7.3891,7.4882,7.6019,7.6019,7.6628,7.7215,7.7215,7.7252,7.7289,7.7289,7.7289,7.7032,7.6313,7.6775,7.6959,7.6276,7.6775,7.7252,7.7289,7.7289,7.6959,7.6166,7.4661,7.3744,7.3611,7.2863,7.2078,7.1344,7.1233,7.0866,7.011,7.011,7.011,7.011,7.011,6.9617,6.8693,6.7722,6.6778,5.2747,5.4447,5.6088,5.6308,5.7131,5.8466,6.0715,6.1573,6.2437,6.4246,6.5446,6.6255,6.6657,6.9556,7.1995,7.2407,7.5386,7.7802,7.8063,7.9734,8.1143,8.1747,8.1723,8.202,8.2951,8.1259,7.9875,7.9482,7.8053,7.6853,7.5961,7.5245,7.503,7.5422,7.5084,7.503,7.5422,7.5422,7.5754,7.6363,7.7003,7.6972,7.6379,7.7019,7.7289,7.7289,7.7289,7.7289,7.7289,7.7289,7.7289,7.7289,7.7289,7.7289,7.7289,7.7289,7.7289,7.7179,7.6387,7.6423,7.6628,7.5307,7.5028,7.5102,7.4588,7.4221,7.4059,7.4368,7.4808,7.4992,7.4206,7.4808,7.5579,7.5249,7.6056,7.6848,7.6848,7.7105,7.7289,7.7289,7.7289,7.7289,7.7289,7.7289,7.7215,7.6885,7.7105,7.7179,7.6885,7.7105,7.7289,7.7289,7.7289,7.6959,7.6166,7.5542,7.4992,7.4478,7.323,7.2349,7.2041,7.2041,7.1908,7.1615,7.1578,7.1578,7.1578,7.1578,7.1178,7.031,6.9292,6.8082,5.1987,5.3207,5.4683,5.5464,5.7102,5.9136,6.1706,6.289,6.4186,6.6767,6.728,6.7523,6.8257,7.0365,7.2042,7.2305,7.5279,7.7445,7.698,7.8637,7.9867,7.9727,7.9657,7.9928,8.0602,7.9129,7.7828,7.7107,7.6246,7.5305,7.4343,7.3986,7.3966,7.4272,7.3986,7.3966,7.4291,7.4291,7.4647,7.5352,7.633,7.6628,7.6297,7.6988,7.7289,7.7289,7.7289,7.7289,7.7289,7.7289,7.7289,7.7289,7.7289,7.7289,7.7289,7.7289,7.7289,7.7215,7.6665,7.6848,7.7142,7.6004,7.5858,7.6019,7.5469,7.5087,7.494,7.5197,7.5689,7.6019,7.5711,7.6078,7.6423,7.6166,7.6702,7.7289,7.7289,7.7289,7.7289,7.7289,7.7289,7.7289,7.7289,7.7289,7.7289,7.7289,7.7289,7.7289,7.7289,7.7289,7.7289,7.7289,7.7289,7.7069,7.6518,7.624,7.5873,7.5307,7.4001,7.3156,7.2899,7.2642,7.2496,7.2496,7.2496,7.2496,7.2496,7.2496,7.2224,7.1645,7.0301,6.9106,5.1966,5.2014,5.2269,5.3027,5.5089,5.8122,6.2792,6.4386,6.626,7.1017,6.9344,6.7261,6.8057,6.8799,6.9748,7.1095,7.3781,7.5946,7.6758,7.7502,7.8384,7.951,7.8965,7.8629,7.9014,7.73,7.5966,7.5507,7.4491,7.3993,7.4267,7.3332,7.3232,7.4234,7.3312,7.3252,7.4253,7.4253,7.4272,7.431,7.5316,7.6313,7.7273,7.731,7.7289,7.7289,7.7289,7.7289,7.7289,7.7289,7.7289,7.7289,7.7289,7.7289,7.7289,7.7289,7.7289,7.7289,7.7289,7.7289,7.7289,7.7289,7.6775,7.6093,7.6093,7.5542,7.5087,7.5909,7.6093,7.6276,7.7105,7.7289,7.7105,7.6313,7.6702,7.7289,7.7289,7.7289,7.7289,7.7289,7.7289,7.7289,7.7289,7.7289,7.7289,7.7289,7.7289,7.7289,7.7289,7.7289,7.7289,7.7289,7.7289,7.7289,7.7289,7.6555,7.6093,7.6093,7.5359,7.4551,7.3722,7.2936,7.2496,7.2496,7.2496,7.2496,7.2496,7.2496,7.2496,7.2452,7.0568,6.9708,5.0593,5.1021,5.2037,5.4305,5.7118,6.0513,6.5188,6.5977,6.69,7.0962,6.9575,6.7883,6.8667,6.945,7.0228,7.1153,7.2902,7.4424,7.5202,7.5473,7.5547,7.5355,7.5139,7.5003,7.5168,7.4649,7.4013,7.3373,7.3032,7.2659,7.2219,7.1917,7.1873,7.2185,7.1895,7.1895,7.2185,7.2206,7.288,7.4291,7.4591,7.5281,7.628,7.6988,7.7289,7.7289,7.7289,7.7289,7.7289,7.7289,7.7289,7.7289,7.7289,7.7289,7.7289,7.7289,7.6922,7.6533,7.7105,7.6922,7.6555,7.7105,7.7142,7.6922,7.6922,7.6775,7.6628,7.6885,7.6922,7.6995,7.7252,7.7289,7.7252,7.6995,7.7142,7.7289,7.7289,7.7289,7.7289,7.7289,7.7289,7.7289,7.7289,7.7289,7.7289,7.7289,7.7289,7.7289,7.7289,7.7289,7.7289,7.7289,7.7289,7.7289,7.7289,7.7069,7.6922,7.6922,7.6188,7.5139,7.3758,7.345,7.3083,7.2496,7.2496,7.2496,7.2496,7.2496,7.2496,7.2452,7.0568,6.9708,5.03,5.0797,5.1989,5.5228,5.8174,6.1616,6.6965,6.8478,6.9301,7.1167,6.9846,6.8605,6.9383,6.9654,7.0094,7.112,7.2293,7.3308,7.4052,7.4153,7.3984,7.3567,7.35,7.3375,7.3071,7.3037,7.2766,7.2022,7.1954,7.1785,7.1323,7.1289,7.1289,7.1289,7.1289,7.1501,7.1895,7.1895,7.29,7.4885,7.4885,7.5422,7.6396,7.7019,7.7289,7.7289,7.7289,7.7289,7.7289,7.7289,7.7289,7.7289,7.7289,7.7289,7.7289,7.7289,7.6995,7.6628,7.7142,7.6995,7.6665,7.7142,7.7289,7.7289,7.7289,7.7289,7.7289,7.7289,7.7289,7.7289,7.7289,7.7289,7.7289,7.7289,7.7289,7.7289,7.7289,7.7289,7.7289,7.7289,7.7289,7.7289,7.7289,7.7289,7.7289,7.7289,7.7289,7.7289,7.7289,7.7289,7.7289,7.7289,7.7289,7.7289,7.7289,7.7289,7.7289,7.7289,7.6848,7.6019,7.4698,7.4037,7.3303,7.2532,7.2496,7.2496,7.2496,7.2826,7.2973,7.2929,7.1051,7.0186,5.069,5.1116,5.222,5.6072,5.9095,6.2624,6.8567,7.1479,7.2631,7.1576,7.0316,6.9616,7.0184,6.9755,6.9755,7.1154,7.1921,7.2563,7.3297,7.3364,7.3297,7.3297,7.3297,7.3037,7.236,7.2293,7.2022,7.1357,7.1289,7.1289,7.1289,7.1289,7.1289,7.1289,7.1289,7.1764,7.2776,7.2797,7.3811,7.5787,7.5701,7.6211,7.7179,7.7289,7.7289,7.7289,7.7289,7.7289,7.7289,7.7289,7.7289,7.7289,7.7215,7.7252,7.7289,7.7215,7.7179,7.7215,7.7289,7.7252,7.7215,7.7289,7.7289,7.7289,7.7289,7.7289,7.7289,7.7289,7.7289,7.7289,7.7289,7.7289,7.7289,7.7289,7.7289,7.7289,7.7289,7.7289,7.7289,7.7289,7.7289,7.7289,7.7289,7.7289,7.7289,7.7289,7.7289,7.7289,7.7289,7.7289,7.7289,7.7289,7.7289,7.7289,7.7289,7.7289,7.7289,7.7289,7.7289,7.6922,7.613,7.4698,7.3523,7.2753,7.2716,7.2716,7.2716,7.345,7.378,7.3641,7.1766,7.0859,4.9941,5.1172,5.3283,5.8403,6.4166,6.9369,7.2351,7.3505,7.3534,7.1946,7.1822,7.1824,7.1163,7.0917,7.112,7.2022,7.1819,7.1785,7.2529,7.2157,7.1785,7.1785,7.1785,7.1718,7.1526,7.1526,7.1458,7.1289,7.1289,7.1289,7.1289,7.1289,7.1289,7.1289,7.1289,7.1764,7.2776,7.2797,7.3811,7.577,7.4994,7.5221,7.6387,7.6995,7.7289,7.7289,7.7289,7.7289,7.7289,7.7289,7.7289,7.7252,7.6592,7.6738,7.7215,7.6607,7.635,7.6445,7.7069,7.6885,7.646,7.7105,7.7289,7.7289,7.7289,7.7289,7.7289,7.7289,7.7289,7.7289,7.7289,7.7289,7.7289,7.7289,7.7289,7.7289,7.7289,7.7289,7.7289,7.7289,7.7289,7.7289,7.7289,7.7289,7.7289,7.7289,7.7289,7.7289,7.7289,7.7289,7.7289,7.7289,7.7289,7.7289,7.7289,7.7289,7.7289,7.7289,7.7289,7.6922,7.613,7.5763,7.5212,7.439,7.439,7.439,7.439,7.4551,7.4331,7.3641,7.1766,7.0558,5.0534,5.2827,5.6255,6.322,6.8806,7.3067,7.4922,7.6016,7.6083,7.4008,7.3159,7.2645,7.212,7.1622,7.1424,7.1819,7.1526,7.1424,7.1819,7.1526,7.1289,7.1289,7.1289,7.1289,7.1289,7.1289,7.1289,7.1289,7.1289,7.1289,7.1289,7.1289,7.1289,7.1289,7.1289,7.1594,7.2277,7.2277,7.2875,7.4011,7.3489,7.4011,7.5462,7.6313,7.6922,7.7289,7.7289,7.7289,7.7289,7.7289,7.7289,7.7215,7.6423,7.6607,7.7215,7.6387,7.635,7.6738,7.7142,7.6775,7.624,7.7032,7.7032,7.6812,7.7179,7.7032,7.6812,7.7179,7.7032,7.6812,7.7215,7.7289,7.7289,7.7289,7.7289,7.7289,7.7289,7.7289,7.7289,7.7289,7.7289,7.7289,7.7289,7.7289,7.7289,7.7289,7.7289,7.7289,7.7289,7.7289,7.7289,7.7289,7.7289,7.7289,7.7289,7.7289,7.7289,7.7289,7.7289,7.7105,7.6702,7.6665,7.6114,7.4903,7.4903,7.4903,7.4903,7.4801,7.4358,7.3557,7.1659,7.0354,5.131,5.5056,6.004,6.7976,7.232,7.5093,7.6776,7.8214,7.8599,7.6597,7.464,7.3098,7.2518,7.1846,7.1298,7.1131,7.1222,7.1289,7.1289,7.1289,7.1289,7.1289,7.1289,7.1289,7.1289,7.1289,7.1289,7.1289,7.1289,7.1289,7.1289,7.1289,7.1289,7.1289,7.1176,7.1395,7.1951,7.1651,7.1789,7.2335,7.2193,7.294,7.4479,7.5296,7.6276,7.7289,7.7289,7.7289,7.7289,7.7289,7.7289,7.7215,7.6423,7.6533,7.6995,7.635,7.6518,7.7105,7.7252,7.6848,7.6423,7.7069,7.6738,7.624,7.7069,7.6738,7.6276,7.7069,7.6812,7.646,7.7142,7.7289,7.7289,7.7289,7.7289,7.7289,7.7289,7.7289,7.7289,7.7289,7.7289,7.7289,7.7289,7.7289,7.7289,7.7289,7.7289,7.7289,7.7289,7.7289,7.7289,7.7289,7.7289,7.7289,7.7289,7.7289,7.7289,7.7289,7.7289,7.7289,7.7289,7.7289,7.6665,7.5344,7.5307,7.5307,7.5307,7.5011,7.4385,7.3458,7.1553,7.0158,5.0726,5.6675,6.3555,6.9253,7.3213,7.6218,7.8171,7.8912,7.9037,7.8552,7.6744,7.4319,7.1334,7.1228,7.1295,7.0485,7.0872,7.1289,7.1289,7.1289,7.1289,7.1289,7.1289,7.1289,7.1289,7.1289,7.1289,7.1289,7.1289,7.1289,7.1289,7.1289,7.1289,7.1289,7.0669,7.1177,7.2879,7.1473,7.1612,7.3324,7.2607,7.2683,7.3419,7.3826,7.5212,7.7289,7.7289,7.7289,7.7289,7.7289,7.7289,7.7215,7.6423,7.6166,7.624,7.613,7.6166,7.635,7.7069,7.7252,7.7179,7.7289,7.6738,7.624,7.7069,7.6738,7.6276,7.7069,7.7215,7.7179,7.7289,7.7289,7.7289,7.7289,7.7289,7.7289,7.7289,7.7289,7.7289,7.7289,7.7289,7.7289,7.7289,7.7289,7.7289,7.7289,7.7289,7.7289,7.7289,7.7289,7.7289,7.7289,7.7289,7.7289,7.7289,7.7289,7.7289,7.7289,7.7289,7.7289,7.7289,7.7289,7.7215,7.6995,7.6995,7.6995,7.6995,7.6265,7.5072,7.3474,7.1677,6.9954,5.4938,5.9653,6.4506,7.1239,7.435,7.6406,7.8987,7.9915,7.9867,7.8513,7.6817,7.4994,7.2997,7.1723,7.0841,7.0422,7.0203,7.0229,7.0635,7.0669,7.0838,7.1255,7.1289,7.1289,7.1289,7.0939,7.0872,7.1255,7.0939,7.0669,7.0669,7.0669,7.05,7.0094,6.9755,7.0075,7.102,7.0297,7.0132,7.0537,7.0166,7.0662,7.1941,7.2591,7.453,7.7289,7.6812,7.6885,7.7289,7.7289,7.7289,7.7179,7.5931,7.5968,7.6665,7.5747,7.6004,7.6812,7.7179,7.6995,7.6702,7.7142,7.6738,7.624,7.7069,7.6738,7.6276,7.7069,7.6995,7.6738,7.7179,7.7289,7.7289,7.7289,7.7289,7.7289,7.7289,7.7289,7.7289,7.7289,7.7289,7.7289,7.7289,7.7289,7.7289,7.7289,7.7289,7.7289,7.7289,7.7289,7.7289,7.7289,7.7289,7.7289,7.7289,7.7289,7.7289,7.7289,7.7289,7.7289,7.7289,7.7289,7.7289,7.7289,7.7289,7.7289,7.7289,7.638,7.5103,7.3458,7.2006,7.0217,5.6932,6.0368,6.3675,7.0957,7.3918,7.5776,7.8608,7.9819,7.9716,7.7599,7.6013,7.4704,7.3647,7.1728,7.019,6.9684,6.9556,6.9636,6.994,7.0157,7.0497,7.102,7.0892,7.0714,7.0714,7.0229,7.0161,7.0703,7.0229,6.9925,6.9925,6.9925,6.9654,6.9113,6.9156,6.9351,6.9753,6.9389,6.8682,6.7615,6.7808,6.8865,7.0665,7.1546,7.3711,7.6665,7.6276,7.646,7.6995,7.6995,7.6995,7.6848,7.5454,7.5637,7.6555,7.5564,7.5968,7.7032,7.7252,7.6922,7.6481,7.7105,7.6738,7.624,7.7069,7.6738,7.6276,7.7069,7.6885,7.6533,7.7142,7.7289,7.7289,7.7289,7.7289,7.7289,7.7289,7.7289,7.7289,7.7289,7.7289,7.7289,7.7289,7.7289,7.7289,7.7289,7.7289,7.7289,7.7289,7.7289,7.7289,7.7289,7.7289,7.7289,7.7289,7.7289,7.7289,7.7289,7.7289,7.7289,7.7289,7.7289,7.7289,7.7289,7.7289,7.7289,7.7289,7.6328,7.5155,7.3782,7.2402,7.0719,5.3041,5.6702,6.0895,6.6398,7.0655,7.4099,7.6421,7.7575,7.7688,7.5966,7.4474,7.3032,7.1479,7.0441,6.9229,6.7481,6.9099,7.0323,6.956,7.0044,7.0494,7.0563,6.9756,6.9214,6.9214,6.918,6.918,6.9214,6.918,6.9147,6.9147,6.9147,6.9147,6.9113,6.9275,6.9826,7.0732,6.9354,6.7762,6.6035,6.6784,6.8115,6.9902,7.0773,7.2585,7.505,7.5799,7.613,7.6166,7.6166,7.6166,7.6093,7.5234,7.494,7.5124,7.5799,7.6093,7.6276,7.7032,7.7289,7.7252,7.7289,7.6738,7.624,7.7069,7.6738,7.6276,7.7069,7.7289,7.7252,7.7289,7.7289,7.7289,7.7289,7.7289,7.7289,7.7289,7.7289,7.7289,7.7289,7.7289,7.7289,7.7289,7.7289,7.7289,7.7289,7.7289,7.7289,7.7289,7.7289,7.7289,7.7289,7.7289,7.7289,7.7289,7.7289,7.7289,7.7289,7.7289,7.7289,7.7289,7.7289,7.7289,7.7289,7.7289,7.7289,7.7289,7.6488,7.5609,7.4593,7.2816,7.1431,5.2723,5.5685,5.9281,6.5145,6.8863,7.1806,7.4638,7.6284,7.6587,7.4338,7.2782,7.0971,6.8289,6.8072,6.8267,6.8114,6.7848,6.7923,6.8655,6.848,6.863,6.9614,6.8924,6.8538,6.9045,6.8639,6.8538,6.9079,6.8605,6.8335,6.8335,6.8335,6.8098,6.7658,6.7698,6.7954,6.8409,6.7887,6.7318,6.668,6.6333,6.7419,6.9761,7.0075,7.1372,7.3399,7.4221,7.4845,7.5322,7.5322,7.5322,7.5249,7.4441,7.4441,7.494,7.5197,7.5652,7.624,7.7032,7.7289,7.7289,7.7289,7.7105,7.6922,7.7215,7.7105,7.6922,7.7215,7.7289,7.7289,7.7289,7.7289,7.7289,7.7289,7.7289,7.7289,7.7289,7.7289,7.7289,7.7289,7.7289,7.7289,7.7289,7.7289,7.7289,7.7289,7.7289,7.7289,7.7289,7.7289,7.7289,7.7289,7.7289,7.7289,7.7289,7.7289,7.7289,7.7289,7.7289,7.7289,7.7289,7.7289,7.7289,7.7289,7.7289,7.7289,7.7289,7.6995,7.6417,7.5572,7.4798,7.3386,5.1297,5.3722,5.687,6.283,6.5558,6.7762,7.1628,7.2944,7.2897,7.1439,7.0185,6.8587,6.6099,6.5787,6.6048,6.6585,6.6387,6.6382,6.7143,6.7162,6.7347,6.81,6.7353,6.7015,6.7557,6.7117,6.7117,6.7895,6.7218,6.7015,6.7489,6.7286,6.7184,6.7284,6.725,6.7364,6.7568,6.7026,6.6614,6.6299,6.5409,6.6224,6.8539,6.9088,7.0322,7.2151,7.2936,7.3744,7.4515,7.4515,7.4515,7.4441,7.3597,7.378,7.4515,7.4515,7.5175,7.6166,7.6702,7.7069,7.7289,7.7289,7.7289,7.7289,7.7289,7.7289,7.7289,7.7289,7.7289,7.7289,7.7289,7.7289,7.7289,7.7289,7.7289,7.7289,7.7289,7.7289,7.7289,7.7289,7.7289,7.7289,7.7289,7.7289,7.7289,7.7289,7.7289,7.7289,7.7289,7.7289,7.7289,7.7289,7.7289,7.7289,7.7289,7.7289,7.7289,7.7289,7.7289,7.7289,7.7289,7.7289,7.7289,7.7289,7.7289,7.7289,7.7289,7.7289,7.7032,7.6503,7.6026,7.4707,0.0,0.0,0.0,5.9024,6.0468,6.1985,6.7292,6.735,6.6458,6.7121,6.6609,6.5832,6.5004,6.3624,6.2615,6.2631,6.468,6.5966,6.5095,6.624,6.6901,6.607,6.5157,6.458,6.4613,6.4613,6.4884,6.5615,6.4986,6.5222,6.669,6.6102,6.6446,6.8077,6.8115,6.8191,6.8364,6.6731,6.5537,6.4736,6.3903,6.4449,6.6307,6.7883,6.9601,7.1344,7.2165,7.2936,7.367,7.367,7.367,7.3611,7.2789,7.2973,7.3685,7.367,7.4698,7.6019,7.6056,7.6592,7.7252,7.7252,7.7289,7.7289,7.7289,7.7289,7.7289,7.7289,7.7289,7.7289,7.7289,7.7289,7.7289,7.7289,7.7289,7.7289,7.7289,7.7289,7.7289,7.7289,7.7289,7.7289,7.7289,7.7289,7.7289,7.7289,7.7289,7.7289,7.7289,7.7289,7.7289,7.7289,7.7289,7.7289,7.7289,7.7289,7.7289,7.7289,7.7289,7.7289,7.7289,7.7289,7.7289,7.7289,7.7289,7.7289,7.7289,7.7289,7.7289,7.7258,7.628,7.5299,4.7526,0.0,0.0,0.0,0.0,0.0,6.148,6.2623,6.3309,6.3885,6.3415,6.2579,6.1608,6.0673,6.0235,6.0839,6.2521,6.3816,6.4144,6.4478,6.4807,6.5107,6.4332,6.3984,6.4546,6.4613,6.4681,6.4884,6.4715,6.5019,6.5933,6.5818,6.5908,6.6385,6.586,6.5386,6.4873,6.443,6.4069,6.3845,6.3617,6.4725,6.7017,6.8096,6.9601,7.1344,7.2165,7.2642,7.2826,7.2826,7.2826,7.2826,7.2606,7.2642,7.2899,7.3487,7.3964,7.4441,7.5028,7.5747,7.6423,7.6423,7.6812,7.7289,7.7289,7.7289,7.7289,7.7289,7.7289,7.7289,7.7289,7.7289,7.7289,7.7289,7.7289,7.7289,7.7289,7.7289,7.7289,7.7289,7.7289,7.7289,7.7289,7.7289,7.7289,7.7289,7.7289,7.7289,7.7289,7.7289,7.7289,7.7289,7.7289,7.7289,7.7289,7.7289,7.7289,7.7289,7.7289,7.7289,7.7289,7.7289,7.7289,7.7289,7.7289,7.7289,7.7289,7.7289,7.7289,7.7258,7.628,7.6027,0.0,0.0,0.0,0.0,0.0,0.0,5.8198,5.8869,5.9306,6.0821,6.0559,5.9968,5.9685,5.9032,5.8809,5.9642,6.0791,6.2004,6.3147,6.3537,6.3728,6.3802,6.3363,6.3226,6.3632,6.3666,6.3802,6.414,6.3869,6.4005,6.4749,6.5053,6.5222,6.5222,6.4816,6.441,6.3971,6.3646,6.3511,6.3511,6.3193,6.4209,6.638,6.7564,6.8918,7.0389,7.1872,7.2312,7.2041,7.2349,7.2496,7.2496,7.2496,7.2496,7.2569,7.3046,7.3413,7.378,7.4258,7.5139,7.6093,7.6093,7.6628,7.7289,7.7289,7.7289,7.7289,7.7289,7.7289,7.7289,7.7289,7.7289,7.7289,7.7289,7.7289,7.7289,7.7289,7.7289,7.7289,7.7289,7.7289,7.7289,7.7289,7.7289,7.7289,7.7289,7.7289,7.7289,7.7289,7.7289,7.7289,7.7289,7.7289,7.7289,7.7289,7.7289,7.7289,7.7289,7.7289,7.7289,7.7289,7.7289,7.7289,7.7289,7.7289,7.7289,7.7289,7.7289,7.7289,7.7273,7.6712,7.6745,0.0,0.0,0.0,0.0,5.1794,0.0,5.6268,5.5858,5.5277,5.8066,5.8051,5.778,5.8607,5.8152,5.7881,5.8641,5.937,6.0449,6.2131,6.3035,6.3258,6.2498,6.24,6.24,6.24,6.24,6.2651,6.3308,6.2854,6.2821,6.3443,6.414,6.4478,6.4478,6.441,6.4377,6.4377,6.3734,6.3376,6.3376,6.2719,6.3314,6.5035,6.6572,6.7876,6.9009,7.1248,7.1835,7.1233,7.2041,7.2422,7.2496,7.2496,7.2496,7.2496,7.2496,7.2936,7.356,7.356,7.4551,7.5836,7.5946,7.6518,7.7179,7.7289,7.7289,7.7289,7.7289,7.7289,7.7289,7.7289,7.7289,7.7289,7.7289,7.7289,7.7289,7.7289,7.7289,7.7289,7.7289,7.7289,7.7289,7.7289,7.7289,7.7289,7.7289,7.7289,7.7289,7.7289,7.7289,7.7289,7.7289,7.7289,7.7289,7.7289,7.7289,7.7289,7.7289,7.7289,7.7289,7.7289,7.7289,7.7289,7.7289,7.7289,7.7289,7.7289,7.7289,7.7289,7.7289,7.7289,7.7289,0.0,0.0,0.0,0.0,0.0,0.0,5.2443,5.3143,5.4228,5.5969,5.575,5.5649,5.7002,5.663,5.6375,5.7103,5.7848,5.9072,6.1208,6.2163,6.2581,6.242,6.24,6.24,6.24,6.24,6.2448,6.2584,6.3024,6.3342,6.3477,6.3646,6.3714,6.3714,6.3125,6.284,6.284,6.2685,6.2618,6.2618,6.2468,6.3314,6.5035,6.5988,6.7357,6.8972,7.0073,7.0477,7.0403,7.1197,7.1931,7.2496,7.2496,7.2496,7.2496,7.2496,7.2606,7.2716,7.2716,7.3377,7.4258,7.4918,7.5674,7.6445,7.7105,7.7289,7.7289,7.7289,7.7289,7.7289,7.7289,7.7289,7.7289,7.7289,7.7289,7.7289,7.7289,7.7289,7.7289,7.7289,7.7289,7.7289,7.7289,7.7289,7.7289,7.7289,7.7289,7.7289,7.7289,7.7289,7.7289,7.7289,7.7289,7.7289,7.7289,7.7289,7.7289,7.7289,7.7289,7.7289,7.7289,7.7289,7.7289,7.7289,7.7289,7.7289,7.7289,7.7289,7.7289,7.7289,7.7289,7.7289,0.0,0.0,0.0,5.0371,0.0,0.0,0.0,5.1792,5.2334,5.4228,5.3416,5.2824,5.4296,5.394,5.3839,5.4972,5.6089,5.7476,5.9336,6.0554,6.1535,6.2333,6.1704,6.1535,6.2333,6.2076,6.2009,6.2367,6.2753,6.2956,6.2956,6.2956,6.2956,6.2956,6.2584,6.24,6.24,6.24,6.24,6.24,6.24,6.3314,6.5035,6.583,6.6962,6.8348,6.9559,7.011,7.0146,7.0977,7.1784,7.2496,7.2496,7.2496,7.2496,7.2496,7.2496,7.2496,7.2496,7.3046,7.3817,7.4647,7.5432,7.624,7.7069,7.7289,7.7289,7.7289,7.7289,7.7289,7.7289,7.7289,7.7289,7.7289,7.7289,7.7289,7.7289,7.7289,7.7289,7.7289,7.7289,7.7289,7.7289,7.7289,7.7289,7.7289,7.7289,7.7289,7.7289,7.7289,7.7289,7.7289,7.7289,7.7289,7.7289,7.7289,7.7289,7.7289,7.7289,7.7289,7.7289,7.7289,7.7289,7.7289,7.7289,7.7289,7.7289,7.7289,7.7289,7.7289,7.7289,7.7289,0.0,0.0,0.0,0.0,0.0,5.0405,0.0,0.0,0.0,5.2706,5.1589,5.0608,5.1691,5.1386,5.1404,5.2638,5.394,5.5395,5.7054,5.8298,5.9747,6.1756,6.0867,6.0666,6.2062,6.138,6.1231,6.211,6.1907,6.1873,6.2178,6.2042,6.196,6.196,6.211,6.2197,6.2197,6.2333,6.24,6.24,6.24,6.3314,6.4999,6.5653,6.6587,6.7774,6.9082,6.9706,6.9926,7.072,7.1527,7.2275,7.2459,7.2496,7.2496,7.2496,7.2496,7.2496,7.2496,7.2936,7.3634,7.4588,7.5527,7.6445,7.7105,7.7289,7.7289,7.7289,7.7289,7.7289,7.7289,7.7289,7.7289,7.7289,7.7289,7.7289,7.7289,7.7289,7.7289,7.7289,7.7289,7.7289,7.7289,7.7289,7.7289,7.7289,7.7289,7.7289,7.7289,7.7289,7.7289,7.7289,7.7289,7.7289,7.7289,7.7289,7.7289,7.7289,7.7289,7.7289,7.7289,7.7289,7.7289,7.7289,7.7289,7.7289,7.7289,7.7289,7.7289,7.7289,7.7289,7.7289,0.0,0.0,0.0,0.0,5.2604,0.0,0.0,0.0,5.1928,5.1539,0.0,5.0947,5.0439,0.0,0.0,5.0455,5.1183,5.2486,5.4685,5.5054,5.6493,6.0117,6.0327,6.0529,6.143,6.0157,5.9859,6.1332,6.0182,5.9979,6.1366,6.0757,6.0351,6.0351,6.1061,6.1434,6.1434,6.2076,6.24,6.24,6.24,6.3314,6.4999,6.507,6.6084,6.77,6.7884,6.8385,6.9119,6.9889,7.0697,7.1527,7.2224,7.2496,7.2496,7.2496,7.2496,7.2496,7.2496,7.2569,7.2899,7.439,7.5931,7.7179,7.7289,7.7289,7.7289,7.7289,7.7289,7.7289,7.7289,7.7289,7.7289,7.7289,7.7289,7.7289,7.7289,7.7289,7.7289,7.7289,7.7289,7.7289,7.7289,7.7289,7.7289,7.7289,7.7289,7.7289,7.7289,7.7289,7.7289,7.7289,7.7289,7.7289,7.7289,7.7289,7.7289,7.7289,7.7289,7.7289,7.7289,7.7289,7.7289,7.7289,7.7289,7.7289,7.7289,7.7289,7.7289,7.7289,7.7289,7.7289,0.0,0.0,0.0,0.0,0.0,0.0,5.1048,0.0,5.0439,5.0541,0.0,0.0,0.0,0.0,0.0,0.0,5.0067,5.1048,5.2435,5.3006,5.4833,5.9095,5.8354,5.7978,5.9246,5.9166,5.9317,5.9968,5.9376,5.9284,5.9926,6.0047,6.0114,6.0114,6.0892,6.1298,6.1298,6.2009,6.24,6.24,6.24,6.3314,6.4999,6.4999,6.5977,6.77,6.77,6.8435,6.9596,6.9449,7.0132,7.1344,7.1674,7.2092,7.2496,7.2496,7.2496,7.2496,7.2496,7.2496,7.2789,7.439,7.5674,7.6702,7.7179,7.7289,7.7289,7.7289,7.7289,7.7289,7.7289,7.7289,7.7289,7.7289,7.7289,7.7289,7.7289,7.7289,7.7289,7.7289,7.7289,7.7289,7.7289,7.7289,7.7289,7.7289,7.7289,7.7289,7.7289,7.7289,7.7289,7.7289,7.7289,7.7289,7.7289,7.7289,7.7289,7.7289,7.7289,7.7289,7.7289,7.7289,7.7289,7.7289,7.7289,7.7289,7.7289,7.7289,7.7289,7.7289,7.7289,7.6988,5.1295,0.0,0.0,0.0,0.0,0.0,0.0,0.0,0.0,0.0,4.956,0.0,0.0,0.0,4.8285,0.0,0.0,4.973,5.0763,5.139,5.3361,5.7688,5.7213,5.6887,5.7831,5.8066,5.8335,5.8733,5.818,5.8084,5.8693,5.8998,5.9302,5.9471,6.025,6.0791,6.096,6.1704,6.2334,6.274,6.274,6.3683,6.5394,6.5394,6.6226,6.77,6.77,6.8508,6.9743,6.9155,6.9729,7.0977,7.1197,7.1674,7.2202,7.2422,7.2496,7.2496,7.2496,7.2642,7.3046,7.4463,7.5432,7.624,7.7069,7.7289,7.7289,7.7289,7.7289,7.7289,7.7289,7.7289,7.7289,7.7289,7.7289,7.7289,7.7289,7.7289,7.7289,7.7289,7.7289,7.7289,7.7289,7.7289,7.7289,7.7289,7.7289,7.7289,7.7289,7.7289,7.7289,7.7289,7.7289,7.7289,7.7289,7.7289,7.7289,7.7289,7.7289,7.7289,7.7289,7.7289,7.7289,7.7289,7.7289,7.7289,7.7289,7.7289,7.7289,7.7289,7.7289,7.6888,0.0,0.0,0.0,5.2841,0.0,0.0,0.0,0.0,5.093,0.0,0.0,5.1725,5.032,4.9259,0.0,0.0,0.0,0.0,0.0,5.011,5.1548,5.5433,5.779,5.8781,5.8083,5.6675,5.6413,5.7834,5.5945,5.57,5.7832,5.7273,5.7239,5.7967,5.8693,5.9419,6.0148,6.0926,6.2135,6.3665,6.3665,6.4616,6.6374,6.6374,6.6852,6.77,6.77,6.8164,6.8935,6.8898,6.9376,7.022,7.0977,7.1307,7.1417,7.2202,7.2496,7.2496,7.2496,7.301,7.378,7.461,7.5432,7.624,7.7069,7.7289,7.7289,7.7289,7.7289,7.7289,7.7289,7.7289,7.7289,7.7289,7.7289,7.7289,7.7289,7.7289,7.7289,7.7289,7.7289,7.7289,7.7289,7.7289,7.7289,7.7289,7.7289,7.7289,7.7289,7.7289,7.7289,7.7289,7.7289,7.7289,7.7289,7.7289,7.7289,7.7289,7.7289,7.7289,7.7289,7.7289,7.7289,7.7289,7.7289,7.7289,7.7289,7.7289,7.7289,7.7289,7.7289,7.7273,5.2222,5.3614,5.4495,5.3972,5.3653,5.2976,0.0,0.0,0.0,0.0,0.0,0.0,0.0,0.0,0.0,0.0,0.0,0.0,0.0,4.9436,5.0687,5.2533,5.5638,5.7509,5.7242,5.5805,5.5347,5.6375,5.4768,5.4306,5.565,5.6393,5.69,5.7171,5.8337,5.9351,6.008,6.0892,6.1828,6.2903,6.2903,6.3561,6.475,6.5306,6.6031,6.6953,6.748,6.8164,6.8862,6.8311,6.8568,6.9339,6.9619,7.0036,7.066,7.2018,7.2496,7.2496,7.2496,7.2679,7.312,7.4463,7.5087,7.5564,7.6885,7.7289,7.7289,7.7289,7.7289,7.7289,7.7289,7.7289,7.7289,7.7289,7.7289,7.7289,7.7289,7.7289,7.7289,7.7289,7.7289,7.7289,7.7289,7.7289,7.7289,7.7289,7.7289,7.7289,7.7289,7.7289,7.7289,7.7289,7.7289,7.7289,7.7289,7.7289,7.7289,7.7289,7.7289,7.7289,7.7289,7.7289,7.7289,7.7289,7.7289,7.7289,7.7289,7.7289,7.7289,7.7289,7.7289,7.6579,5.2018,5.3442,5.4603,5.5217,5.504,5.4228,5.2418,5.279,5.3179,0.0,0.0,0.0,0.0,0.0,0.0,0.0,0.0,0.0,0.0,4.9267,5.0376,5.141,5.4384,5.6381,5.6381,5.5244,5.4616,5.4866,5.3688,5.3299,5.4161,5.5615,5.6528,5.6799,5.7983,5.9099,6.008,6.0622,6.1708,6.338,6.338,6.4057,6.5291,6.5799,6.6181,6.6486,6.7011,6.733,6.7498,6.73,6.7558,6.8084,6.8972,6.9633,7.0257,7.1578,7.2261,7.2496,7.2496,7.2496,7.2789,7.439,7.4903,7.5197,7.6812,7.7289,7.7362,7.7693,7.7546,7.7362,7.7693,7.7546,7.7289,7.7289,7.7289,7.7289,7.7289,7.7289,7.7289,7.7289,7.7289,7.7289,7.7289,7.7289,7.7289,7.7289,7.7289,7.7289,7.7289,7.7289,7.7289,7.7289,7.7289,7.7289,7.7289,7.7289,7.7289,7.7289,7.7289,7.7289,7.7289,7.7289,7.7729,7.861,7.7766,7.7729,7.861,7.7729,7.7289,7.7289,7.7289,7.6396]}]]